[[{"header":{"parameterUnit":"m.s-1","parameterCategory":1,"la1":30.6,"la2":28.766,"lo1":-90.7593,"lo2":-88.6598,"dy":0.0162,"dx":0.0183,"nx":116,"ny":114,"refTime":"2024-06-27T06:00:00:Z","depth":0,"parameterNumber":2,"parameterNumberName":"U-component_of_WINDS"},"data":[0.0,0.0,0.0,0.0,0.0,0.0,0.0,0.0,0.0,0.0,0.0,0.0,0.0,0.0,0.0,0.0,0.0,0.0,0.0,0.0,0.0,0.0,0.0,0.0,0.0,0.0,0.0,0.0,0.0,0.0,0.0,0.0,0.0,0.0,0.0,0.0,0.0,0.0,0.0,0.0,0.0,0.0,0.0,0.0,0.0,0.0,0.0,0.0,0.0,0.0,0.0,0.0,0.0,0.0,0.0,0.0,0.0,0.0,0.0,0.0,0.0,0.0,0.0,0.0,0.0,0.0,0.0,0.0,0.0,0.0,0.0,0.0,0.0,0.0,0.0,0.0,0.0,0.0,0.0,0.0,0.0,0.0,0.0,0.0,0.0,0.0,0.0,0.0,0.0,0.0,0.0,0.0,0.0,0.0,0.0,0.0,0.0,0.0,0.0,0.0,0.0,0.0,0.0,0.0,0.0,0.0,0.0,0.0,0.0,0.0,0.0,0.0,0.0,0.0,0.0,0.0,0.0,0.0,0.0,0.0,0.0,0.0,0.0,0.0,0.0,0.0,0.0,0.0,0.0,0.0,0.0,0.0,0.0,0.0,0.0,0.0,0.0,0.0,0.0,0.0,0.0,0.0,0.0,0.0,0.0,0.0,0.0,0.0,0.0,0.0,0.0,0.0,0.0,0.0,0.0,0.0,0.0,0.0,0.0,0.0,0.0,0.0,0.0,0.0,0.0,0.0,0.0,0.0,0.0,0.0,0.0,0.0,0.0,0.0,0.0,0.0,0.0,0.0,0.0,0.0,0.0,0.0,0.0,0.0,0.0,0.0,0.0,0.0,0.0,0.0,0.0,0.0,0.0,0.0,0.0,0.0,0.0,0.0,0.0,0.0,0.0,0.0,0.0,0.0,0.0,0.0,0.0,0.0,0.0,0.0,0.0,0.0,0.0,0.0,0.0,0.0,0.0,0.0,0.0,0.0,0.0,0.0,0.0,0.0,0.0,0.0,0.0,0.0,0.0,0.0,0.0,0.0,0.0,0.0,0.0,0.0,0.0,0.0,0.0,0.0,0.0,0.0,0.0,0.0,0.0,0.0,0.0,0.0,0.0,0.0,0.0,0.0,0.0,0.0,0.0,0.0,0.0,0.0,0.0,0.0,0.0,0.0,0.0,0.0,0.0,0.0,0.0,0.0,0.0,0.0,0.0,0.0,0.0,0.0,0.0,0.0,0.0,0.0,0.0,0.0,0.0,0.0,0.0,0.0,0.0,0.0,0.0,0.0,0.0,0.0,0.0,0.0,0.0,0.0,0.0,0.0,0.0,0.0,0.0,0.0,0.0,0.0,0.0,0.0,0.0,0.0,0.0,0.0,0.0,0.0,0.0,0.0,0.0,0.0,0.0,0.0,0.0,0.0,0.0,0.0,0.0,0.0,0.0,0.0,0.0,0.0,0.0,0.0,0.0,0.0,0.0,0.0,0.0,0.0,0.0,0.0,0.0,0.0,0.0,0.0,0.0,0.0,0.0,0.0,0.0,0.0,0.0,0.0,0.0,0.0,0.0,0.0,0.0,0.0,0.0,0.0,0.0,0.0,0.0,0.0,0.0,0.0,0.0,0.0,0.0,0.0,0.0,0.0,0.0,0.0,0.0,0.0,0.0,0.0,0.0,0.0,0.0,0.0,0.0,0.0,0.0,0.0,0.0,0.0,0.0,0.0,0.0,0.0,0.0,0.0,0.0,0.0,0.0,0.0,0.0,0.0,0.0,0.0,0.0,0.0,0.0,0.0,0.0,0.0,0.0,0.0,0.0,0.0,0.0,0.0,0.0,0.0,0.0,0.0,0.0,0.0,0.0,0.0,0.0,0.0,0.0,0.0,0.0,0.0,0.0,0.0,0.0,0.0,0.0,0.0,0.0,0.0,0.0,0.0,0.0,0.0,0.0,0.0,0.0,0.0,0.0,0.0,0.0,0.0,0.0,0.0,0.0,0.0,0.0,0.0,0.0,0.0,0.0,0.0,0.0,0.0,0.0,0.0,0.0,0.0,0.0,0.0,0.0,0.0,0.0,0.0,0.0,0.0,0.0,0.0,0.0,0.0,0.0,0.0,0.0,0.0,0.0,0.0,0.0,0.0,0.0,0.0,0.0,0.0,0.0,0.0,0.0,0.0,0.0,0.0,0.0,0.0,0.0,0.0,0.0,0.0,0.0,0.0,0.0,0.0,0.0,0.0,0.0,0.0,0.0,0.0,0.0,0.0,0.0,0.0,0.0,0.0,0.0,0.0,0.0,0.0,0.0,0.0,0.0,0.0,0.0,0.0,0.0,0.0,0.0,0.0,0.0,0.0,0.0,0.0,0.0,0.0,0.0,0.0,0.0,0.0,0.0,0.0,0.0,0.0,0.0,0.0,0.0,0.0,0.0,0.0,0.0,0.0,0.0,0.0,0.0,0.0,0.0,0.0,0.0,0.0,0.0,0.0,0.0,0.0,0.0,0.0,0.0,0.0,0.0,0.0,0.0,0.0,0.0,0.0,0.0,0.0,0.0,0.0,0.0,0.0,0.0,0.0,0.0,0.0,0.0,0.0,0.0,0.0,0.0,0.0,0.0,0.0,0.0,0.0,0.0,0.0,0.0,0.0,0.0,0.0,0.0,0.0,0.0,0.0,0.0,0.0,0.0,0.0,0.0,0.0,0.0,0.0,0.0,0.0,0.0,0.0,0.0,0.0,0.0,0.0,0.0,0.0,0.0,0.0,0.0,0.0,0.0,0.0,0.0,0.0,0.0,0.0,0.0,0.0,0.0,0.0,0.0,0.0,0.0,0.0,0.0,0.0,0.0,0.0,0.0,0.0,0.0,0.0,0.0,0.0,0.0,0.0,0.0,0.0,0.0,0.0,0.0,0.0,0.0,0.0,0.0,0.0,0.0,0.0,0.0,0.0,0.0,0.0,0.0,0.0,0.0,0.0,0.0,0.0,0.0,0.0,0.0,0.0,0.0,0.0,0.0,0.0,0.0,0.0,0.0,0.0,0.0,0.0,0.0,0.0,0.0,0.0,0.0,0.0,0.0,0.0,0.0,0.0,0.0,0.0,0.0,0.0,0.0,0.0,0.0,0.0,0.0,0.0,0.0,0.0,0.0,0.0,0.0,0.0,0.0,0.0,0.0,0.0,0.0,0.0,0.0,0.0,0.0,0.0,0.0,0.0,0.0,0.0,0.0,0.0,0.0,0.0,0.0,0.0,0.0,0.0,0.0,0.0,0.0,0.0,0.0,0.0,0.0,0.0,0.0,0.0,0.0,0.0,0.0,0.0,0.0,0.0,0.0,0.0,0.0,0.0,0.0,0.0,0.0,0.0,0.0,0.0,0.0,0.0,0.0,0.0,0.0,0.0,0.0,0.0,0.0,0.0,0.0,0.0,0.0,0.0,0.0,0.0,0.0,0.0,0.0,0.0,0.0,0.0,0.0,0.0,0.0,0.0,0.0,0.0,0.0,0.0,0.0,0.0,0.0,0.0,0.0,0.0,0.0,0.0,0.0,0.0,0.0,0.0,0.0,0.0,0.0,0.0,0.0,0.0,0.0,0.0,0.0,0.0,0.0,0.0,0.0,0.0,0.0,0.0,0.0,0.0,0.0,0.0,0.0,0.0,0.0,0.0,0.0,0.0,0.0,0.0,0.0,0.0,0.0,0.0,0.0,0.0,0.0,0.0,0.0,0.0,0.0,0.0,0.0,0.0,0.0,0.0,0.0,0.0,0.0,0.0,0.0,0.0,0.0,0.0,0.0,0.0,0.0,0.0,0.0,0.0,0.0,0.0,0.0,0.0,0.0,0.0,0.0,0.0,0.0,0.0,0.0,0.0,0.0,0.0,0.0,0.0,0.0,0.0,0.0,0.0,0.0,0.0,0.0,0.0,0.0,0.0,0.0,0.0,0.0,0.0,0.0,0.0,0.0,0.0,0.0,0.0,0.0,0.0,0.0,0.0,0.0,0.0,0.0,0.0,0.0,0.0,0.0,0.0,0.0,0.0,0.0,0.0,0.0,0.0,0.0,0.0,0.0,0.0,0.0,0.0,0.0,0.0,0.0,0.0,0.0,0.0,0.0,0.0,0.0,0.0,0.0,0.0,0.0,0.0,0.0,0.0,0.0,0.0,0.0,0.0,0.0,0.0,0.0,0.0,0.0,0.0,0.0,0.0,0.0,0.0,0.0,0.0,0.0,0.0,0.0,0.0,0.0,0.0,0.0,0.0,0.0,0.0,0.0,0.0,0.0,0.0,0.0,0.0,0.0,0.0,0.0,0.0,0.0,0.0,0.0,0.0,0.0,0.0,0.0,0.0,0.0,0.0,0.0,0.0,0.0,0.0,0.0,0.0,0.0,0.0,0.0,0.0,0.0,0.0,0.0,0.0,0.0,0.0,0.0,0.0,0.0,0.0,0.0,0.0,0.0,0.0,0.0,0.0,0.0,0.0,0.0,0.0,0.0,0.0,0.0,0.0,0.0,0.0,0.0,0.0,0.0,0.0,0.0,0.0,0.0,0.0,0.0,0.0,0.0,0.0,0.0,0.0,0.0,0.0,0.0,0.0,0.0,0.0,0.0,0.0,0.0,0.0,0.0,0.0,0.0,0.0,0.0,0.0,0.0,0.0,0.0,0.0,0.0,0.0,0.0,0.0,0.0,0.0,0.0,0.0,0.0,0.0,0.0,0.0,0.0,0.0,0.0,0.0,0.0,0.0,0.0,0.0,0.0,0.0,0.0,0.0,0.0,0.0,0.0,0.0,0.0,0.0,0.0,0.0,0.0,0.0,0.0,0.0,0.0,0.0,0.0,0.0,0.0,0.0,0.0,0.0,0.0,0.0,0.0,0.0,0.0,0.0,0.0,0.0,0.0,0.0,0.0,0.0,0.0,0.0,0.0,0.0,0.0,0.0,0.0,0.0,0.0,0.0,0.0,0.0,0.0,0.0,0.0,0.0,0.0,0.0,0.0,0.0,0.0,0.0,0.0,0.0,0.0,0.0,0.0,0.0,0.0,0.0,0.0,0.0,0.0,0.0,0.0,0.0,0.0,0.0,0.0,0.0,0.0,0.0,0.0,0.0,0.0,0.0,0.0,0.0,0.0,0.0,0.0,0.0,0.0,0.0,0.0,0.0,0.0,0.0,0.0,0.0,0.0,0.0,0.0,0.0,0.0,0.0,0.0,0.0,0.0,0.0,0.0,0.0,0.0,0.0,0.0,0.0,0.0,0.0,0.0,0.0,0.0,0.0,0.0,0.0,0.0,0.0,0.0,0.0,0.0,0.0,0.0,0.0,0.0,0.0,0.0,0.0,0.0,0.0,0.0,0.0,0.0,0.0,0.0,0.0,0.0,0.0,0.0,0.0,0.0,0.0,0.0,0.0,0.0,0.0,0.0,0.0,0.0,0.0,0.0,0.0,0.0,0.0,0.0,0.0,0.0,0.0,0.0,0.0,0.0,0.0,0.0,0.0,0.0,0.0,0.0,0.0,0.0,0.0,0.0,0.0,0.0,0.0,0.0,0.0,0.0,0.0,0.0,0.0,0.0,0.0,0.0,0.0,0.0,0.0,0.0,0.0,0.0,0.0,0.0,0.0,0.0,0.0,0.0,0.0,0.0,0.0,0.0,0.0,0.0,0.0,0.0,0.0,0.0,0.0,0.0,0.0,0.0,0.0,0.0,0.0,0.0,0.0,0.0,0.0,0.0,0.0,0.0,0.0,0.0,0.0,0.0,0.0,0.0,0.0,0.0,0.0,0.0,0.0,0.0,0.0,0.0,0.0,0.0,0.0,0.0,0.0,0.0,0.0,0.0,0.0,0.0,0.0,0.0,0.0,0.0,0.0,0.0,0.0,0.0,0.0,0.0,0.0,0.0,0.0,0.0,0.0,0.0,0.0,0.0,0.0,0.0,0.0,0.0,0.0,0.0,0.0,0.0,0.0,0.0,0.0,0.0,0.0,0.0,0.0,0.0,0.0,0.0,0.0,0.0,0.0,0.0,0.0,0.0,0.0,0.0,0.0,0.0,0.0,0.0,0.0,0.0,0.0,0.0,0.0,0.0,0.0,0.0,0.0,0.0,0.0,0.0,0.0,0.0,0.0,-2.1216,0.0,0.0,0.0,0.0,0.0,0.0,0.0,0.0,0.0,0.0,0.0,0.0,0.0,0.0,0.0,0.0,0.0,0.0,0.0,0.0,0.0,0.0,0.0,0.0,-1.5595,-1.6187,-1.7665,-1.78,-1.78,-1.78,0.0,0.0,0.0,0.0,0.0,-1.6147,-1.613,-1.596,-1.5595,-1.5595,-1.5791,-1.613,-1.613,-1.6519,-1.7213,0.0,0.0,0.0,0.0,0.0,0.0,0.0,0.0,0.0,0.0,0.0,0.0,0.0,0.0,0.0,0.0,0.0,0.0,0.0,0.0,0.0,0.0,0.0,0.0,0.0,0.0,0.0,0.0,0.0,0.0,0.0,0.0,0.0,0.0,0.0,0.0,0.0,0.0,0.0,0.0,0.0,0.0,0.0,0.0,0.0,0.0,0.0,0.0,0.0,0.0,0.0,0.0,0.0,0.0,0.0,0.0,0.0,0.0,0.0,0.0,0.0,0.0,0.0,0.0,0.0,0.0,0.0,0.0,0.0,0.0,0.0,-2.1829,0.0,0.0,0.0,0.0,0.0,0.0,0.0,0.0,0.0,0.0,0.0,0.0,0.0,0.0,0.0,0.0,0.0,0.0,0.0,0.0,0.0,-1.3811,-1.5436,-1.5595,-1.6187,-1.7665,-1.78,-1.78,-1.78,0.0,0.0,0.0,0.0,-1.7507,-1.6908,-1.6891,-1.6587,-1.5984,-1.5984,-1.6299,-1.6891,-1.6891,0.0,0.0,-1.7365,0.0,0.0,0.0,0.0,0.0,0.0,0.0,0.0,0.0,0.0,0.0,0.0,0.0,0.0,0.0,0.0,0.0,0.0,0.0,0.0,0.0,0.0,0.0,0.0,0.0,0.0,0.0,0.0,0.0,0.0,0.0,0.0,0.0,0.0,0.0,0.0,0.0,0.0,0.0,0.0,0.0,0.0,0.0,0.0,0.0,0.0,0.0,0.0,0.0,0.0,0.0,0.0,0.0,0.0,0.0,0.0,0.0,0.0,0.0,0.0,0.0,0.0,0.0,-2.4118,-2.4118,-2.4118,-2.3999,-2.4328,-2.4889,-2.3856,-2.3541,-2.3684,-2.2517,0.0,0.0,0.0,0.0,0.0,0.0,0.0,0.0,0.0,0.0,0.0,0.0,0.0,0.0,0.0,0.0,0.0,0.0,0.0,-1.3244,-1.5375,-1.5595,-1.6187,-1.7665,-1.78,-1.78,-1.78,0.0,0.0,0.0,-1.78,-1.7749,-1.7648,-1.7648,-1.7597,-1.7512,-1.7512,-1.7563,-1.7648,0.0,0.0,0.0,-1.864,-1.8594,0.0,0.0,0.0,0.0,0.0,0.0,0.0,0.0,0.0,0.0,0.0,0.0,0.0,0.0,0.0,0.0,0.0,0.0,0.0,0.0,0.0,0.0,0.0,0.0,0.0,0.0,0.0,0.0,0.0,0.0,0.0,0.0,0.0,0.0,0.0,0.0,0.0,0.0,0.0,0.0,0.0,0.0,-1.8418,-1.8672,0.0,0.0,0.0,0.0,0.0,0.0,0.0,0.0,0.0,0.0,0.0,0.0,0.0,-2.3759,-2.4335,-2.4993,-2.563,-2.6198,-2.6198,-2.6198,-2.6168,-2.56,-2.5704,-2.6318,-2.6153,0.0,-2.441,-2.367,0.0,0.0,0.0,0.0,0.0,0.0,0.0,0.0,0.0,0.0,0.0,0.0,0.0,0.0,0.0,0.0,0.0,0.0,0.0,0.0,0.0,-1.5595,-1.6187,-1.7665,-1.78,-1.78,0.0,0.0,0.0,-1.78,-1.78,-1.78,-1.78,-1.8217,-1.8611,-1.9051,-1.9051,-1.9051,0.0,0.0,0.0,0.0,0.0,0.0,0.0,0.0,0.0,0.0,0.0,0.0,0.0,0.0,0.0,0.0,0.0,0.0,0.0,0.0,0.0,0.0,0.0,0.0,0.0,0.0,0.0,0.0,0.0,0.0,0.0,0.0,0.0,0.0,0.0,0.0,0.0,0.0,0.0,0.0,0.0,0.0,0.0,0.0,0.0,0.0,0.0,-1.8253,-1.9256,-1.9256,-1.9854,-2.0109,0.0,0.0,0.0,0.0,0.0,0.0,0.0,0.0,0.0,-2.4702,-2.545,-2.6153,-2.6832,-2.7515,-2.7993,-2.8304,-2.8304,-2.8304,-2.8289,-2.7979,-2.7993,-2.8304,-2.8304,-2.7949,-2.7275,-2.548,-2.4358,-2.3699,0.0,0.0,0.0,0.0,-2.3535,-2.3377,0.0,0.0,0.0,0.0,0.0,0.0,0.0,0.0,0.0,0.0,0.0,0.0,-1.547,-1.5774,-1.639,-1.7681,0.0,0.0,0.0,0.0,0.0,-1.78,-1.78,-1.78,-1.78,-1.8521,-1.9266,0.0,0.0,0.0,0.0,0.0,0.0,0.0,0.0,0.0,0.0,0.0,0.0,0.0,0.0,0.0,0.0,0.0,0.0,0.0,0.0,0.0,0.0,0.0,0.0,0.0,0.0,0.0,0.0,0.0,0.0,0.0,0.0,0.0,0.0,0.0,0.0,0.0,0.0,0.0,0.0,0.0,0.0,0.0,0.0,0.0,0.0,0.0,0.0,0.0,0.0,-1.9226,-1.9944,-1.9944,-2.0707,-2.0946,0.0,0.0,0.0,0.0,0.0,0.0,-2.4328,-2.5181,-2.592,-2.6602,-2.76,-2.8438,-2.9086,-2.9415,-2.9744,-3.0073,-2.9771,-2.9696,-2.9846,-2.9681,-2.9606,-2.9606,-2.9606,-2.9606,-2.9442,-2.726,-2.6054,-2.5546,-2.4881,-2.4612,-2.4702,-2.5367,-2.5315,-2.5091,0.0,0.0,0.0,0.0,0.0,0.0,0.0,0.0,0.0,0.0,0.0,-1.4959,0.0,0.0,0.0,0.0,0.0,0.0,0.0,0.0,0.0,-1.78,-1.78,-1.78,-1.78,-1.8521,0.0,0.0,0.0,0.0,0.0,0.0,0.0,0.0,0.0,0.0,0.0,0.0,0.0,0.0,0.0,0.0,0.0,0.0,0.0,0.0,0.0,0.0,0.0,0.0,0.0,0.0,0.0,0.0,0.0,0.0,0.0,0.0,0.0,0.0,0.0,0.0,0.0,0.0,0.0,0.0,0.0,0.0,0.0,0.0,0.0,0.0,0.0,0.0,0.0,0.0,0.0,0.0,0.0,-2.0643,-2.1799,0.0,0.0,0.0,0.0,-2.3505,-2.4717,-2.5749,-2.6408,-2.7694,-2.8712,-2.9397,-2.9472,-2.9774,-3.0402,-2.9864,-3.0208,-3.1391,-3.0178,-2.9894,-3.0432,-2.9849,-2.9606,-2.9606,-2.9606,-2.9606,-2.9547,-2.8771,-2.8427,-2.8323,-2.766,-2.739,-2.748,-2.8143,-2.8382,-2.8368,0.0,0.0,0.0,-1.3594,-1.3497,-1.3496,-1.3753,-1.3623,-1.3563,-1.3706,-1.4467,0.0,0.0,0.0,0.0,0.0,0.0,0.0,0.0,0.0,0.0,-1.8737,-1.8608,-1.8961,-1.9972,-1.9739,0.0,0.0,0.0,0.0,0.0,0.0,0.0,0.0,0.0,0.0,0.0,0.0,0.0,0.0,0.0,0.0,0.0,0.0,0.0,0.0,0.0,0.0,0.0,0.0,0.0,0.0,0.0,0.0,0.0,0.0,0.0,0.0,0.0,0.0,0.0,0.0,0.0,0.0,0.0,0.0,0.0,0.0,0.0,0.0,0.0,0.0,0.0,0.0,0.0,0.0,0.0,0.0,0.0,-2.2024,-2.3131,0.0,-2.2996,-2.4118,-2.5076,-2.5495,-2.6767,-2.7814,-2.8472,-2.934,-2.9939,-3.0163,-3.0612,-3.0913,-3.1137,-3.0913,-3.1047,-3.1496,-3.1032,-3.0956,-3.1137,-3.0913,-3.0808,-3.0808,-3.0808,-3.0808,-3.0793,-3.0554,-2.9998,-2.9232,-2.8992,-2.8888,-2.8918,-2.9172,-2.922,-2.922,-1.3412,-1.3642,0.0,-1.378,-1.392,-1.3997,-1.3997,-1.4298,-1.4459,-1.4314,-1.5279,0.0,0.0,0.0,0.0,0.0,0.0,0.0,0.0,0.0,-1.8516,-1.8907,-1.8904,-1.9616,-2.1156,0.0,0.0,0.0,0.0,0.0,0.0,0.0,0.0,0.0,0.0,0.0,0.0,0.0,0.0,0.0,0.0,0.0,-1.7279,0.0,0.0,0.0,0.0,0.0,0.0,0.0,0.0,0.0,0.0,0.0,0.0,0.0,0.0,0.0,0.0,0.0,0.0,0.0,0.0,0.0,0.0,0.0,0.0,0.0,0.0,0.0,0.0,0.0,0.0,0.0,0.0,0.0,0.0,0.0,-2.3535,-2.3355,-2.4492,-2.4993,-2.4343,-2.5689,-2.6797,-2.723,-2.8502,-2.943,-2.9864,-3.0507,-3.0851,-3.0851,-3.1271,-3.1511,-3.1511,-3.1511,-3.1511,-3.1511,-3.1511,-3.1511,-3.1511,-3.1511,-3.1511,-3.1511,-3.1511,-3.1511,-3.1511,-3.1511,-3.0987,-3.0238,-3.0238,-3.0238,-3.0238,-3.0238,-3.0238,-3.0238,-1.374,-1.3913,-1.3969,-1.4169,-1.4219,-1.4201,-1.4201,-1.5061,-1.5554,-1.5166,0.0,0.0,0.0,0.0,0.0,0.0,0.0,0.0,0.0,0.0,-1.8506,-1.8277,-1.87,-1.9667,-2.119,0.0,0.0,0.0,0.0,0.0,0.0,0.0,0.0,0.0,0.0,0.0,0.0,0.0,0.0,0.0,0.0,0.0,-1.8568,0.0,0.0,0.0,0.0,0.0,0.0,0.0,0.0,0.0,0.0,0.0,0.0,0.0,0.0,0.0,0.0,0.0,0.0,0.0,0.0,0.0,0.0,0.0,0.0,0.0,0.0,0.0,0.0,0.0,0.0,0.0,0.0,0.0,-2.2643,-2.3302,-2.3939,-2.459,-2.5854,-2.6408,-2.5764,-2.75,-2.8667,-2.8667,-2.9819,-3.0537,-3.0537,-3.1137,-3.1511,-3.1511,-3.1511,-3.1511,-3.1511,-3.1511,-3.1511,-3.1511,-3.1511,-3.1511,-3.1511,-3.1511,-3.1511,-3.1511,-3.1511,-3.1511,-3.1511,-3.1511,-3.1511,-3.1511,-3.1511,-3.1511,-3.1511,-3.1511,-3.1511,-3.1511,-1.3747,-1.4017,-1.4136,-1.4188,-1.4314,-1.4429,-1.4429,-1.5148,-1.5667,-1.554,0.0,0.0,0.0,0.0,0.0,0.0,0.0,0.0,0.0,0.0,-1.9166,-1.9768,-1.9733,0.0,0.0,0.0,0.0,0.0,0.0,0.0,0.0,0.0,0.0,0.0,0.0,0.0,0.0,0.0,0.0,0.0,0.0,0.0,-1.8672,0.0,0.0,0.0,0.0,0.0,0.0,0.0,0.0,0.0,0.0,0.0,0.0,0.0,0.0,0.0,0.0,0.0,0.0,0.0,0.0,0.0,0.0,0.0,0.0,0.0,0.0,0.0,0.0,0.0,0.0,0.0,-2.2112,-2.3131,-2.3325,-2.4747,-2.5839,-2.6033,-2.723,-2.7979,-2.7799,-2.9116,-2.9983,-2.9983,-3.0733,-3.1227,-3.1227,-3.1406,-3.1511,-3.1511,-3.1511,-3.1511,-3.1511,-3.1511,-3.1511,-3.1511,-3.1511,-3.1511,-3.1511,-3.1511,-3.1511,-3.1511,-3.1511,-3.1511,-3.1511,-3.1511,-3.1511,-3.1511,-3.1511,-3.1511,-3.1511,-3.1511,-3.1511,-3.1511,-1.3994,-1.4251,-1.4338,-1.4338,-1.4411,-1.4493,-1.4493,-1.5466,-1.62,-1.62,0.0,0.0,0.0,0.0,0.0,0.0,0.0,0.0,-1.8739,-1.9108,-1.9812,0.0,0.0,0.0,0.0,0.0,0.0,0.0,0.0,0.0,0.0,0.0,0.0,0.0,0.0,0.0,0.0,0.0,0.0,0.0,0.0,0.0,-1.9091,-1.8807,-1.8446,-1.8027,-1.7354,-1.713,-1.7025,-1.6383,0.0,0.0,0.0,0.0,0.0,0.0,0.0,0.0,0.0,0.0,0.0,0.0,0.0,0.0,0.0,0.0,0.0,0.0,0.0,0.0,0.0,0.0,0.0,0.0,-2.3239,-2.4223,-2.4777,-2.5854,-2.6692,-2.7001,-2.7949,-2.8607,-2.8607,-2.9759,-3.0507,-3.0507,-3.1122,-3.1511,-3.1511,-3.1511,-3.1511,-3.1511,-3.1511,-3.1511,-3.1511,-3.1511,-3.1511,-3.1511,-3.1511,-3.1511,-3.1511,-3.1511,-3.1511,0.0,-3.1511,-3.1511,-3.1511,-3.1511,-3.1511,0.0,0.0,0.0,0.0,0.0,-3.1511,-3.1511,-1.4365,-1.4493,-1.4493,-1.4493,-1.4493,-1.453,-1.4622,-1.5918,-1.6927,-1.7018,0.0,0.0,0.0,0.0,0.0,0.0,0.0,0.0,0.0,0.0,0.0,0.0,0.0,0.0,0.0,0.0,0.0,0.0,0.0,0.0,0.0,0.0,0.0,0.0,0.0,0.0,0.0,0.0,0.0,0.0,0.0,0.0,-1.9648,-1.9031,-1.8841,-1.8786,-1.8125,-1.7917,-1.7859,-1.7134,0.0,0.0,0.0,0.0,0.0,0.0,0.0,0.0,0.0,0.0,0.0,0.0,0.0,0.0,0.0,0.0,0.0,0.0,0.0,0.0,0.0,0.0,0.0,0.0,-2.4365,-2.5262,-2.6527,-2.6692,-2.6971,-2.763,-2.8293,-2.8742,-2.8801,-2.9909,-3.0612,-3.0612,-3.1152,-3.1511,-3.1511,0.0,0.0,0.0,0.0,-3.1735,-3.1735,-3.1735,-3.1735,-3.1735,-3.1735,-3.1735,-3.172,-3.1645,-3.1615,-3.1615,-3.154,-3.1511,-3.1511,-3.1511,-3.1511,-3.1511,-3.1511,-3.1511,-3.1511,-3.1511,-3.1511,-3.1511,-1.4475,-1.4493,-1.4493,-1.4493,-1.4493,-1.4714,-1.5362,-1.6273,-1.7128,-1.7777,-1.8702,0.0,0.0,0.0,0.0,0.0,0.0,0.0,0.0,0.0,0.0,0.0,0.0,0.0,0.0,0.0,0.0,0.0,0.0,0.0,0.0,0.0,0.0,0.0,0.0,0.0,0.0,0.0,0.0,0.0,0.0,0.0,-1.9693,-1.9558,-1.9712,-1.99,-1.9287,-1.928,-1.9404,-1.8408,-1.8069,-1.8053,-1.7929,0.0,0.0,0.0,0.0,0.0,0.0,0.0,0.0,0.0,0.0,0.0,0.0,0.0,0.0,0.0,0.0,0.0,0.0,0.0,0.0,-2.4796,-2.5659,-2.6482,-2.73,-2.7405,-2.766,-2.8323,-2.8981,-2.9594,-3.0088,-3.0838,-3.1316,-3.1316,-3.1436,-3.1511,-3.1511,-3.2004,-3.2303,-3.2303,-3.2841,-3.311,-3.311,-3.311,-3.311,-3.311,0.0,0.0,-3.3095,-3.2557,-3.2303,-3.2273,-3.1735,-3.1511,-3.1511,-3.1511,-3.1511,-3.1511,-3.1511,-3.1511,-3.1511,-3.1511,-3.1511,-3.1511,-1.5105,-1.5105,-1.5227,-1.5625,-1.5698,-1.5845,-1.6236,-1.6988,-1.7649,-1.8052,-1.8794,0.0,0.0,0.0,0.0,0.0,0.0,0.0,0.0,0.0,0.0,0.0,0.0,0.0,0.0,0.0,0.0,0.0,0.0,0.0,0.0,0.0,0.0,0.0,0.0,0.0,0.0,0.0,0.0,0.0,0.0,0.0,-2.0328,-2.0087,-2.0278,-2.0602,-2.0303,-2.0321,-2.0367,-1.9497,-1.8961,-1.8662,-1.8691,-1.8822,-1.8915,0.0,0.0,0.0,0.0,0.0,0.0,0.0,0.0,0.0,0.0,0.0,0.0,0.0,0.0,-2.1456,-2.1998,0.0,-2.4277,-2.5288,-2.6094,-2.6811,-2.751,-2.76,-2.7854,-2.8517,-2.9175,-2.9846,-3.0447,-3.1107,-3.1511,-3.1511,-3.1511,-3.1645,-3.1974,-3.2303,-3.2662,-3.2991,-3.332,-3.3499,-3.3499,-3.3499,-3.3499,-3.3499,-3.3499,-3.3499,-3.3484,-3.3155,-3.3006,-3.2991,-3.2662,-3.2303,-3.1974,-3.1645,-3.1705,-3.1959,-3.163,-3.1511,-3.1511,-3.1511,-3.1511,-3.1511,-1.5876,-1.5931,-1.6151,-1.6798,-1.6908,-1.6945,-1.711,-1.7686,-1.817,-1.8317,-1.8911,-1.9297,-1.9297,-1.872,-1.8408,0.0,0.0,0.0,0.0,0.0,0.0,0.0,0.0,0.0,0.0,0.0,0.0,0.0,0.0,0.0,0.0,0.0,0.0,0.0,0.0,0.0,0.0,0.0,0.0,0.0,0.0,0.0,-2.1071,-2.0699,-2.0781,-2.1134,-2.1134,-2.1182,-2.1164,-2.052,-1.9925,-1.9441,-1.9497,-1.9682,-1.9904,-1.9853,-2.0585,0.0,0.0,0.0,0.0,0.0,0.0,0.0,0.0,0.0,-2.1158,-2.1072,-2.1513,-2.2159,-2.3024,-2.361,-2.4343,-2.5435,-2.6273,-2.6986,-2.7525,-2.76,-2.7854,-2.8517,-2.9175,-2.9879,-3.0627,-3.1182,-3.1511,-3.1511,-3.1511,-3.1795,-3.2452,-3.2632,-3.3006,-3.3664,-3.3814,-3.3888,-3.3888,-3.3888,-3.3888,-3.3888,-3.3888,-3.3888,-3.3873,-3.3739,-3.3679,-3.3679,-3.3559,-3.3185,-3.2662,-3.2108,-3.2198,-3.2647,-3.2093,-3.1809,-3.1675,-3.1555,-3.1511,-3.1511,-1.6487,-1.6762,-1.6798,-1.689,-1.6908,-1.7147,-1.7851,-1.8034,-1.8353,-1.9077,-1.9242,-1.9297,-1.9297,-1.9224,-1.9455,-2.0181,0.0,0.0,0.0,0.0,0.0,0.0,0.0,0.0,0.0,0.0,0.0,0.0,0.0,0.0,0.0,0.0,0.0,0.0,0.0,0.0,0.0,0.0,0.0,0.0,0.0,0.0,-2.1521,-2.1476,-2.1491,-2.1521,-2.1521,-2.1794,-2.2075,-2.1591,-2.1372,-2.129,-2.1322,-2.1335,-2.1325,-2.1093,0.0,-2.1857,-2.0403,-2.0491,-2.1224,-2.2067,-2.2335,-2.2327,0.0,0.0,-2.2105,-2.1708,-2.2134,-2.2634,-2.2735,-2.4207,-2.5435,-2.5585,-2.6647,-2.751,-2.7585,-2.76,-2.7854,-2.8517,-2.9175,-3.0058,-3.1271,-3.1466,-3.1511,-3.1511,-3.1511,-3.1795,-3.2452,-3.3066,-3.3694,-3.4384,-3.4966,-3.528,-3.528,-3.528,-3.528,-3.528,-3.528,-3.528,-3.5265,-3.4668,-3.4399,-3.4354,-3.3754,-3.3455,-3.338,-3.3305,-3.332,-3.338,-3.3305,-3.2916,-3.2303,-3.172,-3.1511,-3.1511,-1.6071,-1.6952,-1.7594,-1.7594,-1.7979,-1.8408,-1.8739,-1.8794,-1.893,-1.926,-1.9297,-1.9297,-1.9297,-1.9297,-1.962,-2.0437,-2.0477,0.0,0.0,0.0,0.0,0.0,0.0,0.0,0.0,0.0,0.0,0.0,0.0,0.0,0.0,0.0,0.0,0.0,0.0,0.0,0.0,0.0,0.0,0.0,0.0,0.0,-2.2003,-2.2003,-2.2003,-2.2003,-2.2003,-2.2135,0.0,0.0,-2.1716,-2.1449,-2.1869,-2.1716,-2.1426,-2.1762,-2.2073,0.0,-2.1519,-2.1569,-2.2032,0.0,-2.3103,-2.3054,-2.2856,-2.3319,-2.3588,-2.2844,-2.3539,-2.4267,-2.4267,-2.5603,-2.6587,0.0,-2.7264,-2.7993,-2.7635,-2.791,-2.8227,-2.8569,-2.9489,-3.0327,-3.0879,-3.1271,-3.166,-3.2049,-3.2079,-3.2527,-3.3604,-3.3918,-3.4382,-3.5055,-3.5355,-3.5504,-3.5504,-3.5504,-3.5504,-3.5504,-3.5504,-3.5504,-3.5489,-3.5205,-3.507,-3.504,-3.4367,-3.4292,-3.4607,-3.3814,-3.3724,-3.4054,-3.3649,-3.332,-3.3006,-3.2318,-3.1839,-3.1511,-1.5662,-1.6646,-1.7509,-1.7722,-1.8243,-1.8794,-1.9224,-1.9297,-1.9297,-1.9297,-1.9297,-1.9297,-1.9297,-1.9297,-1.962,-2.0437,-2.1061,-2.1777,0.0,0.0,0.0,0.0,0.0,0.0,0.0,0.0,0.0,0.0,0.0,0.0,0.0,0.0,0.0,0.0,0.0,0.0,0.0,0.0,0.0,0.0,0.0,0.0,-2.2296,-2.2296,-2.2296,-2.2296,-2.2296,-2.2296,0.0,0.0,-2.1955,-2.1597,-2.2141,-2.1938,-2.1613,-2.2127,-2.2296,-2.233,-2.255,0.0,0.0,-2.3765,-2.4002,-2.3986,-2.3923,-2.4547,-2.4906,-2.4074,-2.4675,-2.5399,-2.5608,-2.6629,-2.7377,-2.7117,-2.8038,-2.8591,-2.8149,-2.8472,-2.8759,-2.8849,-2.9822,-3.0508,-3.0488,-3.1107,-3.178,-3.2437,-3.2512,-3.3095,-3.4444,-3.4503,-3.4801,-3.5489,-3.5504,-3.5504,-3.5504,-3.5504,-3.5504,-3.5504,-3.5504,-3.5504,-3.5504,-3.5504,-3.5504,-3.5474,-3.4981,-3.504,-3.5429,-3.4457,-3.4337,-3.4711,-3.4233,-3.3933,-3.3709,-3.323,-3.2497,-3.175,-1.5551,-1.5735,-1.6022,-1.6798,-1.6963,-1.7502,-1.9058,-1.9297,-1.9297,-1.9297,-1.9297,-1.9297,-1.9297,-1.9297,-1.962,-2.0437,-2.1281,-2.2125,-2.2923,-2.3412,0.0,0.0,0.0,0.0,0.0,0.0,0.0,0.0,0.0,0.0,0.0,0.0,0.0,0.0,0.0,0.0,0.0,0.0,0.0,0.0,0.0,0.0,-2.2296,-2.2296,-2.2296,-2.2296,-2.2296,0.0,0.0,0.0,-2.2279,-2.2262,-2.2296,-2.2279,0.0,-2.2296,-2.2296,0.0,0.0,0.0,-2.3714,-2.5186,-2.5525,-2.5613,-2.5853,-2.5946,-2.5819,-2.5265,-2.5182,-2.5422,-2.6146,-2.683,-2.7534,-2.8228,-2.8926,-2.9361,-2.9361,-2.9361,-2.9404,-2.9465,-3.0088,-3.0508,-3.0488,-3.1107,-3.178,-3.2437,-3.2512,-3.3095,-3.4444,-3.4503,-3.4801,-3.5489,-3.5504,-3.5504,-3.5504,-3.5504,-3.5504,-3.5504,-3.5504,-3.5504,-3.5504,-3.5504,-3.5504,-3.5504,-3.5489,-3.5489,-3.5504,-3.5459,-3.5459,-3.5474,-3.5444,-3.504,-3.4474,-3.4459,-3.3589,-3.2392,-1.5545,-1.6133,-1.675,-1.7557,-1.8151,-1.8665,-1.9224,-1.8856,-1.8702,-1.9224,-1.9297,0.0,0.0,0.0,0.0,0.0,-2.129,-2.2143,-2.2951,-2.3645,0.0,0.0,0.0,0.0,0.0,0.0,0.0,0.0,0.0,0.0,0.0,0.0,0.0,0.0,0.0,0.0,0.0,0.0,0.0,0.0,0.0,0.0,-2.2987,-2.2496,-2.2296,-2.2296,0.0,0.0,0.0,0.0,0.0,0.0,-2.2296,0.0,0.0,-2.2296,-2.2649,-2.3088,-2.3325,0.0,-2.4372,-2.5355,-2.5592,-2.568,-2.5937,-2.6244,-2.6332,-2.5817,-2.6045,-2.6398,-2.6642,-2.7708,-2.8505,-2.8367,-2.927,-3.0033,-3.0106,-3.0464,-3.0762,-3.0879,-3.1831,0.0,-3.1929,0.0,0.0,-3.2497,-3.3332,-3.4252,-3.5186,-3.5193,-3.5477,-3.6212,-3.5765,-3.5504,-3.5504,-3.5504,-3.5504,-3.5504,-3.5504,-3.5504,-3.5504,-3.5504,-3.5504,-3.5504,-3.5504,-3.5504,-3.5504,-3.5504,-3.5504,-3.5504,-3.5504,-3.537,-3.51,-3.4668,-3.4219,-3.3664,-1.5655,-1.6346,-1.7055,-1.7575,-1.8089,0.0,0.0,0.0,0.0,0.0,0.0,0.0,0.0,0.0,0.0,0.0,0.0,-2.1694,-2.252,0.0,0.0,0.0,0.0,0.0,0.0,0.0,0.0,0.0,0.0,0.0,0.0,0.0,0.0,0.0,0.0,0.0,0.0,0.0,0.0,0.0,0.0,0.0,-2.297,-2.2482,-2.2296,0.0,0.0,0.0,0.0,0.0,0.0,0.0,0.0,0.0,0.0,-2.2632,-2.3038,-2.3511,-2.4036,-2.4526,-2.5067,-2.5812,-2.5998,-2.6033,-2.6214,-2.647,-2.6607,-2.6314,-2.6557,-2.6919,-2.7168,-2.8035,-2.8734,-2.8919,-2.9659,-3.0427,-3.1063,-3.1494,-3.1858,-3.2236,-3.2992,-3.3459,0.0,0.0,0.0,-3.3662,-3.4698,-3.5629,-3.6334,-3.6368,-3.6415,-3.6569,-3.6134,-3.575,-3.5504,-3.5504,-3.5504,-3.5504,-3.5504,-3.5504,-3.5504,-3.5504,-3.5504,-3.5504,-3.5504,-3.5504,-3.5504,-3.5504,-3.5504,-3.5504,-3.5504,-3.5504,-3.5444,-3.5011,-3.4846,-3.4622,-1.5967,-1.6438,-1.6963,0.0,0.0,0.0,0.0,0.0,0.0,0.0,0.0,0.0,0.0,0.0,0.0,0.0,0.0,0.0,0.0,0.0,0.0,0.0,0.0,0.0,0.0,-2.2898,0.0,0.0,0.0,0.0,0.0,0.0,0.0,0.0,0.0,0.0,0.0,0.0,0.0,0.0,0.0,0.0,-2.2347,-2.2313,0.0,0.0,0.0,0.0,0.0,0.0,0.0,0.0,0.0,0.0,0.0,-2.3173,-2.3441,-2.3765,-2.522,-2.5626,-2.5828,-2.6522,-2.6691,-2.6691,-2.6691,-2.6691,-2.6691,-2.6691,-2.6691,-2.6894,-2.757,0.0,-2.8331,-2.9734,-3.0072,-3.0666,-3.2158,-3.2361,-3.2677,0.0,0.0,0.0,0.0,0.0,0.0,-3.5873,0.0,-3.7135,-3.7783,-3.779,-3.7485,-3.6752,-3.663,-3.6244,-3.5554,-3.5537,-3.5504,-3.5504,-3.5504,-3.5504,-3.5504,-3.5504,-3.5504,-3.5504,-3.5504,-3.5504,-3.5504,-3.5504,-3.5504,-3.5504,-3.5504,-3.5504,-3.5504,-3.5504,-3.5504,-3.5235,0.0,0.0,0.0,0.0,0.0,0.0,0.0,0.0,0.0,0.0,0.0,0.0,0.0,0.0,0.0,0.0,0.0,0.0,0.0,0.0,0.0,0.0,0.0,0.0,0.0,0.0,0.0,0.0,0.0,0.0,0.0,0.0,0.0,0.0,0.0,0.0,0.0,0.0,0.0,0.0,0.0,0.0,-2.3054,0.0,0.0,0.0,0.0,0.0,0.0,0.0,0.0,0.0,0.0,-2.2296,-2.2431,0.0,0.0,-2.4423,-2.5355,-2.5998,-2.6454,-2.664,-2.6691,-2.6691,-2.6691,-2.6691,-2.6691,-2.6691,-2.6691,-2.659,-2.6234,-2.7554,0.0,-2.8415,-2.982,0.0,-3.2916,-3.3119,0.0,-3.4908,0.0,-3.5377,-3.6191,-3.6913,0.0,0.0,-3.7781,-3.767,-3.7937,-3.7846,-3.7978,-3.8298,-3.7217,-3.6492,-3.6337,-3.5782,-3.5504,-3.5504,-3.5504,-3.5504,-3.5504,-3.5504,-3.5504,-3.5504,-3.5504,-3.5504,-3.5504,-3.5504,-3.5504,-3.5504,-3.5504,-3.5504,-3.5504,-3.5504,-3.5504,-3.5355,0.0,0.0,0.0,0.0,0.0,0.0,0.0,0.0,0.0,0.0,0.0,0.0,0.0,0.0,0.0,0.0,0.0,0.0,0.0,0.0,0.0,0.0,0.0,0.0,0.0,0.0,0.0,0.0,0.0,0.0,0.0,0.0,0.0,0.0,0.0,0.0,0.0,0.0,0.0,0.0,0.0,0.0,0.0,0.0,0.0,0.0,0.0,0.0,0.0,0.0,0.0,-2.2784,-2.2784,-2.3004,-2.341,-2.4154,0.0,-2.5135,-2.5879,-2.6387,-2.6691,-2.6691,-2.6691,-2.6607,-2.6285,-2.6218,-2.6133,-2.5811,-2.5743,0.0,-2.5186,-2.642,0.0,0.0,0.0,0.0,-3.3152,-3.3677,-3.432,0.0,-3.56,0.0,-3.7161,-3.7669,-3.8345,0.0,-3.9059,-3.8837,-3.8922,-3.8851,-3.8843,-3.8908,-3.8072,-3.7454,-3.7114,-3.6707,-3.6523,-3.6523,-3.6523,-3.6523,-3.6523,-3.6523,-3.6305,-3.5975,0.0,-3.5814,-3.5504,-3.5504,-3.5504,-3.5504,-3.5504,-3.5504,-3.5504,-3.5504,-3.5504,-3.5444,0.0,0.0,0.0,0.0,0.0,0.0,0.0,0.0,0.0,-1.9297,-1.9997,-2.0548,-2.0658,-2.1437,0.0,0.0,0.0,0.0,0.0,0.0,0.0,0.0,0.0,0.0,0.0,0.0,0.0,0.0,0.0,0.0,0.0,0.0,0.0,0.0,0.0,0.0,0.0,0.0,0.0,0.0,0.0,0.0,0.0,0.0,0.0,0.0,0.0,0.0,0.0,0.0,-2.3437,-2.341,-2.3526,-2.3983,-2.4643,-2.5389,-2.5592,-2.5761,-2.6488,-2.6691,-2.6691,-2.6691,-2.6623,-2.6387,-2.5761,-2.5524,-2.527,-2.4626,0.0,-2.4457,-2.4372,-2.5118,-2.615,-2.7452,0.0,-3.0869,-3.3102,-3.3947,-3.4658,-3.5498,-3.56,-3.6208,-3.7753,-3.7905,-3.8514,-3.9994,-4.0096,-4.0096,-4.0096,-4.0096,-3.9731,-3.8935,-3.8908,-3.8553,-3.7822,-3.7793,-3.7793,-3.7793,-3.7793,-3.7793,-3.7793,-3.7793,-3.7427,-3.6768,-3.6768,0.0,-3.5636,-3.5636,-3.5587,-3.5504,-3.5504,-3.5504,-3.5504,-3.5504,-3.5504,-3.5504,0.0,0.0,0.0,0.0,0.0,0.0,0.0,-1.9297,-1.9297,-1.9297,-1.9997,-2.0768,-2.15,-2.2299,0.0,0.0,0.0,0.0,0.0,0.0,0.0,0.0,0.0,0.0,0.0,0.0,0.0,0.0,0.0,0.0,0.0,0.0,0.0,0.0,0.0,0.0,0.0,0.0,0.0,0.0,0.0,0.0,0.0,0.0,0.0,0.0,0.0,0.0,0.0,0.0,-2.3636,-2.3511,-2.4118,-2.4389,-2.4643,-2.5389,-2.5592,-2.5761,-2.6488,-2.6691,-2.6691,-2.6691,-2.6234,-2.5761,-2.5626,-2.5118,0.0,0.0,-2.4491,-2.4305,-2.3697,-2.5186,-2.659,-2.6843,0.0,0.0,0.0,0.0,-3.41,0.0,0.0,0.0,0.0,0.0,0.0,0.0,0.0,-4.0096,-4.0096,-4.0096,-3.9731,-3.8935,-3.8908,-3.8553,-3.7822,-3.7793,-3.7793,-3.7793,-3.7793,-3.7793,-3.7793,-3.7793,-3.7719,-3.7602,-3.7602,0.0,-3.6415,-3.6415,-3.6054,-3.5504,-3.5504,-3.5504,-3.5504,-3.5504,-3.5504,-3.5504,0.0,0.0,0.0,0.0,0.0,0.0,0.0,-1.9297,-1.9297,-1.9297,-1.9997,-2.0823,-2.1702,-2.2887,-2.3309,0.0,0.0,0.0,0.0,0.0,0.0,0.0,0.0,0.0,0.0,0.0,0.0,0.0,0.0,0.0,0.0,0.0,0.0,0.0,0.0,0.0,0.0,0.0,0.0,0.0,0.0,0.0,0.0,0.0,0.0,0.0,0.0,0.0,0.0,0.0,-2.3921,-2.3842,-2.4774,-2.5354,-2.5709,-2.6065,-2.6167,-2.6251,-2.659,-2.6691,-2.6691,-2.6691,-2.615,-2.5507,-2.5118,0.0,0.0,0.0,-2.3359,-2.3241,-2.2885,-2.4002,0.0,0.0,0.0,0.0,0.0,0.0,0.0,0.0,0.0,0.0,0.0,0.0,0.0,0.0,0.0,-4.0096,-4.0096,-4.0096,-3.9927,-3.9558,-3.9516,-3.9358,-3.8995,-3.8995,-3.8995,-3.8995,-3.8995,-3.8995,-3.8995,-3.8995,-3.8761,-3.8358,-3.8358,0.0,-3.7203,-3.7203,-3.7025,-3.6692,-3.6692,-3.6692,-3.6692,-3.6692,-3.6692,-3.6692,0.0,0.0,0.0,0.0,0.0,0.0,0.0,-1.9297,-1.9297,-1.9297,-1.9997,-2.0823,-2.1702,-2.307,-2.3694,0.0,0.0,0.0,0.0,0.0,0.0,0.0,0.0,0.0,0.0,0.0,0.0,0.0,0.0,0.0,0.0,0.0,0.0,0.0,0.0,0.0,0.0,0.0,0.0,0.0,0.0,0.0,0.0,0.0,0.0,0.0,0.0,0.0,0.0,0.0,-2.4229,-2.416,-2.5238,-2.5992,-2.6454,-2.6454,-2.6573,-2.6691,-2.6691,-2.6691,-2.6691,-2.6691,-2.6031,-2.5203,-2.4626,-2.3814,0.0,0.0,-2.2296,-2.2296,-2.2296,0.0,-2.3883,0.0,-2.6843,0.0,0.0,0.0,0.0,0.0,0.0,0.0,0.0,0.0,0.0,0.0,0.0,0.0,-4.0096,-4.0096,-4.0096,-4.0096,-4.0096,-4.0096,-4.0096,-4.0096,-4.0096,-4.0096,-4.0096,-4.0096,-4.0096,-4.0096,-3.9756,-3.9166,-3.9166,0.0,0.0,-3.8035,-3.795,-3.7793,-3.7793,-3.7793,-3.7793,-3.7793,-3.7793,-3.7793,0.0,0.0,0.0,0.0,0.0,0.0,0.0,-1.9297,-1.9297,-1.9297,-1.9997,-2.0823,-2.1702,-2.2575,-2.3079,0.0,0.0,0.0,0.0,0.0,0.0,0.0,0.0,0.0,0.0,0.0,0.0,0.0,0.0,0.0,0.0,0.0,0.0,0.0,0.0,0.0,0.0,0.0,0.0,0.0,0.0,0.0,0.0,0.0,0.0,0.0,0.0,0.0,0.0,0.0,0.0,-2.4403,-2.5262,-2.5601,-2.5694,-2.5694,0.0,0.0,-2.6691,-2.6691,-2.6691,-2.6691,-2.5642,-2.4575,-2.4508,0.0,0.0,-2.2313,-2.2296,-2.2296,-2.2296,-2.2902,-2.3883,-2.5372,0.0,0.0,0.0,0.0,0.0,0.0,0.0,0.0,0.0,0.0,0.0,0.0,0.0,0.0,-4.0096,-4.0096,-4.0096,-4.0096,-4.0096,-4.0096,-4.0096,-4.0096,-4.0096,-4.0096,-4.0096,-4.0096,-4.0096,-4.0096,-4.0045,-3.9995,-3.9995,0.0,0.0,-3.8799,-3.8386,-3.7793,-3.7793,-3.7793,-3.7793,-3.7793,-3.7793,-3.7793,0.0,0.0,0.0,0.0,0.0,0.0,-1.9297,-1.9297,-1.9297,-1.9297,-1.9997,-2.0823,-2.1702,-2.252,-2.3189,-2.3676,0.0,0.0,0.0,0.0,0.0,0.0,0.0,0.0,0.0,0.0,0.0,0.0,0.0,0.0,0.0,0.0,0.0,0.0,0.0,0.0,0.0,0.0,0.0,0.0,0.0,0.0,0.0,0.0,0.0,0.0,0.0,0.0,0.0,0.0,0.0,0.0,-2.4325,-2.46,0.0,0.0,-2.6485,-2.6758,-2.7004,-2.689,-2.6691,-2.6691,-2.5591,-2.4491,-2.4491,0.0,-2.2296,-2.2296,-2.2296,-2.2296,-2.2296,-2.2533,-2.3224,0.0,-2.5423,-2.7012,-3.0497,0.0,0.0,0.0,0.0,0.0,0.0,0.0,0.0,0.0,0.0,0.0,-4.0096,-4.0096,-4.0096,-4.0096,-4.0096,-4.0096,-4.0096,-4.0096,-4.0096,-4.0096,-4.0096,-4.0096,-4.0096,-4.0096,-4.0096,-4.0096,-4.0096,0.0,0.0,-3.961,-3.9437,-3.9199,-3.9199,-3.9199,-3.9199,-3.9199,-3.9199,-3.9106,0.0,0.0,0.0,0.0,0.0,-1.9297,-1.9297,-1.9297,-1.9297,-1.9297,-1.9997,-2.0823,-2.1702,-2.252,-2.3318,-2.4135,-2.419,0.0,0.0,0.0,0.0,0.0,0.0,0.0,0.0,0.0,0.0,0.0,0.0,0.0,0.0,0.0,0.0,0.0,0.0,0.0,0.0,0.0,0.0,0.0,0.0,0.0,0.0,0.0,0.0,0.0,0.0,0.0,0.0,0.0,0.0,0.0,0.0,0.0,0.0,0.0,-2.6516,-2.6792,-2.7187,-2.7099,-2.6841,-2.6725,-2.5591,-2.4491,0.0,-2.3359,-2.2307,-2.2398,-2.2363,-2.2321,-2.2398,-2.2346,-2.2784,0.0,-2.4863,-2.6403,-2.9939,-3.1241,0.0,0.0,0.0,0.0,0.0,0.0,0.0,0.0,0.0,0.0,-4.0096,-4.0096,-4.0096,-4.0096,-4.0096,-4.0096,-4.0096,-4.0096,-4.0096,-4.0096,-4.0096,-4.0096,-4.0096,-4.0096,-4.0096,-4.0096,-4.0096,0.0,0.0,-4.0096,-4.0096,-4.0096,-4.0096,-4.0096,-4.0096,-4.0096,-3.996,-3.9706,0.0,0.0,0.0,0.0,0.0,0.0,-1.9297,-1.9297,-1.9297,-1.9297,-1.9997,-2.0823,-2.1702,-2.252,-2.3318,-2.4135,-2.419,0.0,0.0,0.0,0.0,0.0,0.0,0.0,0.0,0.0,0.0,0.0,0.0,0.0,0.0,0.0,0.0,0.0,0.0,0.0,0.0,0.0,0.0,0.0,0.0,0.0,-2.419,0.0,0.0,0.0,0.0,0.0,0.0,0.0,0.0,0.0,0.0,0.0,0.0,0.0,-2.6069,-2.6785,-2.7202,-2.7303,-2.721,-2.6791,-2.5591,-2.4491,0.0,-2.3359,-2.2374,-2.2634,-2.2473,-2.2374,-2.2647,-2.249,-2.2784,-2.4254,-2.5726,-2.7723,-3.0751,-3.2459,0.0,0.0,0.0,0.0,0.0,0.0,0.0,0.0,0.0,0.0,-4.0096,-4.0096,-4.0096,-4.0096,-4.0096,-4.0096,-4.0096,-4.0096,-4.0096,-4.0096,-4.0096,-4.0096,-4.0096,-4.0096,-4.0096,0.0,0.0,0.0,0.0,-4.0096,-4.0096,-4.0096,-4.0096,-4.0096,-4.0096,-4.0096,-3.9656,-3.9005,0.0,0.0,0.0,0.0,0.0,0.0,0.0,-1.9297,-1.9297,-1.9297,-2.0527,-2.15,-2.1776,-2.3015,-2.3914,-2.4171,-2.419,0.0,0.0,0.0,0.0,0.0,0.0,0.0,0.0,0.0,0.0,0.0,0.0,0.0,0.0,0.0,0.0,0.0,0.0,0.0,0.0,0.0,0.0,0.0,0.0,-2.419,-2.419,0.0,0.0,0.0,0.0,0.0,0.0,0.0,0.0,0.0,0.0,0.0,0.0,-2.5234,0.0,-2.6666,-2.6463,-2.6649,-2.6725,-2.6057,-2.5122,-2.4369,-2.4369,-2.3611,-2.2945,-2.3021,-2.2977,-2.2865,-2.2721,-2.2621,-2.3165,-2.4962,0.0,0.0,0.0,0.0,0.0,0.0,0.0,0.0,0.0,0.0,0.0,0.0,0.0,0.0,-3.9309,-3.9368,-3.9588,-4.0079,-4.0096,-4.0096,-4.0096,-4.0096,-4.0096,-4.0096,-4.0096,-4.0096,-4.0096,-4.0096,-4.0096,0.0,0.0,0.0,0.0,-4.0096,-4.0096,-4.0096,-4.0096,-3.9791,-3.9368,-3.9368,-3.887,-3.8176,0.0,0.0,0.0,0.0,0.0,0.0,0.0,-1.9297,-1.9297,-1.9297,-2.0472,-2.1418,-2.1757,-2.296,-2.3878,-2.4171,-2.419,0.0,0.0,0.0,0.0,0.0,0.0,0.0,0.0,0.0,0.0,0.0,0.0,0.0,0.0,0.0,0.0,0.0,0.0,0.0,0.0,0.0,0.0,0.0,-2.419,-2.419,-2.419,0.0,0.0,0.0,0.0,0.0,0.0,0.0,0.0,0.0,0.0,0.0,0.0,0.0,-2.5546,-2.6182,0.0,-2.621,-2.6286,-2.5663,-2.49,-2.4295,-2.4295,-2.3731,-2.3242,-2.3369,-2.33,-2.3177,-2.3093,-2.323,-2.3833,-2.5333,-2.6574,0.0,0.0,0.0,0.0,0.0,0.0,0.0,0.0,0.0,0.0,0.0,0.0,0.0,-3.8565,-3.8582,-3.892,-3.9673,-3.996,-4.0096,-4.0096,-4.0096,-4.0096,-4.0096,-4.0096,-4.0096,-4.0096,-4.0096,-4.0096,0.0,0.0,0.0,0.0,-4.0096,-3.9943,-3.969,-3.969,-3.9225,-3.8582,-3.8582,-3.8108,-3.7415,0.0,0.0,0.0,0.0,0.0,0.0,0.0,-1.9297,-1.9297,-1.9297,-1.9997,-2.0823,-2.1702,-2.252,-2.3318,-2.4135,0.0,0.0,0.0,0.0,0.0,0.0,0.0,0.0,0.0,0.0,0.0,-2.419,-2.419,-2.419,-2.419,0.0,0.0,0.0,0.0,0.0,0.0,0.0,0.0,0.0,-2.419,-2.419,0.0,0.0,0.0,0.0,0.0,0.0,0.0,0.0,0.0,0.0,0.0,0.0,0.0,0.0,0.0,0.0,0.0,-2.59,-2.5865,-2.5496,-2.4853,-2.4298,-2.4298,-2.3756,0.0,-2.3671,-2.35,-2.3393,-2.3804,-2.4181,-2.4726,-2.5609,0.0,0.0,0.0,0.0,0.0,0.0,0.0,0.0,0.0,0.0,0.0,0.0,0.0,0.0,-3.7821,-3.7821,-3.8159,-3.8886,-3.9605,-3.9994,-4.0096,-4.0045,-4.0045,-4.0096,-4.0045,-4.0045,-4.0096,-4.0096,-4.0096,0.0,0.0,0.0,0.0,-4.0045,-3.9622,-3.8988,-3.8937,-3.8464,-3.7821,-3.7821,-3.7347,-3.6711,0.0,0.0,0.0,0.0,0.0,0.0,0.0,0.0,0.0,0.0,-1.9997,-2.0823,-2.1702,-2.252,-2.3318,0.0,0.0,0.0,0.0,0.0,0.0,0.0,0.0,0.0,0.0,0.0,0.0,-2.419,-2.419,-2.419,-2.419,-2.419,0.0,0.0,0.0,0.0,0.0,0.0,0.0,0.0,-2.419,-2.419,0.0,0.0,0.0,0.0,-2.419,-2.419,0.0,0.0,0.0,0.0,0.0,0.0,0.0,0.0,-2.4318,-2.451,-2.4596,0.0,-2.538,-2.4676,-2.4364,-2.4218,0.0,-2.4093,-2.3986,-2.4074,0.0,-2.4299,-2.5337,-2.512,-2.5541,-2.7875,0.0,0.0,0.0,0.0,0.0,0.0,0.0,0.0,0.0,0.0,0.0,0.0,0.0,-3.6417,-3.7032,-3.7066,-3.7398,-3.8142,-3.8328,-3.8954,-4.0096,-3.9554,-3.9529,-4.0096,-3.9537,-3.9554,-4.0096,-4.0096,-4.0096,0.0,0.0,0.0,-4.0062,-3.9503,-3.9157,-3.8937,-3.8379,-3.7702,-3.7066,-3.7066,-3.6552,-3.5893,0.0,0.0,0.0,0.0,0.0,0.0,0.0,0.0,0.0,0.0,0.0,0.0,0.0,0.0,0.0,0.0,0.0,0.0,0.0,0.0,0.0,0.0,0.0,0.0,0.0,0.0,0.0,0.0,0.0,-2.419,0.0,0.0,0.0,0.0,0.0,0.0,0.0,0.0,0.0,-2.419,-2.419,0.0,0.0,0.0,0.0,0.0,-2.419,-2.419,0.0,-2.419,-2.419,-2.419,0.0,0.0,0.0,0.0,-2.419,-2.419,-2.419,-2.4787,-2.5301,-2.486,-2.475,-2.475,-2.475,0.0,0.0,0.0,0.0,-2.4518,-2.559,-2.6031,0.0,0.0,-3.0003,0.0,0.0,0.0,0.0,0.0,0.0,0.0,0.0,0.0,0.0,0.0,0.0,-3.5785,-3.6231,-3.6248,-3.6603,-3.7364,-3.7398,-3.8091,-3.9588,-3.8853,-3.887,-3.9605,-3.8853,-3.887,-3.9588,-3.9225,-3.9276,0.0,0.0,0.0,-3.9056,-3.865,-3.8294,-3.7963,-3.7533,-3.6924,-3.6248,-3.6248,-3.5977,-3.56,0.0,0.0,0.0,0.0,0.0,0.0,0.0,0.0,0.0,0.0,0.0,0.0,0.0,0.0,0.0,0.0,0.0,0.0,0.0,0.0,0.0,0.0,0.0,0.0,0.0,0.0,0.0,0.0,0.0,0.0,0.0,0.0,-2.419,0.0,0.0,0.0,0.0,0.0,0.0,-2.419,-2.419,0.0,0.0,0.0,0.0,0.0,0.0,0.0,0.0,-2.419,-2.419,-2.419,-2.419,0.0,0.0,0.0,0.0,0.0,-2.4355,-2.497,-2.5521,-2.5283,-2.5301,-2.5374,-2.5246,0.0,0.0,0.0,0.0,0.0,0.0,-2.699,0.0,0.0,0.0,0.0,0.0,0.0,0.0,0.0,0.0,0.0,0.0,0.0,0.0,0.0,0.0,-3.56,-3.56,-3.56,-3.5904,-3.6609,-3.6626,-3.7286,-3.8633,-3.8041,-3.8108,-3.8819,-3.8075,-3.8125,-3.8802,-3.8193,-3.8244,-3.8802,0.0,0.0,-3.7889,-3.7787,-3.7347,-3.6795,-3.666,-3.6197,-3.56,-3.56,-3.56,-3.56,0.0,0.0,0.0,0.0,0.0,0.0,0.0,0.0,0.0,0.0,0.0,0.0,0.0,0.0,0.0,0.0,0.0,0.0,0.0,0.0,0.0,0.0,0.0,0.0,0.0,0.0,0.0,0.0,0.0,0.0,-2.419,-2.419,-2.419,0.0,0.0,0.0,0.0,0.0,0.0,-2.419,-2.419,0.0,0.0,0.0,0.0,0.0,0.0,0.0,0.0,-2.419,-2.419,-2.419,-2.419,0.0,0.0,0.0,0.0,0.0,-2.5026,-2.5786,-2.6098,-2.4722,-2.4897,-2.5209,-2.4548,0.0,0.0,0.0,0.0,0.0,0.0,0.0,0.0,0.0,0.0,0.0,0.0,0.0,0.0,0.0,0.0,0.0,0.0,0.0,0.0,0.0,0.0,-3.56,-3.56,-3.56,-3.565,-3.5769,-3.5769,-3.6231,-3.7134,-3.7032,-3.733,-3.8075,-3.7313,-3.7347,-3.8075,-3.7956,-3.7973,-3.8075,0.0,-3.7905,-3.7855,-3.7212,-3.6897,-3.6745,-3.6062,-3.5701,-3.56,-3.56,-3.56,-3.56,0.0,0.0,0.0,0.0,0.0,0.0,0.0,0.0,0.0,0.0,0.0,0.0,0.0,0.0,0.0,0.0,0.0,0.0,0.0,0.0,0.0,0.0,0.0,0.0,0.0,0.0,0.0,0.0,0.0,-2.419,-2.419,-2.419,-2.419,-2.419,0.0,0.0,0.0,0.0,-2.419,-2.419,0.0,0.0,0.0,0.0,0.0,0.0,0.0,0.0,0.0,0.0,-2.419,-2.419,-2.419,0.0,0.0,0.0,0.0,0.0,-2.4658,-2.5338,-2.5778,-2.5026,-2.5778,-2.6605,-2.6227,0.0,0.0,0.0,0.0,0.0,0.0,0.0,0.0,0.0,0.0,0.0,0.0,0.0,0.0,0.0,0.0,0.0,0.0,0.0,0.0,0.0,0.0,0.0,-3.646,-3.646,-3.646,-3.646,-3.646,-3.6506,-3.6581,-3.6581,-3.6836,-3.7297,-3.6518,-3.6552,-3.728,-3.6874,-3.6907,-3.728,0.0,-3.6648,-3.6614,-3.6299,-3.6146,-3.6113,-3.5735,-3.56,-3.56,-3.56,-3.56,-3.56,0.0,0.0,0.0,0.0,0.0,0.0,0.0,0.0,0.0,0.0,0.0,0.0,0.0,0.0,0.0,0.0,0.0,0.0,0.0,0.0,0.0,0.0,0.0,0.0,0.0,0.0,-2.4218,-2.4266,-2.4218,-2.419,-2.419,-2.419,-2.419,0.0,0.0,0.0,0.0,-2.419,-2.419,-2.419,0.0,0.0,0.0,0.0,0.0,0.0,0.0,0.0,0.0,0.0,0.0,0.0,0.0,0.0,0.0,-2.419,-2.419,-2.4245,-2.4428,-2.4934,-2.5448,-2.5631,-2.6476,-2.7339,-2.7714,0.0,0.0,0.0,0.0,0.0,0.0,0.0,0.0,0.0,0.0,0.0,0.0,0.0,0.0,0.0,0.0,0.0,0.0,0.0,0.0,0.0,0.0,0.0,-3.7209,-3.7209,-3.7209,-3.7209,-3.7209,-3.7001,-3.6583,-3.66,-3.6559,-3.6502,-3.5887,-3.5926,-3.6485,-3.5893,-3.5943,-3.6491,-3.5994,-3.5717,-3.5622,-3.5876,-3.5832,-3.5622,-3.5739,-3.5717,-3.56,-3.56,-3.56,-3.56,0.0,0.0,0.0,0.0,0.0,0.0,0.0,0.0,0.0,0.0,0.0,0.0,0.0,0.0,0.0,0.0,0.0,0.0,0.0,0.0,0.0,0.0,0.0,0.0,0.0,-2.419,-2.4294,-2.4478,-2.4294,-2.419,-2.419,-2.419,-2.419,-2.419,0.0,0.0,0.0,-2.419,-2.419,-2.419,-2.419,0.0,0.0,0.0,0.0,0.0,0.0,0.0,0.0,0.0,0.0,0.0,0.0,0.0,-2.419,-2.419,-2.419,-2.4355,-2.5117,-2.5356,-2.5576,-2.6337,-2.6043,0.0,-2.7467,-2.7181,0.0,-2.8528,0.0,0.0,0.0,0.0,0.0,0.0,0.0,0.0,0.0,0.0,0.0,0.0,0.0,0.0,0.0,0.0,0.0,0.0,0.0,0.0,-3.7209,-3.7209,-3.7209,-3.7209,-3.7209,-3.7173,-3.7135,-3.7135,-3.6641,-3.5684,-3.5616,-3.5633,-3.5667,-3.5616,-3.5633,-3.5729,-3.6135,-3.6054,-3.5672,-3.6666,-3.6501,-3.5667,-3.6161,-3.6032,-3.56,-3.56,-3.56,-3.56,0.0,0.0,0.0,0.0,0.0,0.0,0.0,0.0,0.0,0.0,0.0,0.0,0.0,0.0,0.0,0.0,0.0,0.0,0.0,0.0,0.0,0.0,0.0,-2.4731,-2.4586,-2.4567,-2.4607,-2.4685,-2.4486,-2.4393,-2.4384,-2.4266,0.0,0.0,0.0,0.0,0.0,0.0,-2.4266,-2.4393,-2.4393,-2.4393,0.0,0.0,0.0,0.0,0.0,0.0,0.0,0.0,-2.419,-2.419,-2.419,-2.419,-2.419,-2.419,-2.419,-2.4263,-2.4566,-2.5026,-2.5595,-2.641,-2.6374,0.0,0.0,-2.8705,-2.9145,-3.0265,-3.0723,0.0,0.0,0.0,0.0,0.0,0.0,0.0,0.0,0.0,0.0,0.0,0.0,0.0,0.0,0.0,0.0,0.0,0.0,0.0,-3.741,-3.7863,-3.8135,-3.8135,-3.8135,-3.7964,-3.7632,-3.7632,-3.7304,-3.6586,-3.6586,-3.6586,-3.6586,-3.6586,-3.6586,-3.6603,-3.6823,-3.6766,-3.6643,-3.702,-3.6962,-3.6623,-3.6823,-3.6766,-3.6545,-3.6207,-3.6097,-3.6054,0.0,0.0,0.0,0.0,0.0,0.0,0.0,0.0,0.0,0.0,0.0,0.0,0.0,0.0,0.0,0.0,0.0,0.0,0.0,0.0,0.0,0.0,0.0,-2.4968,-2.4968,-2.4968,-2.4923,-2.485,-2.4734,-2.4636,-2.4583,0.0,0.0,0.0,0.0,0.0,0.0,0.0,-2.4469,-2.4591,-2.4591,-2.4569,0.0,0.0,0.0,0.0,0.0,0.0,0.0,0.0,-2.419,-2.419,-2.419,-2.419,-2.419,-2.419,-2.4373,-2.4585,-2.4585,-2.497,-2.5595,-2.641,0.0,0.0,-2.9005,-2.9794,-3.0577,-3.188,-3.2168,0.0,0.0,0.0,0.0,0.0,0.0,0.0,0.0,0.0,0.0,0.0,0.0,0.0,0.0,0.0,0.0,0.0,0.0,0.0,0.0,-3.8157,-3.8432,-3.8689,-3.845,-3.8274,-3.8148,-3.8148,-3.7998,-3.7667,-3.7667,-3.7506,-3.7209,-3.7209,-3.7209,-3.7209,-3.736,-3.7341,-3.721,-3.7542,-3.7578,-3.7396,-3.7266,-3.7209,-3.7171,-3.6783,-3.6643,-3.6603,0.0,0.0,0.0,0.0,0.0,0.0,0.0,0.0,0.0,0.0,0.0,0.0,0.0,0.0,0.0,0.0,0.0,0.0,0.0,0.0,0.0,0.0,0.0,-2.5308,-2.5308,-2.5308,-2.5208,-2.501,-2.501,-2.4924,-2.4797,-2.4591,0.0,0.0,0.0,0.0,0.0,0.0,0.0,0.0,-2.4804,-2.4685,-2.4512,0.0,0.0,0.0,0.0,0.0,0.0,0.0,-2.419,-2.419,-2.419,-2.4208,-2.4208,-2.419,-2.4768,-2.5393,-2.5393,-2.5393,-2.5595,0.0,0.0,0.0,-2.9861,-3.0228,-3.0907,-3.3311,0.0,-3.3807,-3.3807,0.0,0.0,0.0,0.0,0.0,0.0,0.0,0.0,0.0,0.0,0.0,0.0,0.0,0.0,0.0,0.0,0.0,0.0,-3.7918,-3.786,-3.8652,-3.7915,-3.7878,-3.8689,-3.8707,-3.8707,-3.8707,-3.8707,-3.8168,-3.721,-3.721,-3.721,-3.7229,-3.7702,-3.7649,-3.7285,-3.8285,-3.8382,-3.7859,-3.7396,-3.721,-3.721,-3.7209,-3.7209,-3.7209,0.0,0.0,0.0,0.0,0.0,0.0,0.0,0.0,0.0,0.0,0.0,0.0,0.0,0.0,0.0,0.0,0.0,0.0,0.0,0.0,0.0,0.0,0.0,0.0,0.0,0.0,-2.5269,-2.5214,-2.5077,-2.498,0.0,0.0,0.0,-2.4708,0.0,0.0,0.0,0.0,0.0,0.0,-2.4937,-2.4904,-2.4838,0.0,0.0,0.0,0.0,0.0,0.0,0.0,0.0,0.0,-2.419,-2.4585,-2.4934,-2.4373,-2.4768,-2.5283,-2.4713,-2.5383,0.0,-2.7236,0.0,0.0,0.0,-3.1885,0.0,0.0,0.0,-3.3807,-3.3807,0.0,0.0,0.0,0.0,0.0,0.0,0.0,0.0,0.0,0.0,0.0,0.0,0.0,0.0,0.0,0.0,0.0,0.0,-3.645,-3.6776,-3.7,-3.7327,-3.7621,-3.786,-3.8414,-3.8707,-3.8707,-3.8707,-3.8546,-3.8252,-3.8252,-3.8252,-3.8269,-3.8399,-3.8366,-3.8285,-3.858,-3.8611,-3.8449,-3.8318,-3.8252,-3.8201,-3.7825,-3.7685,-3.7649,0.0,0.0,0.0,0.0,0.0,0.0,0.0,0.0,0.0,0.0,0.0,-2.5308,0.0,0.0,0.0,0.0,0.0,0.0,0.0,0.0,0.0,0.0,0.0,0.0,0.0,-2.5308,-2.5308,0.0,0.0,0.0,0.0,0.0,0.0,-2.4871,0.0,-2.4871,0.0,0.0,0.0,0.0,-2.5111,-2.5077,-2.4992,0.0,0.0,0.0,0.0,0.0,0.0,0.0,0.0,0.0,-2.419,-2.453,-2.4897,-2.4732,-2.5026,-2.5429,-2.5595,-2.6098,0.0,-2.8393,-2.9475,-3.0705,-3.2651,0.0,0.0,0.0,0.0,-3.3807,-3.3807,0.0,0.0,0.0,0.0,0.0,0.0,0.0,0.0,0.0,0.0,0.0,0.0,0.0,0.0,0.0,0.0,0.0,0.0,-3.5697,-3.5936,-3.6285,-3.6431,-3.667,-3.7015,-3.7496,-3.7753,-3.7753,-3.8065,-3.8212,-3.823,-3.856,-3.8707,-3.8707,-3.8707,-3.8707,-3.8707,-3.8707,-3.8707,-3.8707,-3.8707,-3.8707,-3.8658,-3.835,-3.8016,-3.7747,0.0,0.0,-2.1639,-2.1716,0.0,0.0,0.0,0.0,0.0,0.0,-2.5308,-2.5308,0.0,0.0,0.0,-2.5308,-2.5308,-2.5308,0.0,0.0,0.0,0.0,0.0,0.0,0.0,0.0,0.0,0.0,0.0,0.0,0.0,0.0,-2.5028,-2.5028,0.0,-2.5028,0.0,0.0,0.0,-2.5308,-2.5308,-2.5198,-2.501,-2.4876,0.0,0.0,0.0,0.0,0.0,0.0,0.0,0.0,-2.4228,-2.4264,-2.4438,-2.5099,-2.5393,-2.5815,-2.721,0.0,0.0,-2.9622,-3.0375,0.0,-3.3293,0.0,-3.3807,-3.3807,0.0,0.0,0.0,0.0,0.0,0.0,0.0,0.0,0.0,0.0,0.0,0.0,0.0,0.0,0.0,0.0,0.0,0.0,0.0,0.0,0.0,-3.5316,-3.5243,-3.6046,-3.5371,-3.5371,-3.6174,-3.6266,-3.6303,-3.6303,-3.7052,-3.7382,-3.7419,-3.8303,-3.8707,-3.8707,-3.8707,-3.8707,-3.8707,-3.8707,-3.8707,-3.8689,-3.8615,-3.8597,-3.8579,-3.8505,-3.801,-3.7511,0.0,0.0,-2.274,-2.3413,0.0,0.0,0.0,0.0,-2.4394,-2.5192,-2.5308,-2.5308,-2.5308,-2.5308,0.0,-2.5308,-2.5308,-2.5308,-2.5308,0.0,0.0,0.0,0.0,0.0,0.0,0.0,0.0,0.0,0.0,0.0,0.0,0.0,0.0,-2.5248,0.0,-2.5248,0.0,0.0,-2.5308,-2.5308,-2.5308,-2.5269,-2.5214,-2.5036,-2.493,0.0,0.0,0.0,0.0,0.0,0.0,0.0,-2.4445,-2.4764,-2.5044,-2.4585,-2.5346,-2.6282,-2.5999,-2.6715,0.0,0.0,0.0,0.0,-3.3678,-3.3807,-3.3807,-3.3807,0.0,0.0,0.0,0.0,0.0,0.0,0.0,0.0,0.0,0.0,0.0,0.0,0.0,0.0,0.0,0.0,0.0,0.0,0.0,0.0,-3.4321,-3.4156,-3.4137,-3.4321,-3.4766,-3.5096,-3.5279,-3.5954,-3.6303,0.0,-3.6468,-3.656,-3.6611,-3.8046,-3.8707,-3.8707,-3.8707,-3.8707,-3.8707,-3.8707,-3.8707,-3.8634,-3.7991,-3.7768,-3.7676,-3.7037,-3.6707,-3.6578,0.0,0.0,0.0,0.0,0.0,0.0,0.0,0.0,-2.4394,-2.5192,-2.5308,-2.5308,-2.5308,-2.5308,0.0,0.0,-2.5308,-2.5308,-2.5308,-2.5308,-2.5308,0.0,0.0,0.0,0.0,0.0,0.0,0.0,0.0,0.0,0.0,0.0,0.0,-2.5308,0.0,-2.5308,0.0,0.0,-2.5308,-2.5308,-2.5308,-2.5308,-2.5274,-2.5082,-2.5004,-2.4986,-2.4849,0.0,0.0,0.0,0.0,0.0,0.0,0.0,-2.494,-2.4807,-2.5089,-2.5603,0.0,0.0,0.0,0.0,0.0,0.0,0.0,0.0,0.0,0.0,0.0,0.0,0.0,0.0,0.0,0.0,0.0,0.0,0.0,0.0,0.0,0.0,0.0,0.0,0.0,0.0,0.0,0.0,0.0,-3.3807,-3.3807,-3.3807,-3.3807,-3.3807,-3.4211,-3.4417,-3.4417,-3.489,-3.5092,-3.511,-3.5495,-3.5899,-3.6321,-3.7165,-3.7551,-3.7569,-3.7955,-3.79,-3.7588,-3.7973,-3.79,-3.7514,-3.7092,-3.6942,-3.6868,-3.645,-3.6046,-3.5752,0.0,0.0,0.0,0.0,0.0,0.0,0.0,0.0,0.0,-2.5212,-2.5308,-2.5308,-2.5308,-2.5308,-2.5308,0.0,0.0,0.0,-2.5308,-2.5308,-2.5308,-2.5308,0.0,0.0,0.0,0.0,0.0,0.0,0.0,0.0,0.0,0.0,0.0,-2.5308,0.0,0.0,0.0,-2.5308,-2.5308,-2.5308,-2.5308,-2.5308,-2.5274,-2.513,-2.5046,-2.5047,-2.4929,-2.4895,-2.4895,-2.4895,0.0,0.0,0.0,0.0,-2.4549,-2.5048,-2.4824,-2.4832,0.0,0.0,0.0,0.0,0.0,0.0,0.0,0.0,0.0,0.0,0.0,0.0,0.0,0.0,0.0,0.0,0.0,0.0,0.0,0.0,0.0,0.0,0.0,0.0,0.0,0.0,0.0,0.0,0.0,-3.3807,-3.3807,-3.3807,-3.3807,-3.3807,-3.3807,-3.3807,-3.3807,-3.3807,-3.3807,-3.3807,-3.4472,-3.5169,-3.5862,-3.5862,-3.6028,-3.634,-3.6997,-3.6923,-3.634,-3.7015,-3.6905,-3.6285,-3.6138,-3.6083,-3.6064,-3.5917,-3.5422,-3.4894,0.0,0.0,0.0,0.0,0.0,0.0,0.0,0.0,0.0,0.0,-2.5308,-2.5308,-2.5308,-2.5308,-2.5308,-2.5308,-2.5308,-2.5308,-2.5308,0.0,0.0,0.0,0.0,0.0,0.0,0.0,0.0,0.0,0.0,0.0,0.0,0.0,0.0,-2.5308,0.0,0.0,0.0,-2.5308,-2.5308,-2.5308,-2.5308,-2.5308,-2.5303,-2.5269,-2.5264,-2.5259,-2.5243,-2.5233,-2.5233,-2.5233,-2.505,0.0,0.0,0.0,-2.4256,-2.4328,-2.4787,-2.5301,0.0,0.0,0.0,0.0,0.0,0.0,0.0,0.0,0.0,0.0,0.0,0.0,0.0,0.0,0.0,0.0,0.0,0.0,0.0,0.0,0.0,0.0,0.0,0.0,0.0,0.0,0.0,0.0,-3.3807,-3.3807,-3.3807,-3.3807,-3.3807,-3.3807,-3.3807,-3.3807,-3.3807,-3.3807,-3.3807,-3.3807,-3.3917,-3.4027,-3.4137,-3.4137,-3.4926,-3.6303,-3.6413,-3.6395,-3.6303,-3.6413,-3.6395,-3.6211,-3.5463,-3.5169,-3.5096,-3.4394,-3.4064,-3.3972,0.0,0.0,0.0,0.0,0.0,0.0,0.0,0.0,0.0,0.0,0.0,-2.5308,-2.5308,-2.5308,-2.5308,-2.5308,-2.5308,-2.5308,-2.5308,-2.5308,0.0,0.0,0.0,0.0,0.0,0.0,0.0,0.0,0.0,0.0,0.0,-2.6212,-2.6288,0.0,0.0,0.0,0.0,-2.5519,-2.5308,-2.5308,-2.5308,-2.5596,-2.5981,-2.55,-2.5596,-2.5962,-2.5481,-2.5308,-2.5308,-2.5308,-2.5212,-2.5049,-2.4943,0.0,0.0,0.0,0.0,0.0,-2.5823,0.0,0.0,0.0,0.0,0.0,0.0,0.0,0.0,0.0,0.0,0.0,0.0,0.0,0.0,0.0,0.0,0.0,0.0,0.0,0.0,0.0,0.0,0.0,0.0,0.0,0.0,0.0,-3.3807,-3.3807,-3.3807,-3.3807,-3.3807,-3.3807,-3.3807,-3.3807,-3.3807,-3.3807,-3.3807,-3.3807,-3.3807,-3.3807,-3.3807,-3.3807,-3.4192,-3.4926,-3.5385,-3.533,-3.4926,-3.5404,-3.5312,-3.4853,-3.4486,-3.4325,-3.427,-3.3935,-3.3807,-3.3807,0.0,0.0,0.0,0.0,0.0,0.0,0.0,0.0,0.0,0.0,0.0,-2.5308,-2.5308,0.0,0.0,0.0,-2.5308,-2.5308,-2.5308,0.0,0.0,0.0,0.0,0.0,0.0,0.0,0.0,0.0,0.0,0.0,-2.6601,-2.6601,-2.7178,0.0,-2.7313,-2.6813,0.0,-2.5904,-2.5635,-2.5635,-2.5635,-2.6019,-2.6544,-2.6115,-2.6365,-2.6813,-2.5942,-2.5635,-2.5596,-2.5365,-2.5264,-2.5203,-2.504,-2.491,0.0,0.0,0.0,0.0,0.0,0.0,0.0,0.0,0.0,0.0,0.0,0.0,0.0,0.0,0.0,0.0,0.0,0.0,0.0,0.0,0.0,0.0,0.0,0.0,0.0,0.0,0.0,0.0,0.0,0.0,0.0,0.0,-3.3807,-3.3807,-3.3807,-3.3605,-3.3587,-3.3788,-3.3403,-3.3385,-3.3807,-3.3807,-3.3807,-3.3807,-3.3807,-3.3807,-3.3807,-3.3807,-3.3807,-3.3825,-3.4417,-3.4344,-3.3844,-3.4454,-3.4344,-3.3807,-3.3807,-3.3807,-3.3807,-3.3807,-3.3807,-3.3807,0.0,0.0,0.0,0.0,0.0,0.0,0.0,0.0,0.0,0.0,0.0,-2.5308,-2.5308,-2.5308,-2.5308,-2.5308,-2.5308,-2.5308,-2.5308,0.0,0.0,0.0,0.0,0.0,0.0,0.0,0.0,0.0,0.0,0.0,-2.6601,-2.6601,-2.7467,-2.8992,-2.8184,-2.7371,-2.6601,-2.6544,-2.6524,-2.6524,-2.6524,-2.6563,-2.6697,-2.7467,-2.7799,-2.7722,-2.6851,-2.6524,-2.6409,-2.5577,-2.5168,-2.5016,-2.4991,-2.491,-2.4797,0.0,0.0,0.0,0.0,0.0,0.0,0.0,0.0,0.0,0.0,0.0,0.0,0.0,0.0,0.0,0.0,0.0,0.0,0.0,0.0,0.0,0.0,0.0,0.0,0.0,0.0,0.0,0.0,0.0,0.0,0.0,-3.3807,-3.3807,-3.3807,-3.3091,-3.3005,-3.377,-3.232,-3.226,-3.3788,-3.3807,-3.3807,-3.3807,-3.3807,-3.3807,-3.3807,-3.3807,-3.3807,-3.3807,-3.3844,-3.3844,-3.3807,-3.3844,-3.3844,-3.3807,-3.3807,-3.3807,-3.3807,-3.3807,-3.3807,-3.3807,0.0,0.0,0.0,0.0,0.0,0.0,0.0,0.0,0.0,0.0,0.0,0.0,0.0,-2.5308,-2.5308,-2.5308,-2.5308,0.0,0.0,0.0,0.0,0.0,0.0,0.0,0.0,0.0,0.0,0.0,0.0,-2.575,-2.6601,-2.6601,-2.6928,-2.7486,-2.7198,-2.7198,-2.7351,-2.6231,-2.5769,-2.5808,-2.6365,-2.6948,-2.7467,-2.778,-2.8222,-2.8569,-2.7736,-2.7063,-2.6544,-2.6231,-2.57,-2.5179,-2.5179,-2.5065,-2.4917,-2.484,-2.4804,0.0,0.0,0.0,0.0,0.0,0.0,0.0,0.0,0.0,0.0,0.0,0.0,0.0,0.0,0.0,0.0,0.0,0.0,0.0,0.0,0.0,0.0,0.0,0.0,0.0,0.0,0.0,0.0,0.0,0.0,-3.3568,-3.3073,-3.2748,-3.2491,-3.2265,-3.1709,-3.169,-3.2247,-3.2779,-3.3036,-3.3041,-3.355,-3.3807,-3.3807,-3.3807,-3.3807,-3.3807,-3.3807,-3.3807,-3.3807,-3.3807,-3.3807,-3.3807,-3.3807,-3.3807,-3.3807,-3.3807,-3.3807,-3.3807,0.0,0.0,0.0,-2.5308,0.0,-2.5308,-2.5308,-2.5308,-2.5308,-2.5308,0.0,0.0,0.0,0.0,-2.5308,-2.5308,-2.5308,-2.5308,-2.5308,0.0,0.0,0.0,0.0,0.0,0.0,0.0,0.0,0.0,0.0,0.0,0.0,-2.6154,-2.6327,-2.6582,-2.6288,-2.6659,0.0,0.0,0.0,-2.5808,-2.6697,-2.7371,-2.7953,-2.8525,-2.9063,-2.9429,-2.8607,-2.7928,-2.739,-2.7121,-2.6467,-2.5731,-2.5731,-2.5444,-2.5077,-2.4993,-2.4974,-2.5075,-2.5551,0.0,0.0,0.0,0.0,0.0,0.0,0.0,0.0,0.0,0.0,0.0,0.0,0.0,0.0,0.0,0.0,0.0,0.0,0.0,0.0,0.0,0.0,0.0,0.0,0.0,0.0,0.0,0.0,0.0,-3.2247,-3.194,-3.1439,-3.0613,-3.1109,-3.1268,-3.0999,-3.2051,-3.2601,-3.2601,-3.3421,-3.3807,-3.3807,-3.3807,-3.3807,-3.3807,-3.3807,-3.3807,-3.3807,-3.3807,-3.3807,-3.3807,-3.3807,-3.3807,-3.3807,-3.3807,-3.3807,-3.3807,-2.5308,-2.5308,-2.5308,-2.5308,-2.5308,-2.5308,-2.5308,-2.5308,-2.5308,-2.5308,0.0,0.0,0.0,0.0,0.0,-2.5308,-2.5308,-2.5308,-2.5308,-2.5308,0.0,0.0,0.0,0.0,0.0,0.0,0.0,0.0,0.0,0.0,0.0,0.0,-2.575,-2.6524,-2.5673,-2.5769,-2.6563,-2.6563,-2.6582,-2.6678,-2.7525,-2.7895,-2.8102,-2.9731,-3.0385,-3.0288,-2.9429,-2.9127,0.0,-2.8203,-2.7332,-2.6601,-2.6563,-2.5981,-2.5308,-2.5308,-2.5308,-2.5259,0.0,0.0,0.0,0.0,0.0,0.0,0.0,0.0,0.0,0.0,0.0,0.0,0.0,0.0,0.0,0.0,0.0,0.0,0.0,0.0,0.0,0.0,0.0,0.0,0.0,0.0,0.0,0.0,-3.2601,-3.2247,-3.1427,-3.0619,-2.9829,-2.9046,-3.0546,-3.098,-3.0197,-3.1776,-3.2603,-3.259,-3.3416,-3.3802,-3.3802,-3.3788,-3.3807,-3.3807,-3.3807,-3.3807,-3.3807,-3.3807,-3.3807,-3.3807,-3.3807,-3.3807,-3.3807,-3.3807,-3.3807,-3.3807,-2.5308,-2.5308,-2.5308,-2.5308,-2.5308,-2.5308,-2.5308,-2.5308,-2.5308,0.0,0.0,0.0,-2.5308,-2.5308,-2.5308,-2.5308,-2.5308,-2.5308,-2.5308,-2.5308,-2.5308,-2.5308,-2.5308,-2.5308,0.0,0.0,0.0,0.0,0.0,0.0,0.0,0.0,0.0,-2.5654,-2.5404,-2.5423,-2.5654,-2.5654,0.0,-2.6621,-2.6851,-2.7698,0.0,0.0,0.0,0.0,0.0,-2.964,-2.9069,0.0,-2.7794,-2.6486,-2.5865,-2.55,-2.5308,-2.5308,-2.5308,-2.5298,-2.5224,0.0,0.0,0.0,0.0,0.0,0.0,0.0,0.0,0.0,0.0,0.0,0.0,0.0,0.0,0.0,0.0,0.0,0.0,0.0,0.0,0.0,0.0,0.0,0.0,0.0,0.0,0.0,-3.2601,-3.2078,-3.0891,-3.02,-2.9738,-2.9523,-2.9944,-3.0057,-2.9832,-3.1471,-3.2306,-3.2333,-3.3513,-3.4086,-3.4074,-3.3889,-3.3807,-3.3807,-3.3807,-3.3807,-3.3807,-3.3807,-3.3807,-3.3807,-3.3807,-3.3807,-3.3807,-3.3807,-3.3807,-3.3807,-2.5308,-2.5308,-2.5308,-2.5308,-2.5308,-2.5308,-2.5308,-2.5308,-2.5308,0.0,0.0,0.0,-2.5308,-2.5308,-2.5308,-2.5308,-2.5308,-2.5308,-2.5308,-2.5308,-2.5308,-2.5308,-2.5308,-2.5308,-2.5308,0.0,0.0,0.0,0.0,0.0,0.0,0.0,0.0,0.0,-2.5308,-2.5308,-2.5308,-2.5308,-2.5596,0.0,-2.6851,0.0,0.0,-2.9371,-2.9967,0.0,0.0,0.0,-2.964,-2.964,-2.8525,-2.6986,-2.6115,-2.5846,-2.5769,-2.5404,-2.5558,-2.5769,-2.5404,-2.5308,-2.5475,-2.6188,0.0,0.0,0.0,-2.7581,0.0,0.0,0.0,0.0,0.0,0.0,0.0,0.0,0.0,0.0,0.0,0.0,0.0,0.0,0.0,0.0,0.0,-3.3881,-3.3429,-3.2495,-3.2334,-3.1677,-3.0289,-2.9888,-2.9705,-2.9705,-2.9705,-2.9705,-2.9705,-3.1006,-3.1845,-3.2204,-3.3333,-3.4053,-3.4401,-3.4237,-3.4099,-3.3974,-3.3974,-3.3902,-3.3807,-3.3807,-3.3807,-3.3807,-3.3807,-3.3807,-3.3807,-3.3807,-3.3807,-3.3807,0.0,-2.5308,-2.5308,-2.5308,-2.5308,-2.5308,-2.5308,-2.5308,-2.5308,0.0,-2.5308,-2.5308,-2.5308,-2.5308,-2.5308,-2.5308,-2.5308,-2.5308,-2.5308,-2.5308,-2.5308,-2.5308,-2.5308,-2.5308,-2.5308,-2.5308,0.0,0.0,0.0,0.0,0.0,0.0,0.0,0.0,-2.5308,-2.5308,-2.5308,-2.5308,-2.5365,-2.5577,-2.7121,-2.7876,0.0,0.0,-3.0327,-3.0404,-3.0404,-3.0404,-3.0385,-3.0288,-2.9275,0.0,-2.6909,-2.6678,-2.6544,-2.5577,-2.5981,-2.6544,-2.5673,-2.5519,-2.575,-2.6428,-2.6096,0.0,-2.7969,-2.7891,-2.7754,0.0,0.0,0.0,0.0,0.0,0.0,0.0,0.0,0.0,0.0,0.0,0.0,0.0,0.0,0.0,-3.4183,-3.4024,-3.3462,-3.2402,-3.197,-3.1153,-2.9806,-2.9765,-2.9782,-2.9782,-2.9782,-2.9782,-2.9782,-3.0578,-3.1418,-3.2296,-3.2968,-3.3808,-3.4734,-3.461,-3.4446,-3.4265,-3.4265,-3.4105,-3.3842,-3.3842,-3.3829,-3.3807,-3.3807,-3.3807,-3.3807,-3.3807,-3.3807,-3.3807,-2.5308,-2.5308,-2.5308,-2.5308,-2.5308,-2.5308,-2.5308,-2.5308,-2.5308,-2.5308,-2.5308,-2.5308,-2.5308,-2.5308,-2.5308,-2.5308,-2.5308,-2.5308,-2.5308,-2.5308,-2.5308,-2.5308,-2.5308,-2.5308,-2.5308,-2.5308,0.0,0.0,0.0,0.0,0.0,0.0,0.0,0.0,-2.5308,-2.5308,-2.5308,-2.5308,-2.5692,-2.639,-2.6717,0.0,-2.8896,-2.9223,-2.9794,-3.0404,-3.0404,-3.0404,-3.0288,-2.9583,-2.9146,-2.8607,0.0,-2.7082,-2.7332,-2.5769,-2.6409,-2.7467,-2.6582,-2.6851,-2.7274,-2.6736,-2.7005,0.0,-2.6194,-2.64,-2.6792,0.0,0.0,0.0,0.0,0.0,0.0,0.0,0.0,0.0,0.0,0.0,0.0,0.0,0.0,0.0,-3.4188,-3.4409,-3.4147,-3.3223,-3.2065,-3.0972,-2.9985,-3.0155,-3.0267,-3.0267,-3.0267,-3.0267,-3.0267,-3.111,-3.1941,-3.2766,-3.2702,-3.3496,-3.4988,-3.4074,-3.4002,-3.4593,-3.4593,-3.4412,-3.4123,-3.4123,-3.3981,-3.3807,-3.3807,-3.3807,-3.3807,-3.3807,-3.3807,-3.3807,-2.5308,-2.5308,-2.5308,-2.5308,-2.5308,-2.5308,-2.5308,-2.5308,-2.5462,-2.5885,-2.5942,-2.5788,-2.5346,-2.5308,-2.5308,-2.5308,-2.5308,-2.5308,-2.5308,-2.5308,-2.5308,-2.5308,-2.5308,-2.5308,-2.5308,-2.5308,-2.5308,0.0,0.0,0.0,0.0,0.0,0.0,0.0,-2.5308,-2.5308,-2.5308,-2.5308,-2.5558,-2.6019,-2.6909,0.0,-2.9146,-2.9583,-3.0019,-3.0404,-3.0404,-3.0404,-3.0269,-2.939,-2.9107,0.0,-2.764,-2.7813,-2.8165,0.0,-2.6871,-2.7717,-2.6832,-2.6928,-2.7255,-2.7255,0.0,0.0,0.0,-2.6601,-2.6806,-2.7495,0.0,0.0,0.0,0.0,0.0,0.0,0.0,0.0,0.0,0.0,0.0,0.0,0.0,0.0,-3.4636,-3.4675,-3.4215,-3.3039,-3.2054,-3.1128,-3.026,-3.0323,-3.0404,-3.0404,-3.0404,-3.0404,-3.0404,-3.0827,-3.1462,-3.2295,-3.2178,-3.2761,-3.3994,-3.3867,-3.3961,-3.4281,-3.4718,-3.4744,-3.4445,-3.4445,-3.4265,-3.3999,-3.3855,-3.3807,-3.3807,-3.3807,-3.3807,-3.3807,-2.5308,-2.5308,-2.5308,-2.5308,-2.5308,-2.5308,-2.5308,-2.5308,-2.5615,-2.6486,-2.6755,-2.6582,-2.5885,-2.5808,-2.5865,-2.6019,-2.5885,-2.5808,-2.5808,-2.5635,-2.5481,-2.5308,-2.5308,-2.5308,-2.5308,-2.5308,-2.5308,0.0,0.0,0.0,0.0,0.0,0.0,0.0,0.0,0.0,0.0,0.0,0.0,-2.6135,0.0,-2.8184,-2.8723,-2.9756,-3.0154,-3.0173,-3.0346,-3.0404,-3.0288,-2.9583,-2.9357,-2.9204,-2.8396,-2.8684,0.0,0.0,0.0,-2.8198,-2.7313,0.0,-2.7428,0.0,0.0,-2.714,0.0,0.0,0.0,-2.8121,0.0,0.0,0.0,0.0,0.0,0.0,0.0,0.0,0.0,0.0,0.0,0.0,0.0,0.0,0.0,-3.4707,-3.4043,-3.2676,-3.2038,-3.1308,-3.0442,-3.0404,-3.0404,-3.0404,-3.0404,-3.0404,-3.0404,-3.0404,-3.0846,-3.1698,-3.1525,-3.1968,-3.291,-3.3622,-3.3932,-3.3929,-3.48,-3.5016,-3.4793,-3.4793,-3.4593,-3.4277,-3.3986,-3.3855,-3.3807,-3.3807,-3.3807,-3.3807,-2.5308,-2.5308,-2.5308,-2.5308,-2.5308,-2.5308,-2.5308,-2.5308,-2.5615,-2.6486,-2.7274,-2.7717,-2.7621,-2.7601,-2.7895,-2.8607,-2.803,-2.7601,-2.7601,-2.689,-2.6115,-2.5327,-2.5308,-2.5308,-2.5308,-2.5308,-2.5308,-2.5308,0.0,0.0,0.0,0.0,-2.5308,-2.5308,-2.5308,0.0,0.0,0.0,-2.6596,0.0,-2.8107,-2.7486,0.0,-2.864,-2.9242,-2.9357,-3.0115,-3.0404,-3.0385,0.0,-3.025,-3.0096,0.0,-2.9563,-2.9923,-2.8236,0.0,0.0,0.0,0.0,0.0,0.0,-2.8357,0.0,0.0,0.0,-2.6428,-2.5846,0.0,0.0,0.0,0.0,0.0,0.0,0.0,0.0,0.0,0.0,0.0,0.0,0.0,0.0,0.0,-3.4148,-3.3876,-3.2936,-3.2148,-3.1308,-3.0442,-3.0404,-3.0404,-3.0404,-3.0404,-3.0404,-3.0404,-3.0404,-3.0846,-3.1698,-3.0923,-3.1365,-3.2891,-3.3006,-3.3462,-3.4191,-3.5088,-3.5304,-3.5043,-3.5043,-3.4879,-3.4622,-3.4288,-3.4006,-3.3807,-3.3807,-3.3807,-3.3807,-2.5308,-2.5308,-2.5308,-2.5308,-2.5308,-2.5308,-2.5308,-2.6538,-2.764,-2.8005,-2.8813,-2.9352,-2.9352,-2.889,-2.8934,-2.9775,-2.9083,-2.8607,-2.8607,-2.7332,-2.6447,-2.6077,-2.5577,-2.5308,-2.5308,-2.5308,-2.5308,-2.5308,-2.5308,0.0,0.0,0.0,-2.5308,-2.5327,-2.5827,0.0,-2.6582,0.0,-2.6678,0.0,0.0,0.0,0.0,-2.9025,-2.9852,-2.991,-3.0269,-3.0731,-3.1,0.0,-3.0314,0.0,0.0,0.0,0.0,-2.8948,0.0,0.0,0.0,0.0,0.0,0.0,0.0,0.0,-2.6404,0.0,-2.5885,0.0,0.0,0.0,0.0,0.0,0.0,0.0,0.0,0.0,0.0,0.0,0.0,0.0,0.0,0.0,0.0,0.0,0.0,0.0,-3.1891,-3.1308,-3.0442,-3.0404,-3.0404,-3.0404,-3.0404,-3.0404,-3.0404,-3.0404,-3.0577,-3.0942,-3.0577,-3.0769,-3.1462,-3.1968,-3.266,-3.3487,-3.4372,-3.4959,-3.532,-3.532,-3.5163,-3.4926,-3.4774,-3.4553,-3.4302,-3.4105,-3.4031,-3.4006,-2.535,-2.5344,-2.5312,-2.5293,-2.5317,-2.5485,-2.5947,-2.799,-2.9566,-2.9786,-3.0585,-3.1135,-3.1083,-3.0525,-3.0487,-3.1371,-3.0641,-3.0146,-3.0146,-2.8352,-2.7294,-2.7294,-2.6,-2.5404,-2.5654,-2.5423,-2.5308,-2.5308,-2.5308,0.0,0.0,0.0,0.0,-2.5346,0.0,-2.6736,-2.6967,0.0,-2.7217,-2.7635,-2.7635,-2.7769,-2.8159,-2.9519,-3.0192,-3.0404,-3.0404,-3.0808,-3.1198,-3.016,-3.0487,0.0,-3.039,0.0,-3.0635,0.0,0.0,0.0,-2.9525,0.0,0.0,0.0,0.0,0.0,0.0,0.0,0.0,0.0,0.0,0.0,0.0,0.0,0.0,0.0,0.0,0.0,0.0,0.0,0.0,0.0,0.0,0.0,0.0,0.0,0.0,0.0,0.0,-3.1077,-3.0423,-3.0404,-3.0404,-3.0404,-3.0404,-3.0404,-3.0404,-3.0404,-3.0404,-3.0404,-3.0404,-3.0404,-3.0423,-3.1288,-3.2025,-3.2622,-3.3725,-3.4564,-3.5154,-3.5404,-3.5383,-3.5207,-3.5207,-3.5096,-3.487,-3.4478,-3.4345,-3.43,-2.5484,-2.5447,-2.5372,-2.5308,-2.5354,-2.5928,-2.7565,-2.9318,-3.0723,-3.1511,-3.2419,-3.2957,-3.2833,-3.2795,-3.3122,-3.3994,-3.3276,-3.2776,-3.2776,-3.0416,-2.9011,-2.9011,-2.664,-2.5692,-2.6544,-2.5731,-2.5308,-2.5308,-2.5308,-2.5308,0.0,0.0,0.0,0.0,-2.6212,-2.7063,-2.7857,-2.7857,-2.8794,-3.0288,-3.0288,-3.0769,-3.1352,0.0,-2.9679,-3.0404,-3.0404,0.0,0.0,-3.1352,-3.1096,0.0,0.0,0.0,0.0,0.0,0.0,0.0,0.0,0.0,0.0,-2.8332,0.0,0.0,0.0,0.0,-2.6563,0.0,0.0,0.0,0.0,0.0,-2.7544,-2.6736,0.0,0.0,0.0,0.0,0.0,0.0,0.0,0.0,0.0,0.0,0.0,0.0,0.0,0.0,-3.0404,-3.0404,-3.0404,-3.0404,-3.0404,-3.0404,-3.0404,-3.0404,-3.0404,-3.0404,-3.0404,-3.0404,-3.0423,-3.1288,-3.1718,-3.1833,-3.3468,-3.4225,-3.4321,-3.5154,-3.5493,-3.5493,-3.5493,-3.5486,-3.5417,-3.4889,-3.4684,-3.4643,-2.6354,-2.6388,-2.6186,-2.5544,-2.5928,-2.7109,-2.9394,-3.0717,-3.2142,-3.4151,-3.4191,-3.4431,-3.5502,-3.462,-3.4286,-3.5115,-3.4441,-3.3925,-3.3826,-3.1439,-3.0259,-3.08,-2.8371,-2.7409,-2.8242,-2.689,-2.6154,-2.6154,-2.5577,-2.5308,0.0,0.0,0.0,0.0,0.0,-2.7082,0.0,0.0,0.0,0.0,0.0,-3.1756,-3.2314,0.0,0.0,-3.125,-3.125,-3.1968,0.0,-3.2583,-3.2679,-3.291,-3.2891,-3.2718,-3.2391,-3.1852,-3.1698,0.0,0.0,0.0,-3.0852,-2.9127,0.0,0.0,0.0,0.0,0.0,0.0,0.0,0.0,0.0,0.0,-2.7799,-2.7505,-2.7703,0.0,0.0,0.0,0.0,0.0,0.0,0.0,0.0,0.0,0.0,0.0,-3.0231,0.0,0.0,-3.0404,-3.0404,-3.0404,-3.0404,-3.0404,-3.0404,-3.0404,-3.0404,-3.0404,-3.0404,-3.0404,-3.0404,-3.0712,-3.1154,-3.1737,-3.2295,-3.316,-3.4225,-3.4526,-3.4988,-3.55,-3.55,-3.55,-3.5453,-3.5096,-3.4963,-3.4926,-2.7267,-2.7129,-2.6836,-2.6485,-2.7408,-2.8848,-3.0834,-3.2374,-3.4018,0.0,-3.578,0.0,-3.7316,0.0,-3.5263,0.0,-3.5399,-3.4768,-3.4402,-3.2532,-3.1689,-3.2212,-3.008,-2.9141,-2.9669,-2.8275,-2.7263,-2.6636,-2.6044,-2.5596,0.0,0.0,0.0,0.0,0.0,-2.7371,-2.7953,-2.8871,-2.9886,0.0,0.0,-3.2703,0.0,0.0,-3.1706,-3.2122,0.0,-3.2814,-3.3705,-3.3449,-3.3526,-3.3757,-3.3814,-3.341,-3.2795,-3.2275,-3.1929,-3.1506,-3.0635,-3.1038,0.0,-2.955,-2.9569,0.0,-2.7525,0.0,0.0,0.0,0.0,0.0,0.0,0.0,0.0,-2.8794,-2.8525,-2.7909,0.0,-2.6327,0.0,0.0,0.0,0.0,0.0,0.0,-2.9794,-2.9583,0.0,0.0,0.0,0.0,-3.0404,-3.0404,-3.0404,-3.0404,-3.0404,-3.0404,-3.0404,-3.0404,-3.0404,-3.0404,-3.0404,-3.0404,-3.0712,-3.125,-3.1564,-3.2314,-3.3353,-3.3955,-3.4526,-3.5064,-3.5385,-3.55,-3.5486,-3.5304,-3.519,-3.5079,-2.8203,-2.7773,-2.7477,-2.8182,-2.9601,0.0,0.0,0.0,-3.6134,0.0,-3.7186,-3.755,-3.8293,-3.6855,-3.6168,-3.6953,-3.6268,-3.5421,-3.4614,-3.3754,0.0,-3.331,-3.1721,-3.083,-3.0895,-2.9883,-2.8551,-2.6893,-2.6689,-2.6173,0.0,0.0,0.0,0.0,-2.7082,0.0,-2.8068,-3.0531,-3.1692,-3.1952,-3.2924,-3.3716,-3.424,-3.3582,-3.3182,-3.2974,-3.2968,-3.3,-3.3154,-3.3994,-3.3699,-3.3314,-3.4981,-3.4365,-3.3006,-3.2929,-3.2391,-3.1621,-3.0712,-3.1135,-3.1429,-2.9704,0.0,0.0,0.0,0.0,-3.0154,0.0,0.0,0.0,0.0,0.0,0.0,-3.0404,-2.9679,-2.8549,0.0,0.0,0.0,0.0,0.0,0.0,0.0,-2.7582,-2.7712,-3.0096,-2.9583,0.0,0.0,0.0,-3.0442,-3.0404,-3.0442,-3.0442,-3.0404,-3.0404,-3.0404,-3.0404,-3.0404,-3.0404,-3.0404,-3.0404,-3.0404,-3.0442,-3.1269,-3.166,-3.1814,-3.341,-3.4109,-3.4225,-3.5103,-3.5462,-3.55,-3.55,-3.5346,-3.5113,-2.9219,-3.0137,-3.0918,0.0,-3.0443,-3.0814,0.0,0.0,0.0,0.0,-3.8218,-3.8551,-3.9406,-3.8507,-3.7687,-3.7257,-3.7022,0.0,0.0,0.0,0.0,-3.5026,-3.3442,-3.2861,-3.3517,-3.1336,-2.9962,-2.9516,-2.7566,0.0,-2.625,0.0,0.0,0.0,0.0,0.0,-2.7997,-2.9294,-3.0993,-3.2972,-3.4455,-3.4814,0.0,0.0,-3.4644,-3.4076,-3.3989,-3.4359,-3.4922,-3.5104,-3.5019,-3.4904,-3.5365,-3.5192,-3.4577,-3.3276,-3.3199,-3.3237,-3.1775,-3.2449,-3.3295,-3.2199,-3.2256,-3.2083,0.0,0.0,0.0,0.0,0.0,0.0,0.0,0.0,0.0,0.0,-2.9679,-2.8953,0.0,0.0,0.0,-2.7236,0.0,0.0,-2.6308,-2.7601,-2.8486,-2.8544,-2.9486,0.0,0.0,0.0,0.0,-3.0423,-3.1019,-3.1058,-3.0404,-3.0404,-3.0404,-3.0404,-3.0404,-3.0404,-3.0404,-3.0404,-3.0404,-3.0404,-3.0635,-3.1096,-3.1737,-3.216,-3.2699,-3.3314,-3.418,-3.493,-3.55,-3.55,-3.5453,-3.541,-3.0664,-3.2129,-3.3418,-3.3789,0.0,0.0,-3.4961,-3.5586,0.0,-3.8359,-3.8594,0.0,-3.9805,-3.9121,-3.8555,-3.8457,-3.8086,0.0,-3.6025,0.0,0.0,-3.527,-3.4729,-3.4477,-3.4591,-3.271,-3.137,-3.0631,-2.8334,0.0,-2.6616,0.0,0.0,0.0,0.0,-2.7464,-2.8077,-3.0127,-3.1806,-3.3274,-3.5103,0.0,0.0,-3.5357,-3.5292,-3.4573,-3.482,-3.5214,-3.5595,-3.557,-3.5528,-3.55,-3.55,-3.5231,-3.4737,-3.3757,-3.3545,-3.343,-3.2487,-3.3179,-3.3994,-3.3122,-3.3468,-3.3506,-3.1442,-3.1231,-3.116,0.0,0.0,0.0,0.0,0.0,0.0,0.0,0.0,0.0,0.0,0.0,0.0,0.0,-2.7236,0.0,-2.5423,-2.6601,-2.7563,-2.7876,-2.8775,0.0,0.0,0.0,0.0,-3.0423,-3.0885,-3.0904,-3.0404,-3.0404,-3.0404,-3.0404,-3.0404,-3.0404,-3.0404,-3.0404,-3.0404,-3.0404,-3.0404,-3.0673,-3.1154,-3.1545,-3.1968,-3.2506,-3.3725,-3.4737,-3.55,-3.55,-3.55,-3.55,-3.2539,-3.3965,0.0,0.0,0.0,0.0,0.0,-3.7051,0.0,-3.8652,0.0,-3.9238,-3.998,-3.9394,-3.9199,-3.9844,-3.9219,-3.8086,-3.6445,-3.7051,-3.6738,-3.5117,-3.5762,-3.5762,-3.4883,-3.3954,-3.2632,-3.0956,-2.9093,-2.7683,0.0,0.0,0.0,0.0,0.0,0.0,0.0,-3.1898,-3.3278,-3.339,-3.5258,-3.4995,-3.3667,-3.5369,-3.5425,-3.4713,-3.5468,-3.5683,-3.5605,-3.559,-3.5552,-3.55,-3.55,-3.4988,-3.4359,-3.4225,-3.3737,-3.3218,-3.3103,-3.3699,-3.418,-3.343,-3.4385,-3.4865,-3.241,-3.2391,-3.2429,-3.075,-3.05,-3.0769,0.0,0.0,0.0,0.0,0.0,0.0,0.0,0.0,0.0,0.0,0.0,0.0,0.0,-2.5577,-2.6212,-2.7621,-2.7934,0.0,0.0,0.0,0.0,-3.0404,-3.0519,-3.0519,-3.0404,0.0,-3.0404,-3.0404,-3.0404,-3.0404,-3.0404,-3.0404,-3.0404,-3.0404,-3.0404,-3.0404,-3.0462,-3.1212,-3.166,-3.2006,-3.3449,-3.4622,-3.5462,-3.5231,-3.5308,-3.55,-3.5156,-3.6152,0.0,0.0,0.0,-3.8398,-3.9101,-3.873,-3.8691,-3.9551,-4.0293,-4.0801,-4.0957,-4.084,-4.0527,-3.9941,-3.9766,0.0,0.0,0.0,0.0,-3.6894,-3.6992,-3.666,-3.5781,-3.4853,-3.3511,-3.1792,-3.0015,-2.8332,0.0,0.0,0.0,0.0,0.0,0.0,-3.0441,-3.2449,0.0,-3.4503,-3.5566,-3.5371,-3.4569,-3.5605,-3.5449,-3.4784,-3.5641,-3.5802,-3.559,-3.554,-3.5508,-3.55,-3.55,-3.5404,-3.5135,-3.441,-3.4603,-3.4885,-3.416,-3.4603,-3.5231,-3.5077,-3.5269,-3.5,-3.3122,-3.2795,-3.2429,-3.075,-3.0962,-3.1288,-3.0731,0.0,0.0,0.0,0.0,0.0,0.0,0.0,0.0,0.0,0.0,-2.7505,0.0,-2.7024,-2.7274,-2.6851,0.0,0.0,0.0,0.0,0.0,0.0,-3.1096,0.0,0.0,0.0,-3.0404,-3.0404,-3.0404,-3.0404,-3.0404,-3.0404,-3.0404,-3.0404,-3.0404,-3.0404,-3.0404,-3.0558,-3.1442,-3.2718,-3.3006,-3.4103,-3.5327,-3.3891,-3.4269,-3.55,-3.7754,0.0,0.0,0.0,0.0,0.0,0.0,-3.9922,-3.9941,-3.9902,-4.0273,-4.0527,-4.0527,-4.0937,-4.1035,-4.0605,-4.0566,-4.0195,-3.9336,-3.9277,-3.8672,-3.7363,-3.7305,-3.6894,-3.6016,-3.5115,-3.4018,-3.2728,-3.0534,-2.8794,0.0,0.0,0.0,0.0,0.0,-2.9375,0.0,0.0,0.0,-3.4096,-3.5449,-3.5215,-3.418,-3.5508,-3.5447,-3.4756,-3.5635,-3.5814,-3.5642,-3.5621,-3.5588,-3.5546,-3.5508,-3.55,-3.5423,-3.5007,-3.5173,-3.5404,-3.4988,-3.5173,-3.55,-3.55,-3.5154,-3.4487,-3.3199,-3.2583,-3.1929,-3.0654,-3.0731,-3.0904,-3.0481,-3.0404,0.0,0.0,0.0,0.0,0.0,0.0,-2.9923,0.0,0.0,0.0,0.0,0.0,0.0,0.0,0.0,0.0,0.0,0.0,0.0,0.0,0.0,0.0,0.0,0.0,0.0,-3.0404,-3.0404,-3.0404,-3.0404,-3.0404,-3.0404,-3.0404,-3.0404,-3.0404,-3.0442,-3.0885,-3.1545,-3.2352,-3.3237,-3.4083,-3.4718,-3.3872,-3.4391,-3.5442,-3.9629,-3.9492,0.0,0.0,-4.0059,0.0,-4.0176,-4.0762,-4.0957,-4.0273,-4.0176,-4.0176,-4.0176,-4.0781,-4.1191,-4.1191,-4.1191,-4.0918,-4.0215,-4.0176,-3.9473,-3.793,-3.7851,-3.7363,-3.6309,-3.5605,-3.4648,-3.3398,-3.1166,0.0,0.0,0.0,-2.6192,-2.6468,0.0,0.0,0.0,0.0,-3.4372,-3.399,-3.5429,-3.5176,-3.4101,-3.5488,-3.5543,-3.4997,-3.5662,-3.5855,-3.5755,-3.5758,-3.569,-3.5616,-3.5556,-3.5534,-3.5534,-3.5534,-3.5528,-3.5522,-3.5522,-3.5508,-3.55,-3.55,-3.4834,-3.3975,-3.3103,-3.2275,-3.1448,-3.0577,-3.0404,-3.0404,-3.0404,-3.0404,0.0,0.0,0.0,0.0,0.0,0.0,0.0,0.0,0.0,0.0,-2.5788,0.0,0.0,0.0,0.0,0.0,0.0,0.0,0.0,0.0,0.0,-3.0404,-3.0404,0.0,-3.0404,0.0,-3.0404,-3.0404,-3.0404,-3.0404,-3.0404,-3.0404,-3.0404,-3.0404,-3.0462,-3.1346,-3.1698,-3.1833,-3.3141,-3.3898,-3.4129,-3.3583,-3.4295,-3.5327,0.0,0.0,0.0,0.0,0.0,0.0,-4.1074,-4.1152,-4.1172,-4.1094,-4.1074,-4.1074,-4.1074,-4.1152,-4.1191,-4.1191,-4.1191,-4.1172,-4.1074,-4.1074,-4.0644,-3.9707,-3.9668,-3.8887,-3.7207,-3.7109,-3.5859,0.0,0.0,-3.1094,0.0,0.0,-2.8456,-2.9257,0.0,0.0,0.0,-3.4297,-3.5117,-3.5761,-3.5937,-3.5898,-3.5762,-3.5937,-3.5957,-3.5878,-3.5957,-3.5976,-3.5954,-3.591,-3.5797,-3.5689,-3.5682,-3.5678,-3.5678,-3.5678,-3.5644,-3.559,-3.559,-3.5546,-3.55,-3.55,-3.4834,-3.3975,-3.3103,-3.2275,-3.1448,-3.0577,-3.0404,-3.0404,-3.0404,-3.0404,-3.0404,0.0,0.0,0.0,0.0,0.0,-3.0038,-2.9107,0.0,0.0,0.0,0.0,0.0,0.0,0.0,0.0,0.0,0.0,0.0,-3.0365,0.0,-3.0404,-3.0404,-3.0404,-3.0404,-3.0404,-3.0404,-3.0404,-3.0404,-3.0404,-3.0404,-3.0404,-3.0404,-3.0404,-3.0462,-3.1346,-3.1698,-3.1718,-3.1872,-3.2852,-3.3917,-3.1621,-3.2769,-3.5154,0.0,0.0,0.0,0.0,0.0,0.0,0.0,-4.1914,-4.1914,-4.1914,-4.1504,-4.1191,-4.1191,-4.1191,-4.1191,-4.1191,-4.1191,-4.1191,-4.1191,-4.1191,-4.0801,-3.9941,-3.9902,-3.9336,-3.8105,-3.8086,-3.7051,0.0,0.0,0.0,0.0,0.0,0.0,0.0,0.0,-3.3066,-3.4238,-3.5117,-3.5684,-3.5996,-3.5996,-3.5996,-3.5996,-3.5996,-3.5996,-3.5996,-3.5996,-3.5996,-3.5996,-3.5973,-3.5893,-3.5805,-3.5723,-3.5707,-3.5707,-3.5707,-3.5678,-3.5663,-3.5663,-3.5648,-3.5611,-3.5611,-3.4996,-3.4147,-3.3285,-3.2401,-3.1516,-3.0636,-3.0428,-3.0404,-3.0404,-3.0404,-3.0404,0.0,0.0,0.0,0.0,0.0,0.0,-2.9204,0.0,-2.7563,0.0,0.0,0.0,0.0,0.0,-2.6986,-2.7857,0.0,0.0,-3.0365,0.0,-3.0404,-3.0404,-3.0404,-3.0404,-3.0404,-3.0404,-3.0404,-3.0423,-3.0942,-3.1173,-3.1154,-3.0635,-3.0692,-3.1231,-3.2083,-3.2141,-3.1795,-3.2814,-3.3295,-3.3237,-3.1737,-3.3,-3.5192,-4.3691,0.0,-4.2773,0.0,-4.2773,-4.2773,-4.2773,-4.2773,-4.2773,-4.2773,-4.2051,-4.1465,-4.123,-4.1191,-4.1191,-4.1191,-4.1191,-4.1191,-4.1191,-4.1191,-4.0937,-4.0312,-4.0273,0.0,-3.9004,-3.8984,-3.8242,-3.6758,-3.5898,0.0,0.0,-3.2168,-3.2109,0.0,-3.3535,-3.4277,-3.5117,-3.5742,-3.5996,-3.5996,-3.5996,-3.5996,-3.5996,-3.5996,-3.5996,-3.5996,-3.5996,-3.5996,-3.5996,-3.5996,-3.5973,-3.5916,-3.5825,-3.5792,-3.5792,-3.5792,-3.5777,-3.5761,-3.5761,-3.5723,-3.5707,-3.5707,-3.4889,-3.3959,-3.333,-3.2294,-3.1274,-3.0665,-3.0481,-3.0452,-3.0452,-3.0452,-3.0452,-3.0452,0.0,0.0,0.0,-3.0452,0.0,0.0,-2.842,-2.7687,-2.707,0.0,0.0,0.0,0.0,-2.7629,-2.8222,0.0,0.0,0.0,0.0,0.0,0.0,-3.0404,-3.0404,-3.0404,-3.0404,-3.0404,-3.0423,-3.1288,-3.1564,-3.1308,-3.1192,-3.1346,-3.1756,-3.2564,-3.2564,-3.2179,-3.3353,-3.3603,-3.3179,-3.2352,-3.3519,-3.525,-4.3691,-4.3691,-4.3672,-4.3672,-4.3672,-4.3672,-4.3672,-4.3672,-4.3672,-4.3672,-4.293,-4.207,-4.1289,-4.1191,-4.1191,-4.1191,-4.1191,-4.1191,-4.1191,-4.1191,-4.1191,0.0,0.0,-4.0781,-3.9902,-3.9883,-3.9453,-3.8574,0.0,0.0,-3.5918,-3.418,-3.3828,-3.4668,-3.4687,-3.5176,-3.5976,-3.5996,-3.5996,-3.5996,-3.5996,-3.5996,-3.5996,-3.5996,-3.5996,-3.5996,-3.5996,-3.5996,-3.5996,-3.5996,-3.5996,-3.5996,-3.5996,-3.5996,-3.5996,-3.5996,-3.5948,-3.5901,-3.5901,-3.5802,-3.5707,-3.5707,-3.4458,-3.3213,-3.3193,-3.187,-3.0603,-3.0603,-3.0603,-3.06,-3.06,-3.06,-3.06,-3.06,0.0,0.0,0.0,0.0,0.0,-2.9314,-2.8493,-2.7989,-2.797,0.0,0.0,0.0,0.0,-2.9134,-2.9094,0.0,0.0,-3.0365,-3.0404,0.0,-3.0404,-3.0404,-3.0404,-3.0404,-3.0404,-3.0404,-3.0423,-3.1288,-3.1231,-3.0519,-3.216,-3.2429,-3.1756,-3.2564,-3.2891,-3.2891,-3.291,-3.343,-3.409,-3.3218,-3.3987,-3.525,-4.5469,-4.5469,-4.5293,-4.4687,-4.5078,-4.5273,-4.4687,-4.459,-4.459,-4.459,-4.3828,-4.3183,-4.293,-4.1875,-4.1191,0.0,-4.1191,-4.1191,0.0,-4.1191,-4.1191,-4.1191,-4.1191,-4.1074,-4.0781,-4.0781,-4.0351,-3.9492,0.0,0.0,0.0,-3.6328,-3.5898,-3.5586,-3.5586,-3.5742,-3.5996,-3.5996,-3.5996,-3.5996,-3.5996,-3.5996,-3.5996,-3.5996,-3.5996,-3.5996,-3.5996,-3.5996,-3.5996,-3.5996,-3.5996,-3.5996,-3.5996,-3.5996,-3.5996,-3.5996,-3.5976,-3.5973,-3.5973,-3.5949,-3.5905,-3.5905,-3.5495,-3.4793,-3.3601,-3.1944,-3.0661,-3.0614,-3.0603,-3.0603,-3.0603,-3.0603,-3.0603,-3.0603,-3.0603,0.0,0.0,0.0,-3.0496,-3.0183,-2.9444,-2.8942,0.0,-2.8173,0.0,0.0,0.0,0.0,0.0,0.0,0.0,0.0,-3.0404,0.0,-3.0404,-3.0404,-3.0404,-3.0404,-3.0404,-3.0712,-3.1288,-3.1564,-3.1852,-3.2102,-3.2083,-3.2583,-3.341,-3.3686,-3.3801,-3.3801,-3.3801,-3.3955,-3.409,-3.3218,-3.4007,-3.5346,-4.6308,-4.6308,-4.6133,-4.5586,-4.5937,-4.6113,-4.5566,-4.5488,-4.5488,-4.5488,-4.4726,-4.4199,-4.4199,-4.2969,0.0,-4.2148,-4.2148,-4.1992,-4.168,-4.1641,-4.1523,-4.1211,-4.1191,-4.1191,-4.1191,-4.1191,0.0,-4.0391,-4.0059,-3.9336,-3.8262,-3.7949,-3.75,-3.6953,-3.6621,-3.6484,-3.6484,-3.6484,-3.6484,-3.6523,-3.6836,-3.6973,-3.6973,-3.6973,-3.6973,-3.6934,-3.6601,-3.6484,-3.6445,-3.6113,-3.5996,-3.5996,-3.5996,-3.5996,-3.5996,-3.5996,-3.5996,-3.5996,-3.5996,-3.5996,-3.5996,-3.5996,-3.5742,-3.5059,-3.334,-3.2067,-3.1156,-3.078,-3.0716,-3.0716,-3.0716,-3.0716,-3.0716,-3.0716,-3.0716,-3.0716,-3.0716,0.0,0.0,0.0,0.0,0.0,0.0,-2.8944,-2.8993,0.0,0.0,0.0,0.0,0.0,0.0,-3.0436,-3.043,0.0,-3.0404,-3.0404,-3.0558,-3.0885,-3.1192,-3.1462,-3.1718,-3.2006,-3.2083,-3.1987,-3.2449,-3.3045,-3.3757,-3.441,-3.468,-3.468,-3.468,-3.468,-3.4622,-3.4083,-3.4577,-3.5423,-4.6308,-4.6308,-4.6308,0.0,-4.6308,0.0,-4.6308,-4.6308,-4.6308,-4.6308,-4.5586,-4.5098,-4.5098,-4.4375,-4.3887,-4.3887,0.0,0.0,0.0,-4.248,-4.2168,-4.1406,-4.1328,-4.1289,-4.1289,-4.123,-4.1191,-4.1191,-4.0391,-3.9961,-3.9883,-3.9062,-3.8652,-3.8555,-3.7754,-3.7383,-3.7383,-3.7383,-3.7383,-3.7461,-3.8262,-3.8594,-3.8594,-3.8594,-3.8594,-3.8496,-3.7676,-3.7344,-3.7187,-3.6367,-3.6055,-3.5996,-3.5996,-3.5996,-3.5996,-3.5996,-3.5996,-3.5996,-3.5996,-3.5996,-3.5996,-3.5996,-3.5332,-3.4297,-3.2734,-3.2324,-3.2031,-3.1172,-3.0996,-3.0976,-3.0918,-3.0898,-3.0918,-3.0976,-3.0996,-3.0996,-3.0996,0.0,0.0,0.0,0.0,0.0,0.0,-2.9591,-2.9951,0.0,0.0,0.0,0.0,0.0,-3.0639,-3.0694,-3.0632,-3.0569,-3.0498,-3.0556,-3.0993,-3.1795,-3.2545,-3.2487,-3.1737,-3.2526,-3.2045,-3.0712,-3.3083,-3.3718,-3.3218,-3.4827,-3.55,-3.55,-3.55,-3.55,-3.55,-3.55,-3.55,-3.55,0.0,0.0,-4.6308,-4.6308,-4.6308,-4.6308,-4.6308,-4.6308,-4.6308,-4.6308,-4.6113,-4.5996,-4.5996,-4.5801,-4.5683,-4.5683,-4.4473,-4.3613,-4.3418,-4.3398,-4.3301,-4.3125,-4.2461,-4.2129,-4.2129,-4.1504,-4.1191,-4.1191,-4.0996,-4.0547,-3.9902,-3.9687,-3.9238,-3.8594,-3.8379,-3.8281,-3.8281,-3.8281,-3.8281,-3.8301,-3.8516,-3.8594,-3.8594,-3.8594,-3.8594,-3.8574,-3.8379,-3.7851,-3.7266,-3.7051,-3.6543,-3.5996,-3.5996,-3.5996,-3.5996,-3.5996,-3.5996,-3.5996,-3.5996,-3.5996,-3.5996,-3.5996,-3.5332,-3.4609,-3.4199,-3.3594,-3.2871,-3.2051,-3.1894,-3.1699,-3.1016,-3.0898,-3.1113,-3.1777,-3.1894,-3.1894,-3.1894,-3.1894,0.0,0.0,-3.0565,-3.0565,-3.0565,-3.0565,-3.0663,0.0,0.0,0.0,0.0,-3.1304,-3.1357,-3.2522,-3.1929,-3.1534,-3.1463,-3.2135,-3.2505,-3.2622,-3.2814,-3.2487,-3.1737,-3.2526,-3.2679,-3.2333,-3.2949,-3.3853,-3.4923,-3.5327,-3.55,-3.55,-3.55,-3.55,-3.55,-3.55,-3.55,-3.55,-4.6308,-4.6308,-4.6308,-4.6308,-4.6308,-4.6308,-4.6308,-4.6308,-4.6308,-4.6308,-4.6308,-4.6308,-4.6308,-4.6308,-4.6308,-4.6308,-4.543,-4.4726,-4.4316,-4.4297,-4.4121,-4.3711,-4.2871,-4.2402,-4.2402,-4.1601,-4.1191,-4.1191,-4.1191,-4.0957,-4.0488,-4.0488,-4.0234,-3.9766,-3.9375,-3.9199,-3.9199,-3.9199,-3.9199,-3.9238,-3.9629,-3.9785,-3.9785,-3.9785,-3.9785,-3.9746,-3.9336,-3.8887,-3.8437,-3.8027,-3.7578,-3.7187,-3.7187,-3.7187,-3.7109,-3.6719,-3.6309,-3.5996,-3.5996,-3.5996,-3.5996,-3.5996,-3.5644,-3.5195,-3.4785,-3.4336,-3.3769,-3.293,-3.2754,-3.248,-3.1641,-3.1797,-3.207,-3.2187,-3.2207,-3.2207,-3.2207,-3.1855,0.0,-3.0957,-3.0898,-3.0898,-3.0898,-3.0898,-3.0898,-3.0898,-3.0898,0.0,-3.2148,-3.1758,-3.2025,-3.32,-3.2396,-3.2091,-3.2438,-3.3309,-3.3699,-3.365,-3.3994,-3.3731,-3.2908,-3.3332,-3.3118,-3.2391,-3.316,-3.3814,-3.4365,-3.5173,-3.55,-3.55,-3.55,-3.55,-3.55,-3.55,-3.55,-3.55,-4.6308,-4.6308,-4.6308,-4.6308,-4.6308,-4.6308,-4.6308,-4.6308,-4.6308,-4.6308,-4.6308,-4.6308,-4.6308,-4.6308,-4.6308,-4.6308,-4.6308,-4.5996,-4.5234,-4.5195,-4.4863,-4.4121,-4.3262,-4.2793,-4.2793,-4.1875,-4.1387,-4.1387,-4.1269,-4.1191,-4.1191,-4.1191,-4.1191,-4.1172,-4.043,-4.0098,-4.0098,-4.0098,-4.0098,-4.0156,-4.0898,-4.1191,-4.1191,-4.1191,-4.1191,-4.1094,-4.0351,-4.0019,-3.9785,-3.9043,-3.8711,-3.8594,-3.8594,-3.8594,-3.8457,-3.7715,-3.6973,-3.6348,-3.6074,-3.5996,-3.5996,-3.5996,-3.5996,-3.5801,-3.5059,-3.4902,-3.4648,-3.3789,-3.3594,-3.3359,-3.2539,-3.2949,-3.3184,-3.248,-3.248,-3.248,-3.2246,0.0,-3.1172,-3.0937,-3.0898,-3.0898,-3.0898,-3.0898,-3.0898,-3.0898,-3.0898,-3.1289,-3.2148,-3.207,-3.2478,-3.3478,-3.2794,-3.2794,-3.3596,-3.4068,-3.4429,-3.4682,-3.5123,-3.4964,-3.4327,-3.4051,-3.3209,-3.1991,-3.341,-3.3667,-3.3218,-3.4846,-3.55,-3.55,-3.55,-3.55,-3.55,-3.55,-3.55,-3.55,-4.6308,-4.6308,-4.6308,-4.6308,-4.6308,-4.6308,-4.6308,-4.6308,-4.6308,-4.6308,-4.6308,-4.6308,-4.6308,-4.6308,-4.6308,-4.6308,-4.6308,-4.623,-4.6113,-4.6094,-4.6035,-4.5898,-4.5058,-4.4609,-4.4609,-4.3027,-4.2207,-4.2207,-4.1523,-4.1191,-4.1191,-4.1191,-4.1191,-4.1191,-4.1055,-4.0996,-4.0996,-4.0996,-4.0996,-4.1016,-4.1152,-4.1191,-4.1191,-4.1191,-4.1191,-4.1172,-4.1055,-4.0527,-3.9883,-3.9746,-3.9219,-3.8594,-3.8594,-3.8594,-3.8574,-3.8437,-3.8301,-3.7871,-3.6406,-3.5996,-3.5996,-3.5996,-3.5996,-3.5957,-3.582,-3.5801,-3.5547,-3.4687,-3.4492,-3.4238,-3.3379,-3.332,-3.3359,-3.3223,-3.3828,-3.3828,-3.2402,0.0,-3.248,-3.1074,-3.0898,-3.0898,-3.0898,-3.0898,-3.0898,-3.0898,-3.0898,-3.1289,-3.2148,-3.1504,-3.2148,-3.4413,-3.4355,-3.466,-3.5465,-3.4094,-3.4101,-3.5493,-3.4205,-3.3891,-3.4425,-3.2937,-3.2497,-3.2885,-3.3093,-3.3506,-3.409,-3.5077,-3.55,-3.55,-3.55,-3.55,-3.55,-3.55,-3.55,-3.55,-4.6082,-4.6138,-4.6191,-4.6198,-4.6247,-4.6308,-4.6308,-4.6308,-4.6308,-4.6308,-4.6308,-4.6308,-4.6308,-4.6308,-4.6308,-4.6308,-4.6308,-4.6308,-4.6308,-4.6308,-4.6308,-4.6308,-4.5469,-4.4785,-4.4316,-4.3516,-4.2871,-4.2402,-4.2031,-4.1621,-4.1191,-4.1191,-4.1191,-4.1191,-4.1191,-4.1191,-4.1191,-4.1191,-4.1191,-4.1191,-4.1191,-4.1191,-4.1191,-4.1191,-4.1191,-4.1191,-4.1191,-4.0937,-4.0605,-4.0605,-4.0332,-4.0,-4.0,-4.0,-3.9902,-3.9434,-3.8965,-3.8418,-3.7617,-3.7051,-3.6699,-3.6699,-3.6348,-3.5996,-3.5996,-3.5996,-3.5898,-3.5488,-3.5391,-3.5137,-3.4258,-3.4473,-3.4648,-3.418,-3.4434,0.0,0.0,-3.2793,-3.2285,-3.1055,-3.0898,-3.0898,-3.0898,-3.0898,-3.0898,-3.0898,-3.0898,-3.1289,-3.2148,-3.2226,-3.3008,-3.4648,-3.4707,-3.5097,-3.5949,-3.4652,-3.4623,-3.585,-3.5071,-3.4903,-3.5225,-3.4421,-3.3977,-3.388,-3.4276,-3.4421,-3.4434,-3.5258,-3.5606,-3.5606,-3.5606,-3.5606,-3.5606,-3.5606,-3.5606,-3.5606,-4.5899,-4.5983,-4.6044,-4.6045,-4.6144,-4.6223,-4.6247,-4.6248,-4.6268,-4.6308,-4.6308,-4.6308,-4.6308,-4.6308,-4.6308,-4.6308,-4.6308,-4.6308,-4.6308,-4.6308,-4.6308,-4.6308,-4.5664,-4.498,-4.4316,-4.4101,-4.3672,-4.3008,-4.2598,-4.207,-4.1465,-4.1289,-4.1191,-4.1191,-4.1191,-4.1191,-4.1191,-4.1191,-4.1191,-4.1191,-4.1191,-4.1191,-4.1191,-4.1191,-4.1191,-4.1191,-4.1191,-4.1191,-4.1191,-4.1191,-4.1191,-4.1191,-4.1191,-4.1191,-4.1074,-4.0391,-3.9726,-3.9121,-3.8711,-3.8105,-3.7559,-3.7344,-3.6797,-3.625,-3.6055,-3.5996,-3.5996,-3.5996,-3.5996,-3.5801,-3.5137,-3.5547,-3.5703,-3.4844,0.0,0.0,0.0,-3.2871,-3.2168,-3.1309,-3.1016,-3.0898,-3.0898,-3.0898,-3.0898,-3.0898,-3.1094,-3.1484,-3.2168,-3.2969,-3.3809,-3.4668,-3.4707,-3.5117,-3.5996,-3.5137,-3.5137,-3.5996,-3.5781,-3.5779,-3.5917,-3.5506,-3.5036,-3.4556,-3.5171,-3.5084,-3.4565,-3.5376,-3.5707,-3.5707,-3.5707,-3.5707,-3.5707,-3.5707,-3.5707,-3.5707,-4.5899,-4.5903,-4.5907,-4.5912,-4.592,-4.5978,-4.6106,-4.6115,-4.615,-4.6289,-4.6308,-4.6308,-4.6308,-4.6308,-4.6308,-4.6308,-4.6308,-4.6308,-4.6308,-4.6308,-4.6308,-4.6308,-4.623,-4.6172,-4.6113,-4.5312,-4.4863,-4.4805,-4.3183,-4.2363,-4.2305,-4.1543,-4.1191,-4.1191,-4.1191,-4.1191,-4.1191,-4.1191,-4.1191,-4.1191,-4.1191,-4.1191,-4.1191,-4.1191,-4.1191,-4.1191,-4.1191,-4.1191,-4.1191,-4.1191,-4.1191,-4.1191,-4.1191,-4.1191,-4.1191,-4.1113,-4.1055,-4.0664,-3.9043,-3.8555,-3.8301,-3.75,-3.7246,-3.6992,-3.6172,-3.5996,-3.5996,-3.5996,-3.5996,-3.5976,-3.5918,-3.5957,-3.5703,-3.4844,0.0,0.0,-3.3633,-3.3359,-3.3008,-3.2207,-3.1387,-3.0898,-3.0898,-3.0898,-3.0898,-3.0898,-3.1641,-3.2129,-3.2207,-3.2969,-3.3809,-3.4668,-3.4707,-3.5117,-3.5996,-3.5137,-3.5137,-3.5996,-3.5176,-3.5215,-3.5937,-3.4316,-3.396,-3.4599,-3.4669,-3.4601,-3.4565,-3.5376,-3.5707,-3.5707,-3.5707,-3.5707,-3.5707,-3.5707,-3.5707,-3.5707,-4.5715,-4.5715,-4.5731,-4.5819,-4.5839,-4.5872,-4.5967,-4.5981,-4.5992,-4.6042,-4.6119,-4.6174,-4.6174,-4.6247,-4.6308,-4.6308,-4.6308,-4.6308,-4.6308,-4.6308,-4.6308,-4.6308,-4.6308,-4.6308,-4.6308,-4.5976,-4.5547,-4.5,-4.4336,-4.373,-4.3203,-4.2891,-4.2754,-4.2734,-4.2187,-4.1933,-4.1914,-4.1406,-4.1191,-4.1191,-4.1191,-4.1191,-4.1191,-4.1191,-4.1191,-4.1191,-4.1191,-4.1191,-4.1191,-4.1191,-4.1191,-4.1191,-4.1191,-4.1191,-4.1191,-4.1191,-4.1191,-4.1055,-4.0391,-3.9824,-3.9336,-3.9004,-3.8105,-3.7207,-3.6875,-3.6387,-3.5996,-3.5996,-3.5996,-3.5996,-3.5996,-3.5996,-3.5898,-3.5566,0.0,-3.4766,-3.3574,-3.2969,-3.2344,-3.1484,-3.1094,-3.0898,-3.0898,-3.0898,-3.1113,-3.168,-3.2012,-3.2656,-3.3691,-3.4551,-3.4922,-3.4707,-3.4707,-3.5117,-3.5996,-3.5137,-3.5137,-3.5996,-3.5664,-3.5684,-3.5976,-3.5312,-3.5175,-3.5465,-3.5464,-3.544,-3.5451,-3.5762,-3.5899,-3.5899,-3.5899,-3.5899,-3.5899,-3.5899,-3.5899,-3.5899,-4.5594,-4.5594,-4.5627,-4.573,-4.5749,-4.5777,-4.5866,-4.5862,-4.5877,-4.5894,-4.5981,-4.6039,-4.6039,-4.617,-4.6246,-4.6246,-4.6288,-4.6308,-4.6308,-4.6308,-4.6308,-4.6308,-4.6308,-4.6308,-4.6308,-4.6308,-4.6016,-4.541,-4.5137,-4.4687,-4.4101,-4.3828,-4.3691,-4.3672,-4.3086,-4.2812,-4.2773,-4.2226,-4.1836,-4.1582,-4.1582,-4.1426,-4.1191,-4.1191,-4.1191,-4.1191,-4.1191,-4.1191,-4.1191,-4.1191,-4.1191,-4.1191,-4.1191,-4.1191,-4.1191,-4.1191,-4.1191,-4.1191,-4.1191,-4.0762,-4.0234,-3.9961,-3.9004,-3.7969,-3.7422,-3.6836,-3.6328,-3.6055,-3.5996,-3.5996,-3.5996,-3.5996,-3.5996,-3.5996,-3.5508,-3.4902,-3.4297,-3.3516,-3.2754,-3.2168,-3.1855,-3.1699,-3.1699,-3.1699,-3.1934,-3.2539,-3.2832,-3.3496,-3.4648,-3.5273,-3.5312,-3.4726,-3.4707,-3.5117,-3.5996,-3.5137,-3.5137,-3.5996,-3.5996,-3.5996,-3.5996,-3.5996,-3.5996,-3.5996,-3.5996,-3.5996,-3.5996,-3.5996,-3.5996,-3.5996,-3.5996,-3.5996,-3.5996,-3.5996,-3.5996,-3.5996,-4.5594,-4.5594,-4.5594,-4.5594,-4.5594,-4.5651,-4.5769,-4.5796,-4.582,-4.5881,-4.5899,-4.5899,-4.5899,-4.6027,-4.6108,-4.6108,-4.6223,-4.6308,-4.6308,-4.6308,-4.6308,-4.6308,-4.6308,-4.6308,-4.6308,-4.6308,-4.6308,-4.6308,-4.543,-4.5019,-4.498,-4.4121,-4.3711,-4.3711,-4.3711,-4.3711,-4.3711,-4.3691,-4.3203,-4.2402,-4.2402,-4.1933,-4.1211,-4.1211,-4.1211,-4.1191,-4.1191,-4.1191,-4.1191,-4.1191,-4.1191,-4.1191,-4.1191,-4.1191,-4.1191,-4.1191,-4.1191,-4.1191,-4.1191,-4.1191,-4.0996,-4.0117,-3.9902,-3.9434,-3.7695,-3.7305,-3.7051,-3.6172,-3.5996,-3.5996,-3.5996,-3.5996,-3.5996,-3.5996,-3.5996,-3.5996,-3.5996,-3.5234,-3.4687,-3.4687,-3.3926,-3.3398,-3.3398,-3.3398,-3.3398,-3.3418,-3.4219,-3.4707,-3.4707,-3.4707,-3.4707,-3.4707,-3.4707,-3.5137,-3.5996,-3.5137,-3.5137,-3.5996,-3.5996,-3.5996,-3.5996,-3.5996,-3.5996,-3.5996,-3.5996,-3.5996,-3.5996,-3.5996,-3.5996,-3.5996,-3.5996,-3.5996,-3.5996,-3.5996,-3.5996,-3.5996,-4.5594,-4.5594,-4.5594,-4.5594,-4.5594,-4.5612,-4.564,-4.5657,-4.5673,-4.5696,-4.5764,-4.5832,-4.5832,-4.59,-4.5995,-4.6087,-4.6144,-4.62,-4.6289,-4.6308,-4.6308,-4.6308,-4.6308,-4.6308,-4.6308,-4.6308,-4.6308,-4.6308,-4.6035,-4.5918,-4.5918,-4.5644,-4.5527,-4.5508,-4.4883,-4.4609,-4.457,-4.3965,-4.3555,-4.3301,-4.3301,-4.2793,-4.2031,-4.2031,-4.1699,-4.1191,-4.1191,-4.1191,-4.1191,-4.1191,-4.1191,-4.1191,-4.1191,-4.1191,-4.1191,-4.1191,-4.1191,-4.1191,-4.1191,-4.1191,-4.0996,-4.0117,-3.9902,-3.9434,-3.7695,-3.7305,-3.7051,-3.6172,-3.5996,-3.5996,-3.5996,-3.5996,-3.5996,-3.5996,-3.5488,-3.5098,-3.5098,-3.4336,-3.3789,-3.3789,-3.3555,-3.3398,-3.3398,-3.3398,-3.3652,-3.4277,-3.5117,-3.5351,-3.4726,-3.5273,-3.5332,-3.4726,-3.5293,-3.5742,-3.5996,-3.5742,-3.5742,-3.5996,-3.5996,-3.5996,-3.5996,-3.5996,-3.5996,-3.5996,-3.5996,-3.5996,-3.5996,-3.5996,-3.5996,-3.5996,-3.5996,-3.5996,-3.5996,-3.5996,-3.5996,-3.5996,-4.5594,-4.5594,-4.5594,-4.5594,-4.5594,-4.5594,-4.5594,-4.5594,-4.5594,-4.5594,-4.5673,-4.573,-4.573,-4.5795,-4.5896,-4.5967,-4.6008,-4.6067,-4.6144,-4.6145,-4.6145,-4.6145,-4.6199,-4.6247,-4.6308,-4.6308,-4.6308,-4.6308,-4.6308,-4.6308,-4.6308,-4.6308,-4.6308,-4.6289,-4.5742,-4.5508,-4.5488,-4.4941,-4.4531,-4.4219,-4.4219,-4.3691,-4.291,-4.291,-4.2402,-4.168,-4.168,-4.1465,-4.1191,-4.1191,-4.1191,-4.1191,-4.1191,-4.1191,-4.1191,-4.1191,-4.1191,-4.1191,-4.1191,-4.1191,-4.0996,-4.0117,-4.0156,-3.9863,-3.7773,-3.7578,-3.7461,-3.625,-3.5996,-3.5996,-3.5996,-3.5996,-3.5996,-3.5996,-3.5566,-3.5215,-3.5215,-3.4766,-3.4434,-3.4434,-3.4434,-3.4434,-3.4434,-3.4434,-3.4648,-3.5176,-3.5703,-3.5625,-3.4746,-3.5527,-3.5605,-3.4726,-3.5547,-3.5996,-3.5996,-3.5996,-3.5996,-3.5996,-3.5996,-3.5996,-3.5996,-3.5996,-3.5996,-3.5996,-3.5996,-3.5996,-3.5996,-3.5996,-3.5996,-3.5996,-3.5996,-3.5996,-3.5996,-3.5996,-3.5996,-3.5996,-4.5594,-4.5594,-4.5594,-4.5594,-4.5594,-4.5594,-4.5594,-4.5594,-4.5594,-4.5594,-4.5594,-4.5594,-4.5594,-4.5708,-4.5783,-4.5796,-4.5866,-4.5899,-4.5899,-4.5899,-4.5899,-4.5899,-4.6027,-4.6144,-4.6268,-4.6288,-4.6289,-4.6308,-4.6289,-4.6289,-4.6308,-4.6308,-4.6308,-4.6308,-4.6308,-4.6308,-4.6308,-4.6308,-4.584,-4.5117,-4.5117,-4.459,-4.3828,-4.3828,-4.3281,-4.2519,-4.2519,-4.1992,-4.1289,-4.1211,-4.1191,-4.1191,-4.1191,-4.1191,-4.1191,-4.1191,-4.1191,-4.1191,-4.1191,-4.1191,-4.0996,-4.0117,-4.0566,-4.0527,-3.7891,-3.791,-3.8008,-3.6348,-3.5996,-3.5996,-3.5996,-3.5996,-3.5996,-3.5996,-3.5996,-3.5996,-3.5996,-3.5996,-3.5996,-3.5996,-3.5996,-3.5996,-3.5996,-3.5996,-3.5996,-3.5996,-3.5996,-3.5644,-3.4863,-3.5566,-3.5644,-3.4844,-3.5586,-3.5996,-3.5996,-3.5996,-3.5996,-3.5996,-3.5996,-3.5996,-3.5996,-3.5996,-3.5996,-3.5996,-3.5996,-3.5996,-3.5996,-3.5996,-3.5996,-3.5996,-3.5996,-3.5996,-3.5996,-3.5996,-3.5996,-3.5996,-4.5594,-4.5594,-4.5594,-4.5594,-4.5594,-4.5594,-4.5594,-4.5594,-4.5594,-4.5594,-4.5594,-4.5594,-4.5594,-4.5637,-4.5696,-4.579,-4.5866,-4.5899,-4.5899,-4.5899,-4.5899,-4.5899,-4.5924,-4.5967,-4.5988,-4.6084,-4.6199,-4.6308,-4.6199,-4.62,-4.6308,-4.6308,-4.6308,-4.6308,-4.6308,-4.6308,-4.6308,-4.6308,-4.6191,-4.6016,-4.6016,-4.5508,-4.4726,-4.4726,-4.418,-4.3418,-4.3363,-4.2823,-4.2031,-4.1294,-4.1106,-4.1171,-4.1078,-4.1126,-4.1191,-4.1191,-4.1191,-4.1191,-4.1191,-4.1191,-4.0996,-4.0117,-4.0566,-4.0527,-3.7891,-3.7441,-3.7285,-3.6211,-3.5996,-3.5996,-3.5996,-3.5996,-3.5996,-3.5996,-3.5996,-3.5996,-3.5996,-3.5996,-3.5996,-3.5996,-3.5996,-3.5996,-3.5996,-3.5996,-3.5996,-3.5996,-3.5996,-3.5918,-3.5723,-3.5898,-3.5918,-3.5723,-3.5898,-3.5996,-3.5996,-3.5996,-3.5996,-3.5996,-3.5996,-3.5996,-3.5996,-3.5996,-3.5996,-3.5996,-3.5996,-3.5996,-3.5996,-3.5996,-3.5996,-3.5996,-3.5996,-3.5996,-3.5996,-3.5996,-3.5996,-3.5996,-4.5594,-4.5594,-4.5594,-4.5594,-4.5594,-4.5594,-4.5594,-4.5594,-4.5594,-4.5594,-4.5594,-4.5594,-4.5594,-4.5594,-4.5618,-4.5692,-4.5736,-4.5751,-4.5751,-4.5751,-4.5751,-4.5751,-4.583,-4.5845,-4.5845,-4.5915,-4.6017,-4.6113,-4.6039,-4.6039,-4.6113,-4.6113,-4.6113,-4.6113,-4.6113,-4.6145,-4.6201,-4.6201,-4.6246,-4.6308,-4.6308,-4.6035,-4.5625,-4.5625,-4.5078,-4.4316,-4.4213,-4.3609,-4.2804,-4.2301,-4.1925,-4.1616,-4.1543,-4.1284,-4.1019,-4.1019,-4.1054,-4.1082,-4.1025,-4.1103,-4.1074,-4.0541,-4.0505,-4.0,-3.7793,-3.7617,-3.7559,-3.6269,-3.5996,-3.5996,-3.5996,-3.5996,-3.5996,-3.5996,-3.5996,-3.5996,-3.5996,-3.5996,-3.5996,-3.5996,-3.5996,-3.5996,-3.5996,-3.5996,-3.5996,-3.5996,-3.5996,-3.5996,-3.5996,-3.5996,-3.5996,-3.5996,-3.5996,-3.5996,-3.5996,-3.5996,-3.5996,-3.5996,-3.5996,-3.5996,-3.5996,-3.5996,-3.5996,-3.5996,-3.5996,-3.5996,-3.5996,-3.5996,-3.5996,-3.5996,-3.5996,-3.5996,-3.5996,-3.5996,-3.5996,-3.5996,-4.5594,-4.5594,-4.5594,-4.5594,-4.5594,-4.5594,-4.5594,-4.5594,-4.5594,-4.5594,-4.5594,-4.5594,-4.5594,-4.5594,-4.5594,-4.5594,-4.5594,-4.5594,-4.5594,-4.5594,-4.5594,-4.5594,-4.5708,-4.5775,-4.5775,-4.5775,-4.5814,-4.5899,-4.59,-4.59,-4.5899,-4.5899,-4.5899,-4.5899,-4.5899,-4.5971,-4.6072,-4.6072,-4.612,-4.6226,-4.6267,-4.6268,-4.6268,-4.6268,-4.5839,-4.5195,-4.5043,-4.4407,-4.3605,-4.345,-4.2929,-4.2322,-4.2304,-4.1807,-4.1225,-4.107,-4.1107,-4.1125,-4.0859,-4.0959,-4.1104,-4.0992,-4.0504,-3.9644,-3.8042,-3.8163,-3.8184,-3.6738,-3.6445,-3.6406,-3.625,-3.6211,-3.6172,-3.6016,-3.5996,-3.5996,-3.5996,-3.5996,-3.5996,-3.5996,-3.5996,-3.5996,-3.5996,-3.5996,-3.5996,-3.5996,-3.5996,-3.5996,-3.5996,-3.5996,-3.5996,-3.5996,-3.5996,-3.5996,-3.5996,-3.5996,-3.5996,-3.5996,-3.5996,-3.5996,-3.5996,-3.5996,-3.5996,-3.5996,-3.5996,-3.5996,-3.5996,-3.5996,-3.5996,-3.5996,-3.5996,-3.5996,-3.5996,-3.5996,-3.5996,-3.5996,-4.5594,-4.5594,-4.5594,-4.5594,-4.5594,-4.5594,-4.5594,-4.5594,-4.5594,-4.5594,-4.5594,-4.5594,-4.5594,-4.5594,-4.5594,-4.5594,-4.5594,-4.5594,-4.5594,-4.5594,-4.5594,-4.5594,-4.562,-4.5637,-4.5637,-4.5637,-4.5708,-4.5899,-4.5842,-4.5847,-4.5899,-4.5899,-4.5899,-4.5899,-4.5899,-4.5907,-4.5924,-4.5924,-4.5932,-4.5951,-4.608,-4.614,-4.614,-4.614,-4.6122,-4.6092,-4.5829,-4.5226,-4.4411,-4.3657,-4.3322,-4.3199,-4.3086,-4.3052,-4.2905,-4.2151,-4.193,-4.1786,-4.1015,-4.0839,-4.0854,-4.0824,-4.0749,-4.0429,-3.9507,-3.8936,-3.8535,-3.8301,-3.8242,-3.8027,-3.7266,-3.7129,-3.6875,-3.6113,-3.5996,-3.5996,-3.5996,-3.5996,-3.5996,-3.5996,-3.5996,-3.5996,-3.5996,-3.5996,-3.5996,-3.5996,-3.5996,-3.5996,-3.5996,-3.5996,-3.5996,-3.5996,-3.5996,-3.5996,-3.5996,-3.5996,-3.5996,-3.5996,-3.5996,-3.5996,-3.5996,-3.5996,-3.5996,-3.5996,-3.5996,-3.5996,-3.5996,-3.5996,-3.5996,-3.5996,-3.5996,-3.5996,-3.5996,-3.5996,-3.5996,-3.5996,-4.5594,-4.5594,-4.5594,-4.5594,-4.5594,-4.5594,-4.5594,-4.5594,-4.5594,-4.5594,-4.5594,-4.5594,-4.5594,-4.5594,-4.5594,-4.5594,-4.5594,-4.5594,-4.5594,-4.5594,-4.5594,-4.5594,-4.5594,-4.5594,-4.5594,-4.5594,-4.5629,-4.5731,-4.5703,-4.5703,-4.5731,-4.5731,-4.5731,-4.5731,-4.5731,-4.5764,-4.5847,-4.5847,-4.5876,-4.5903,-4.5951,-4.5988,-4.5988,-4.5988,-4.603,-4.6067,-4.5901,-4.5576,-4.5137,-4.4756,-4.4305,-4.3898,-4.3839,-4.354,-4.3157,-4.277,-4.2683,-4.2516,-4.1601,-4.145,-4.1403,-4.0869,-4.077,-4.07,-4.0346,-4.0042,-3.9557,-3.8638,-3.8424,-3.8307,-3.7934,-3.7451,-3.7014,-3.6664,-3.6163,-3.602,-3.6547,-3.6163,-3.5866,-3.5945,-3.5946,-3.5951,-3.5996,-3.5996,-3.5996,-3.5996,-3.5996,-3.5996,-3.5996,-3.5996,-3.6211,-3.6719,-3.625,-3.623,-3.6719,-3.623,-3.5996,-3.5996,-3.5996,-3.5996,-3.5996,-3.5996,-3.5996,-3.5996,-3.5996,-3.5996,-3.5996,-3.5996,-3.5996,-3.5996,-3.5996,-3.5996,-3.5996,-3.5996,-3.5996,-3.5996]},{"header":{"parameterUnit":"m.s-1","parameterCategory":1,"la1":30.6,"la2":28.766,"lo1":-90.7593,"lo2":-88.6598,"dy":0.0162,"dx":0.0183,"nx":116,"ny":114,"refTime":"2024-06-27T06:00:00:Z","depth":0,"parameterNumber":3,"parameterNumberName":"V-component_of_WINDS"},"data":[0.0,0.0,0.0,0.0,0.0,0.0,0.0,0.0,0.0,0.0,0.0,0.0,0.0,0.0,0.0,0.0,0.0,0.0,0.0,0.0,0.0,0.0,0.0,0.0,0.0,0.0,0.0,0.0,0.0,0.0,0.0,0.0,0.0,0.0,0.0,0.0,0.0,0.0,0.0,0.0,0.0,0.0,0.0,0.0,0.0,0.0,0.0,0.0,0.0,0.0,0.0,0.0,0.0,0.0,0.0,0.0,0.0,0.0,0.0,0.0,0.0,0.0,0.0,0.0,0.0,0.0,0.0,0.0,0.0,0.0,0.0,0.0,0.0,0.0,0.0,0.0,0.0,0.0,0.0,0.0,0.0,0.0,0.0,0.0,0.0,0.0,0.0,0.0,0.0,0.0,0.0,0.0,0.0,0.0,0.0,0.0,0.0,0.0,0.0,0.0,0.0,0.0,0.0,0.0,0.0,0.0,0.0,0.0,0.0,0.0,0.0,0.0,0.0,0.0,0.0,0.0,0.0,0.0,0.0,0.0,0.0,0.0,0.0,0.0,0.0,0.0,0.0,0.0,0.0,0.0,0.0,0.0,0.0,0.0,0.0,0.0,0.0,0.0,0.0,0.0,0.0,0.0,0.0,0.0,0.0,0.0,0.0,0.0,0.0,0.0,0.0,0.0,0.0,0.0,0.0,0.0,0.0,0.0,0.0,0.0,0.0,0.0,0.0,0.0,0.0,0.0,0.0,0.0,0.0,0.0,0.0,0.0,0.0,0.0,0.0,0.0,0.0,0.0,0.0,0.0,0.0,0.0,0.0,0.0,0.0,0.0,0.0,0.0,0.0,0.0,0.0,0.0,0.0,0.0,0.0,0.0,0.0,0.0,0.0,0.0,0.0,0.0,0.0,0.0,0.0,0.0,0.0,0.0,0.0,0.0,0.0,0.0,0.0,0.0,0.0,0.0,0.0,0.0,0.0,0.0,0.0,0.0,0.0,0.0,0.0,0.0,0.0,0.0,0.0,0.0,0.0,0.0,0.0,0.0,0.0,0.0,0.0,0.0,0.0,0.0,0.0,0.0,0.0,0.0,0.0,0.0,0.0,0.0,0.0,0.0,0.0,0.0,0.0,0.0,0.0,0.0,0.0,0.0,0.0,0.0,0.0,0.0,0.0,0.0,0.0,0.0,0.0,0.0,0.0,0.0,0.0,0.0,0.0,0.0,0.0,0.0,0.0,0.0,0.0,0.0,0.0,0.0,0.0,0.0,0.0,0.0,0.0,0.0,0.0,0.0,0.0,0.0,0.0,0.0,0.0,0.0,0.0,0.0,0.0,0.0,0.0,0.0,0.0,0.0,0.0,0.0,0.0,0.0,0.0,0.0,0.0,0.0,0.0,0.0,0.0,0.0,0.0,0.0,0.0,0.0,0.0,0.0,0.0,0.0,0.0,0.0,0.0,0.0,0.0,0.0,0.0,0.0,0.0,0.0,0.0,0.0,0.0,0.0,0.0,0.0,0.0,0.0,0.0,0.0,0.0,0.0,0.0,0.0,0.0,0.0,0.0,0.0,0.0,0.0,0.0,0.0,0.0,0.0,0.0,0.0,0.0,0.0,0.0,0.0,0.0,0.0,0.0,0.0,0.0,0.0,0.0,0.0,0.0,0.0,0.0,0.0,0.0,0.0,0.0,0.0,0.0,0.0,0.0,0.0,0.0,0.0,0.0,0.0,0.0,0.0,0.0,0.0,0.0,0.0,0.0,0.0,0.0,0.0,0.0,0.0,0.0,0.0,0.0,0.0,0.0,0.0,0.0,0.0,0.0,0.0,0.0,0.0,0.0,0.0,0.0,0.0,0.0,0.0,0.0,0.0,0.0,0.0,0.0,0.0,0.0,0.0,0.0,0.0,0.0,0.0,0.0,0.0,0.0,0.0,0.0,0.0,0.0,0.0,0.0,0.0,0.0,0.0,0.0,0.0,0.0,0.0,0.0,0.0,0.0,0.0,0.0,0.0,0.0,0.0,0.0,0.0,0.0,0.0,0.0,0.0,0.0,0.0,0.0,0.0,0.0,0.0,0.0,0.0,0.0,0.0,0.0,0.0,0.0,0.0,0.0,0.0,0.0,0.0,0.0,0.0,0.0,0.0,0.0,0.0,0.0,0.0,0.0,0.0,0.0,0.0,0.0,0.0,0.0,0.0,0.0,0.0,0.0,0.0,0.0,0.0,0.0,0.0,0.0,0.0,0.0,0.0,0.0,0.0,0.0,0.0,0.0,0.0,0.0,0.0,0.0,0.0,0.0,0.0,0.0,0.0,0.0,0.0,0.0,0.0,0.0,0.0,0.0,0.0,0.0,0.0,0.0,0.0,0.0,0.0,0.0,0.0,0.0,0.0,0.0,0.0,0.0,0.0,0.0,0.0,0.0,0.0,0.0,0.0,0.0,0.0,0.0,0.0,0.0,0.0,0.0,0.0,0.0,0.0,0.0,0.0,0.0,0.0,0.0,0.0,0.0,0.0,0.0,0.0,0.0,0.0,0.0,0.0,0.0,0.0,0.0,0.0,0.0,0.0,0.0,0.0,0.0,0.0,0.0,0.0,0.0,0.0,0.0,0.0,0.0,0.0,0.0,0.0,0.0,0.0,0.0,0.0,0.0,0.0,0.0,0.0,0.0,0.0,0.0,0.0,0.0,0.0,0.0,0.0,0.0,0.0,0.0,0.0,0.0,0.0,0.0,0.0,0.0,0.0,0.0,0.0,0.0,0.0,0.0,0.0,0.0,0.0,0.0,0.0,0.0,0.0,0.0,0.0,0.0,0.0,0.0,0.0,0.0,0.0,0.0,0.0,0.0,0.0,0.0,0.0,0.0,0.0,0.0,0.0,0.0,0.0,0.0,0.0,0.0,0.0,0.0,0.0,0.0,0.0,0.0,0.0,0.0,0.0,0.0,0.0,0.0,0.0,0.0,0.0,0.0,0.0,0.0,0.0,0.0,0.0,0.0,0.0,0.0,0.0,0.0,0.0,0.0,0.0,0.0,0.0,0.0,0.0,0.0,0.0,0.0,0.0,0.0,0.0,0.0,0.0,0.0,0.0,0.0,0.0,0.0,0.0,0.0,0.0,0.0,0.0,0.0,0.0,0.0,0.0,0.0,0.0,0.0,0.0,0.0,0.0,0.0,0.0,0.0,0.0,0.0,0.0,0.0,0.0,0.0,0.0,0.0,0.0,0.0,0.0,0.0,0.0,0.0,0.0,0.0,0.0,0.0,0.0,0.0,0.0,0.0,0.0,0.0,0.0,0.0,0.0,0.0,0.0,0.0,0.0,0.0,0.0,0.0,0.0,0.0,0.0,0.0,0.0,0.0,0.0,0.0,0.0,0.0,0.0,0.0,0.0,0.0,0.0,0.0,0.0,0.0,0.0,0.0,0.0,0.0,0.0,0.0,0.0,0.0,0.0,0.0,0.0,0.0,0.0,0.0,0.0,0.0,0.0,0.0,0.0,0.0,0.0,0.0,0.0,0.0,0.0,0.0,0.0,0.0,0.0,0.0,0.0,0.0,0.0,0.0,0.0,0.0,0.0,0.0,0.0,0.0,0.0,0.0,0.0,0.0,0.0,0.0,0.0,0.0,0.0,0.0,0.0,0.0,0.0,0.0,0.0,0.0,0.0,0.0,0.0,0.0,0.0,0.0,0.0,0.0,0.0,0.0,0.0,0.0,0.0,0.0,0.0,0.0,0.0,0.0,0.0,0.0,0.0,0.0,0.0,0.0,0.0,0.0,0.0,0.0,0.0,0.0,0.0,0.0,0.0,0.0,0.0,0.0,0.0,0.0,0.0,0.0,0.0,0.0,0.0,0.0,0.0,0.0,0.0,0.0,0.0,0.0,0.0,0.0,0.0,0.0,0.0,0.0,0.0,0.0,0.0,0.0,0.0,0.0,0.0,0.0,0.0,0.0,0.0,0.0,0.0,0.0,0.0,0.0,0.0,0.0,0.0,0.0,0.0,0.0,0.0,0.0,0.0,0.0,0.0,0.0,0.0,0.0,0.0,0.0,0.0,0.0,0.0,0.0,0.0,0.0,0.0,0.0,0.0,0.0,0.0,0.0,0.0,0.0,0.0,0.0,0.0,0.0,0.0,0.0,0.0,0.0,0.0,0.0,0.0,0.0,0.0,0.0,0.0,0.0,0.0,0.0,0.0,0.0,0.0,0.0,0.0,0.0,0.0,0.0,0.0,0.0,0.0,0.0,0.0,0.0,0.0,0.0,0.0,0.0,0.0,0.0,0.0,0.0,0.0,0.0,0.0,0.0,0.0,0.0,0.0,0.0,0.0,0.0,0.0,0.0,0.0,0.0,0.0,0.0,0.0,0.0,0.0,0.0,0.0,0.0,0.0,0.0,0.0,0.0,0.0,0.0,0.0,0.0,0.0,0.0,0.0,0.0,0.0,0.0,0.0,0.0,0.0,0.0,0.0,0.0,0.0,0.0,0.0,0.0,0.0,0.0,0.0,0.0,0.0,0.0,0.0,0.0,0.0,0.0,0.0,0.0,0.0,0.0,0.0,0.0,0.0,0.0,0.0,0.0,0.0,0.0,0.0,0.0,0.0,0.0,0.0,0.0,0.0,0.0,0.0,0.0,0.0,0.0,0.0,0.0,0.0,0.0,0.0,0.0,0.0,0.0,0.0,0.0,0.0,0.0,0.0,0.0,0.0,0.0,0.0,0.0,0.0,0.0,0.0,0.0,0.0,0.0,0.0,0.0,0.0,0.0,0.0,0.0,0.0,0.0,0.0,0.0,0.0,0.0,0.0,0.0,0.0,0.0,0.0,0.0,0.0,0.0,0.0,0.0,0.0,0.0,0.0,0.0,0.0,0.0,0.0,0.0,0.0,0.0,0.0,0.0,0.0,0.0,0.0,0.0,0.0,0.0,0.0,0.0,0.0,0.0,0.0,0.0,0.0,0.0,0.0,0.0,0.0,0.0,0.0,0.0,0.0,0.0,0.0,0.0,0.0,0.0,0.0,0.0,0.0,0.0,0.0,0.0,0.0,0.0,0.0,0.0,0.0,0.0,0.0,0.0,0.0,0.0,0.0,0.0,0.0,0.0,0.0,0.0,0.0,0.0,0.0,0.0,0.0,0.0,0.0,0.0,0.0,0.0,0.0,0.0,0.0,0.0,0.0,0.0,0.0,0.0,0.0,0.0,0.0,0.0,0.0,0.0,0.0,0.0,0.0,0.0,0.0,0.0,0.0,0.0,0.0,0.0,0.0,0.0,0.0,0.0,0.0,0.0,0.0,0.0,0.0,0.0,0.0,0.0,0.0,0.0,0.0,0.0,0.0,0.0,0.0,0.0,0.0,0.0,0.0,0.0,0.0,0.0,0.0,0.0,0.0,0.0,0.0,0.0,0.0,0.0,0.0,0.0,0.0,0.0,0.0,0.0,0.0,0.0,0.0,0.0,0.0,0.0,0.0,0.0,0.0,0.0,0.0,0.0,0.0,0.0,0.0,0.0,0.0,0.0,0.0,0.0,0.0,0.0,0.0,0.0,0.0,0.0,0.0,0.0,0.0,0.0,0.0,0.0,0.0,0.0,0.0,0.0,0.0,0.0,0.0,0.0,0.0,0.0,0.0,0.0,0.0,0.0,0.0,0.0,0.0,0.0,0.0,0.0,0.0,0.0,0.0,0.0,0.0,0.0,0.0,0.0,0.0,0.0,0.0,0.0,0.0,0.0,0.0,0.0,0.0,0.0,0.0,0.0,0.0,0.0,0.0,0.0,0.0,0.0,0.0,0.0,0.0,0.0,0.0,0.0,0.0,0.0,0.0,0.0,0.0,0.0,0.0,0.0,0.0,0.0,0.0,0.0,0.0,0.0,0.0,0.0,0.0,0.0,0.0,0.0,0.0,0.0,0.0,0.0,0.0,0.0,0.0,0.0,0.0,0.0,0.0,0.0,0.0,0.0,0.0,0.0,0.0,0.0,0.0,0.0,0.0,0.0,0.0,0.0,0.0,0.0,0.0,0.0,0.0,0.0,0.0,0.0,0.0,0.0,0.0,0.0,0.0,0.0,0.0,0.0,0.0,0.0,0.0,0.0,0.0,0.0,0.0,0.0,0.0,-1.7802,0.0,0.0,0.0,0.0,0.0,0.0,0.0,0.0,0.0,0.0,0.0,0.0,0.0,0.0,0.0,0.0,0.0,0.0,0.0,0.0,0.0,0.0,0.0,0.0,-0.9004,-0.9346,-1.0224,-1.0303,-1.0303,-1.0303,0.0,0.0,0.0,0.0,0.0,-0.9299,-0.9289,-0.9192,-0.9004,-0.9004,-0.9094,-0.9289,-0.9289,-0.9513,-0.9913,0.0,0.0,0.0,0.0,0.0,0.0,0.0,0.0,0.0,0.0,0.0,0.0,0.0,0.0,0.0,0.0,0.0,0.0,0.0,0.0,0.0,0.0,0.0,0.0,0.0,0.0,0.0,0.0,0.0,0.0,0.0,0.0,0.0,0.0,0.0,0.0,0.0,0.0,0.0,0.0,0.0,0.0,0.0,0.0,0.0,0.0,0.0,0.0,0.0,0.0,0.0,0.0,0.0,0.0,0.0,0.0,0.0,0.0,0.0,0.0,0.0,0.0,0.0,0.0,0.0,0.0,0.0,0.0,0.0,0.0,0.0,-1.8317,0.0,0.0,0.0,0.0,0.0,0.0,0.0,0.0,0.0,0.0,0.0,0.0,0.0,0.0,0.0,0.0,0.0,0.0,0.0,0.0,0.0,-0.7954,-0.8889,-0.9004,-0.9346,-1.0224,-1.0303,-1.0303,-1.0303,0.0,0.0,0.0,0.0,-1.0107,-0.9737,-0.9728,-0.9552,-0.9228,-0.9228,-0.9387,-0.9728,-0.9728,0.0,0.0,-1.0001,0.0,0.0,0.0,0.0,0.0,0.0,0.0,0.0,0.0,0.0,0.0,0.0,0.0,0.0,0.0,0.0,0.0,0.0,0.0,0.0,0.0,0.0,0.0,0.0,0.0,0.0,0.0,0.0,0.0,0.0,0.0,0.0,0.0,0.0,0.0,0.0,0.0,0.0,0.0,0.0,0.0,0.0,0.0,0.0,0.0,0.0,0.0,0.0,0.0,0.0,0.0,0.0,0.0,0.0,0.0,0.0,0.0,0.0,0.0,0.0,0.0,0.0,0.0,-2.0238,-2.0238,-2.0238,-2.0137,-2.0413,-2.093,-1.9973,-1.971,-1.9874,-1.8894,0.0,0.0,0.0,0.0,0.0,0.0,0.0,0.0,0.0,0.0,0.0,0.0,0.0,0.0,0.0,0.0,0.0,0.0,0.0,-0.7646,-0.8877,-0.9004,-0.9346,-1.0224,-1.0303,-1.0303,-1.0303,0.0,0.0,0.0,-1.0303,-1.0273,-1.0215,-1.0215,-1.0185,-1.0136,-1.0136,-1.0166,-1.0215,0.0,0.0,0.0,-1.0762,-1.0762,0.0,0.0,0.0,0.0,0.0,0.0,0.0,0.0,0.0,0.0,0.0,0.0,0.0,0.0,0.0,0.0,0.0,0.0,0.0,0.0,0.0,0.0,0.0,0.0,0.0,0.0,0.0,0.0,0.0,0.0,0.0,0.0,0.0,0.0,0.0,0.0,0.0,0.0,0.0,0.0,0.0,0.0,-1.5454,-1.5668,0.0,0.0,0.0,0.0,0.0,0.0,0.0,0.0,0.0,0.0,0.0,0.0,0.0,-1.9936,-2.0465,-2.1018,-2.1506,-2.1983,-2.1983,-2.1983,-2.1958,-2.1481,-2.1568,-2.2083,-2.1945,0.0,-2.0528,-1.9861,0.0,0.0,0.0,0.0,0.0,0.0,0.0,0.0,0.0,0.0,0.0,0.0,0.0,0.0,0.0,0.0,0.0,0.0,0.0,0.0,0.0,-0.9004,-0.9346,-1.0224,-1.0303,-1.0303,0.0,0.0,0.0,-1.0303,-1.0303,-1.0303,-1.0303,-1.0518,-1.0772,-1.1027,-1.1027,-1.1027,0.0,0.0,0.0,0.0,0.0,0.0,0.0,0.0,0.0,0.0,0.0,0.0,0.0,0.0,0.0,0.0,0.0,0.0,0.0,0.0,0.0,0.0,0.0,0.0,0.0,0.0,0.0,0.0,0.0,0.0,0.0,0.0,0.0,0.0,0.0,0.0,0.0,0.0,0.0,0.0,0.0,0.0,0.0,0.0,0.0,0.0,0.0,-1.5316,-1.6158,-1.6158,-1.666,-1.6873,0.0,0.0,0.0,0.0,0.0,0.0,0.0,0.0,0.0,-2.0727,-2.1355,-2.1945,-2.2564,-2.3088,-2.3489,-2.3697,-2.3697,-2.3697,-2.3684,-2.3477,-2.3489,-2.3697,-2.3697,-2.3452,-2.2887,-2.138,-2.0439,-1.9886,0.0,0.0,0.0,0.0,-1.9748,-1.9572,0.0,0.0,0.0,0.0,0.0,0.0,0.0,0.0,0.0,0.0,0.0,0.0,-0.8909,-0.9084,-0.9463,-1.0234,0.0,0.0,0.0,0.0,0.0,-1.0303,-1.0303,-1.0303,-1.0303,-1.0693,-1.1123,0.0,0.0,0.0,0.0,0.0,0.0,0.0,0.0,0.0,0.0,0.0,0.0,0.0,0.0,0.0,0.0,0.0,0.0,0.0,0.0,0.0,0.0,0.0,0.0,0.0,0.0,0.0,0.0,0.0,0.0,0.0,0.0,0.0,0.0,0.0,0.0,0.0,0.0,0.0,0.0,0.0,0.0,0.0,0.0,0.0,0.0,0.0,0.0,0.0,0.0,-1.6132,-1.6735,-1.6735,-1.7375,-1.7576,0.0,0.0,0.0,0.0,0.0,0.0,-2.0413,-2.1129,-2.1798,-2.2322,-2.3108,-2.381,-2.4406,-2.4682,-2.4958,-2.5234,-2.4926,-2.4863,-2.4988,-2.485,-2.4788,-2.4788,-2.4788,-2.4788,-2.465,-2.2874,-2.1911,-2.1483,-2.0878,-2.0652,-2.0727,-2.1333,-2.1242,-2.1054,0.0,0.0,0.0,0.0,0.0,0.0,0.0,0.0,0.0,0.0,0.0,-0.8101,0.0,0.0,0.0,0.0,0.0,0.0,0.0,0.0,0.0,-1.0303,-1.0303,-1.0303,-1.0303,-1.0693,0.0,0.0,0.0,0.0,0.0,0.0,0.0,0.0,0.0,0.0,0.0,0.0,0.0,0.0,0.0,0.0,0.0,0.0,0.0,0.0,0.0,0.0,0.0,0.0,0.0,0.0,0.0,0.0,0.0,0.0,0.0,0.0,0.0,0.0,0.0,0.0,0.0,0.0,0.0,0.0,0.0,0.0,0.0,0.0,0.0,0.0,0.0,0.0,0.0,0.0,0.0,0.0,0.0,-1.736,-1.8292,0.0,0.0,0.0,0.0,-1.9723,-2.074,-2.1606,-2.2159,-2.3238,-2.4092,-2.4612,-2.4675,-2.4983,-2.5511,-2.5059,-2.5347,-2.6399,-2.5322,-2.5084,-2.5536,-2.5046,-2.4788,-2.4788,-2.4788,-2.4788,-2.4738,-2.4142,-2.3853,-2.3766,-2.3158,-2.2932,-2.3007,-2.3615,-2.3816,-2.3803,0.0,0.0,0.0,-0.7133,-0.6766,-0.6546,-0.6689,-0.6462,-0.6451,-0.6871,-0.7095,0.0,0.0,0.0,0.0,0.0,0.0,0.0,0.0,0.0,0.0,-1.0147,-1.0501,-1.0947,-1.1502,-1.1396,0.0,0.0,0.0,0.0,0.0,0.0,0.0,0.0,0.0,0.0,0.0,0.0,0.0,0.0,0.0,0.0,0.0,0.0,0.0,0.0,0.0,0.0,0.0,0.0,0.0,0.0,0.0,0.0,0.0,0.0,0.0,0.0,0.0,0.0,0.0,0.0,0.0,0.0,0.0,0.0,0.0,0.0,0.0,0.0,0.0,0.0,0.0,0.0,0.0,0.0,0.0,0.0,0.0,-1.848,-1.9409,0.0,-1.9296,-2.0238,-2.1041,-2.1393,-2.246,-2.3339,-2.3891,-2.4619,-2.5121,-2.531,-2.5686,-2.5996,-2.6185,-2.5996,-2.6109,-2.6487,-2.6097,-2.5975,-2.6185,-2.5996,-2.5908,-2.5908,-2.5908,-2.5908,-2.5896,-2.5695,-2.5172,-2.4474,-2.4274,-2.4186,-2.4211,-2.4424,-2.4519,-2.4519,-0.7225,-0.7083,0.0,-0.6721,-0.6473,-0.6305,-0.6305,-0.6254,-0.6324,-0.6599,-0.6883,0.0,0.0,0.0,0.0,0.0,0.0,0.0,0.0,0.0,-0.9434,-0.9869,-1.0533,-1.1297,-1.2184,0.0,0.0,0.0,0.0,0.0,0.0,0.0,0.0,0.0,0.0,0.0,0.0,0.0,0.0,0.0,0.0,0.0,-1.4563,0.0,0.0,0.0,0.0,0.0,0.0,0.0,0.0,0.0,0.0,0.0,0.0,0.0,0.0,0.0,0.0,0.0,0.0,0.0,0.0,0.0,0.0,0.0,0.0,0.0,0.0,0.0,0.0,0.0,0.0,0.0,0.0,0.0,0.0,0.0,-1.9748,-1.9597,-2.0552,-2.1018,-2.0426,-2.1556,-2.2485,-2.2849,-2.3916,-2.4695,-2.5059,-2.5598,-2.5887,-2.5887,-2.6298,-2.6499,-2.6499,-2.6499,-2.6499,-2.6499,-2.6499,-2.6499,-2.6499,-2.6499,-2.6499,-2.6499,-2.6499,-2.6499,-2.6499,-2.6499,-2.6059,-2.5372,-2.5372,-2.5372,-2.5372,-2.5372,-2.5372,-2.5372,-0.6444,-0.6488,-0.6366,-0.596,-0.589,-0.5882,-0.5882,-0.5781,-0.597,-0.6752,0.0,0.0,0.0,0.0,0.0,0.0,0.0,0.0,0.0,0.0,-0.8926,-0.9515,-1.0419,-1.1326,-1.2203,0.0,0.0,0.0,0.0,0.0,0.0,0.0,0.0,0.0,0.0,0.0,0.0,0.0,0.0,0.0,0.0,0.0,-1.558,0.0,0.0,0.0,0.0,0.0,0.0,0.0,0.0,0.0,0.0,0.0,0.0,0.0,0.0,0.0,0.0,0.0,0.0,0.0,0.0,0.0,0.0,0.0,0.0,0.0,0.0,0.0,0.0,0.0,0.0,0.0,0.0,0.0,-1.8958,-1.9509,-2.0087,-2.0679,-2.1694,-2.2159,-2.1619,-2.3075,-2.4054,-2.4054,-2.5021,-2.5624,-2.5624,-2.6185,-2.6499,-2.6499,-2.6499,-2.6499,-2.6499,-2.6499,-2.6499,-2.6499,-2.6499,-2.6499,-2.6499,-2.6499,-2.6499,-2.6499,-2.6499,-2.6499,-2.6499,-2.6499,-2.6499,-2.6499,-2.6499,-2.6499,-2.6499,-2.6499,-2.6499,-2.6499,-0.6429,-0.6259,-0.6037,-0.5913,-0.5656,-0.5467,-0.5467,-0.5607,-0.578,-0.6004,0.0,0.0,0.0,0.0,0.0,0.0,0.0,0.0,0.0,0.0,-0.881,-1.0373,-1.1051,0.0,0.0,0.0,0.0,0.0,0.0,0.0,0.0,0.0,0.0,0.0,0.0,0.0,0.0,0.0,0.0,0.0,0.0,0.0,-1.5668,0.0,0.0,0.0,0.0,0.0,0.0,0.0,0.0,0.0,0.0,0.0,0.0,0.0,0.0,0.0,0.0,0.0,0.0,0.0,0.0,0.0,0.0,0.0,0.0,0.0,0.0,0.0,0.0,0.0,0.0,0.0,-1.8067,-1.9409,-1.9572,-2.0765,-2.1681,-2.1845,-2.2849,-2.3477,-2.3326,-2.4431,-2.5159,-2.5159,-2.5845,-2.626,-2.626,-2.6411,-2.6499,-2.6499,-2.6499,-2.6499,-2.6499,-2.6499,-2.6499,-2.6499,-2.6499,-2.6499,-2.6499,-2.6499,-2.6499,-2.6499,-2.6499,-2.6499,-2.6499,-2.6499,-2.6499,-2.6499,-2.6499,-2.6499,-2.6499,-2.6499,-2.6499,-2.6499,-0.5922,-0.5812,-0.5648,-0.5648,-0.546,-0.5293,-0.5293,-0.5648,-0.5916,-0.5916,0.0,0.0,0.0,0.0,0.0,0.0,0.0,0.0,-0.682,-0.7866,-0.9134,0.0,0.0,0.0,0.0,0.0,0.0,0.0,0.0,0.0,0.0,0.0,0.0,0.0,0.0,0.0,0.0,0.0,0.0,0.0,0.0,0.0,-1.6019,-1.5781,-1.5512,-1.516,-1.4626,-1.4437,-1.4349,-1.3778,0.0,0.0,0.0,0.0,0.0,0.0,0.0,0.0,0.0,0.0,0.0,0.0,0.0,0.0,0.0,0.0,0.0,0.0,0.0,0.0,0.0,0.0,0.0,0.0,-1.9157,-2.0326,-2.079,-2.1694,-2.2397,-2.2606,-2.3452,-2.4004,-2.4004,-2.4971,-2.5598,-2.5598,-2.6172,-2.6499,-2.6499,-2.6499,-2.6499,-2.6499,-2.6499,-2.6499,-2.6499,-2.6499,-2.6499,-2.6499,-2.6499,-2.6499,-2.6499,-2.6499,-2.6499,0.0,-2.6499,-2.6499,-2.6499,-2.6499,-2.6499,0.0,0.0,0.0,0.0,0.0,-2.6499,-2.6499,-0.5246,-0.5293,-0.5293,-0.5293,-0.5293,-0.5306,-0.534,-0.5833,-0.6203,-0.6236,0.0,0.0,0.0,0.0,0.0,0.0,0.0,0.0,0.0,0.0,0.0,0.0,0.0,0.0,0.0,0.0,0.0,0.0,0.0,0.0,0.0,0.0,0.0,0.0,0.0,0.0,0.0,0.0,0.0,0.0,0.0,0.0,-1.645,-1.5969,-1.574,-1.5624,-1.5074,-1.4835,-1.4722,-1.425,0.0,0.0,0.0,0.0,0.0,0.0,0.0,0.0,0.0,0.0,0.0,0.0,0.0,0.0,0.0,0.0,0.0,0.0,0.0,0.0,0.0,0.0,0.0,0.0,-2.0399,-2.1245,-2.2259,-2.2397,-2.2581,-2.3133,-2.374,-2.4117,-2.4167,-2.5096,-2.5686,-2.5686,-2.6197,-2.6499,-2.6499,0.0,0.0,0.0,0.0,-2.6688,-2.6688,-2.6688,-2.6688,-2.6688,-2.6688,-2.6688,-2.6675,-2.6612,-2.6587,-2.6587,-2.6524,-2.6499,-2.6499,-2.6499,-2.6499,-2.6499,-2.6499,-2.6499,-2.6499,-2.6499,-2.6499,-2.6499,-0.5286,-0.5293,-0.5293,-0.5293,-0.5293,-0.5373,-0.5591,-0.5943,-0.6277,-0.6492,-0.6807,0.0,0.0,0.0,0.0,0.0,0.0,0.0,0.0,0.0,0.0,0.0,0.0,0.0,0.0,0.0,0.0,0.0,0.0,0.0,0.0,0.0,0.0,0.0,0.0,0.0,0.0,0.0,0.0,0.0,0.0,0.0,-1.6488,-1.6375,-1.6034,-1.5548,-1.5001,-1.4495,-1.4098,-1.4029,-1.4022,-1.401,-1.3882,0.0,0.0,0.0,0.0,0.0,0.0,0.0,0.0,0.0,0.0,0.0,0.0,0.0,0.0,0.0,0.0,0.0,0.0,0.0,0.0,-1.9591,-2.1011,-2.2221,-2.2857,-2.2945,-2.3158,-2.3766,-2.4318,-2.4833,-2.5247,-2.5933,-2.6336,-2.6336,-2.6436,-2.6499,-2.6499,-2.6914,-2.7165,-2.7165,-2.7557,-2.7783,-2.7783,-2.7783,-2.7783,-2.7783,0.0,0.0,-2.777,-2.7318,-2.7165,-2.714,-2.6688,-2.6499,-2.6499,-2.6499,-2.6499,-2.6499,-2.6499,-2.6499,-2.6499,-2.6499,-2.6499,-2.6499,-0.5498,-0.5498,-0.5561,-0.5726,-0.5752,-0.5806,-0.593,-0.6204,-0.6445,-0.6593,-0.684,0.0,0.0,0.0,0.0,0.0,0.0,0.0,0.0,0.0,0.0,0.0,0.0,0.0,0.0,0.0,0.0,0.0,0.0,0.0,0.0,0.0,0.0,0.0,0.0,0.0,0.0,0.0,0.0,0.0,0.0,0.0,-1.5634,-1.5942,-1.5666,-1.5106,-1.4853,-1.4562,-1.4261,-1.4036,-1.3776,-1.359,-1.3517,-1.3333,-1.303,0.0,0.0,0.0,0.0,0.0,0.0,0.0,0.0,0.0,0.0,0.0,0.0,0.0,0.0,-1.6538,-1.6502,0.0,-1.9615,-2.0477,-2.1558,-2.2498,-2.3032,-2.3108,-2.3321,-2.3929,-2.4481,-2.4988,-2.5548,-2.616,-2.6499,-2.6499,-2.6499,-2.6612,-2.6889,-2.7165,-2.7406,-2.7682,-2.7959,-2.8109,-2.8109,-2.8109,-2.8109,-2.8109,-2.8109,-2.8109,-2.8097,-2.7821,-2.7695,-2.7682,-2.7406,-2.7165,-2.6889,-2.6612,-2.6663,-2.6876,-2.66,-2.6499,-2.6499,-2.6499,-2.6499,-2.6499,-0.5778,-0.5798,-0.5878,-0.6156,-0.6196,-0.6209,-0.627,-0.6459,-0.6613,-0.6667,-0.686,-0.7,-0.7,-0.6814,-0.67,0.0,0.0,0.0,0.0,0.0,0.0,0.0,0.0,0.0,0.0,0.0,0.0,0.0,0.0,0.0,0.0,0.0,0.0,0.0,0.0,0.0,0.0,0.0,0.0,0.0,0.0,0.0,-1.4583,-1.5073,-1.496,-1.4525,-1.4525,-1.4456,-1.4309,-1.4005,-1.363,-1.3299,-1.3182,-1.2904,-1.2559,-1.2346,-1.2308,0.0,0.0,0.0,0.0,0.0,0.0,0.0,0.0,0.0,-1.5372,-1.5522,-1.7036,-1.8348,-1.8273,-1.929,-2.0426,-2.1343,-2.2046,-2.2594,-2.3045,-2.3108,-2.3321,-2.3929,-2.4481,-2.5071,-2.5699,-2.6223,-2.6499,-2.6499,-2.6499,-2.6738,-2.7291,-2.7381,-2.7695,-2.8247,-2.8373,-2.8436,-2.8436,-2.8436,-2.8436,-2.8436,-2.8436,-2.8436,-2.8423,-2.831,-2.826,-2.826,-2.816,-2.7846,-2.7406,-2.7002,-2.7077,-2.7394,-2.6989,-2.6751,-2.6637,-2.6537,-2.6499,-2.6499,-0.6041,-0.6142,-0.6156,-0.6189,-0.6196,-0.6283,-0.6519,-0.6586,-0.668,-0.692,-0.698,-0.7,-0.7,-0.6973,-0.7081,-0.737,0.0,0.0,0.0,0.0,0.0,0.0,0.0,0.0,0.0,0.0,0.0,0.0,0.0,0.0,0.0,0.0,0.0,0.0,0.0,0.0,0.0,0.0,0.0,0.0,0.0,0.0,-1.3909,-1.398,-1.3956,-1.3909,-1.3909,-1.3552,-1.3166,-1.3656,-1.378,-1.3727,-1.3715,-1.3657,-1.3455,-1.2487,0.0,-1.2651,-1.1809,-1.189,-1.2533,-1.3889,-1.416,-1.4534,0.0,0.0,-1.7039,-1.7697,-1.8409,-1.8908,-1.8908,-2.0223,-2.1343,-2.1468,-2.2359,-2.3032,-2.3095,-2.3108,-2.3321,-2.3929,-2.4481,-2.5222,-2.6298,-2.6461,-2.6499,-2.6499,-2.6499,-2.6738,-2.7291,-2.7745,-2.8273,-2.8787,-2.934,-2.9603,-2.9603,-2.9603,-2.9603,-2.9603,-2.9603,-2.9603,-2.9591,-2.9026,-2.88,-2.8762,-2.8323,-2.8072,-2.8009,-2.7946,-2.7959,-2.8009,-2.7946,-2.762,-2.7165,-2.6675,-2.6499,-2.6499,-0.5869,-0.6191,-0.6425,-0.6425,-0.6566,-0.67,-0.682,-0.684,-0.6867,-0.6986,-0.7,-0.7,-0.7,-0.7,-0.7141,-0.7464,-0.786,0.0,0.0,0.0,0.0,0.0,0.0,0.0,0.0,0.0,0.0,0.0,0.0,0.0,0.0,0.0,0.0,0.0,0.0,0.0,0.0,0.0,0.0,0.0,0.0,0.0,-1.3286,-1.3286,-1.3286,-1.3286,-1.3286,-1.3104,0.0,0.0,-1.3081,-1.2919,-1.3205,-1.3081,-1.2842,-1.2659,-1.2744,0.0,-1.2455,-1.2484,-1.2816,0.0,-1.3882,-1.4336,-1.6153,-1.648,-1.6709,-1.7808,-1.8724,-1.9346,-1.9346,-2.0365,-2.1386,0.0,-2.2226,-2.2567,-2.3035,-2.2702,-2.2807,-2.3866,-2.404,-2.4558,-2.5854,-2.6298,-2.6625,-2.6952,-2.6977,-2.7354,-2.8197,-2.8461,-2.885,-2.9415,-2.9666,-2.9792,-2.9792,-2.9792,-2.9792,-2.9792,-2.9792,-2.9792,-2.9779,-2.9541,-2.9428,-2.9402,-2.8837,-2.8775,-2.9038,-2.8373,-2.8298,-2.8512,-2.8235,-2.7959,-2.7695,-2.7178,-2.6776,-2.6499,-0.5681,-0.6059,-0.6373,-0.6472,-0.664,-0.684,-0.6973,-0.7,-0.7,-0.7,-0.7,-0.7,-0.7,-0.7,-0.7141,-0.7464,-0.819,-0.8771,0.0,0.0,0.0,0.0,0.0,0.0,0.0,0.0,0.0,0.0,0.0,0.0,0.0,0.0,0.0,0.0,0.0,0.0,0.0,0.0,0.0,0.0,0.0,0.0,-1.2905,-1.2905,-1.2905,-1.2905,-1.2905,-1.2905,0.0,0.0,-1.2676,-1.2437,-1.2783,-1.2666,-1.2447,-1.2807,-1.2905,-1.2925,-1.3052,0.0,0.0,-1.3721,-1.3857,-1.427,-1.591,-1.617,-1.6407,-1.7571,-1.8467,-1.9096,-1.9209,-1.993,-2.0724,-2.1474,-2.1563,-2.1741,-2.2341,-2.1896,-2.2068,-2.3466,-2.3563,-2.405,-2.5469,-2.616,-2.6725,-2.7278,-2.7281,-2.777,-2.8838,-2.8888,-2.9202,-2.9779,-2.9792,-2.9792,-2.9792,-2.9792,-2.9792,-2.9792,-2.9792,-2.9792,-2.9792,-2.9792,-2.9792,-2.9767,-2.9352,-2.9402,-2.9729,-2.8913,-2.8812,-2.9126,-2.8725,-2.8473,-2.8285,-2.7883,-2.7329,-2.67,-0.5641,-0.5708,-0.5832,-0.6156,-0.6216,-0.6392,-0.6913,-0.7,-0.7,-0.7,-0.7,-0.7,-0.7,-0.7,-0.7141,-0.7464,-0.7772,-0.808,-0.84,-0.9311,0.0,0.0,0.0,0.0,0.0,0.0,0.0,0.0,0.0,0.0,0.0,0.0,0.0,0.0,0.0,0.0,0.0,0.0,0.0,0.0,0.0,0.0,-1.2905,-1.2905,-1.2905,-1.2905,-1.2905,0.0,0.0,0.0,-1.2895,-1.2886,-1.2905,-1.2895,0.0,-1.2905,-1.2905,0.0,0.0,0.0,-1.3691,-1.4541,-1.4774,-1.5049,-1.6233,-1.6489,-1.6687,-1.7446,-1.7633,-1.7801,-1.8265,-1.8787,-1.928,-1.9719,-2.0254,-2.0655,-2.0655,-2.0655,-2.1168,-2.2559,-2.3191,-2.405,-2.5469,-2.616,-2.6725,-2.7278,-2.7281,-2.777,-2.8838,-2.8888,-2.9202,-2.9779,-2.9792,-2.9792,-2.9792,-2.9792,-2.9792,-2.9792,-2.9792,-2.9792,-2.9792,-2.9792,-2.9792,-2.9792,-2.9779,-2.9779,-2.9792,-2.9754,-2.9754,-2.9767,-2.9741,-2.9402,-2.8863,-2.885,-2.8185,-2.718,-0.5658,-0.5872,-0.6117,-0.6412,-0.6607,-0.6794,-0.6973,-0.684,-0.6807,-0.6973,-0.7,0.0,0.0,0.0,0.0,0.0,-0.7749,-0.8032,-0.8382,-0.887,0.0,0.0,0.0,0.0,0.0,0.0,0.0,0.0,0.0,0.0,0.0,0.0,0.0,0.0,0.0,0.0,0.0,0.0,0.0,0.0,0.0,0.0,-1.3271,-1.2988,-1.2905,-1.2905,0.0,0.0,0.0,0.0,0.0,0.0,-1.2905,0.0,0.0,-1.2905,-1.3076,-1.333,-1.3467,0.0,-1.4036,-1.4639,-1.4813,-1.5089,-1.6247,-1.6122,-1.5979,-1.6726,-1.7198,-1.7514,-1.7676,-1.8296,-1.9001,-1.9725,-1.9789,-2.002,-2.0885,-2.05,-2.0651,-2.2026,-2.2133,0.0,-2.3572,0.0,0.0,-2.7208,-2.6992,-2.7124,-2.7801,-2.8882,-2.9245,-2.8676,-2.9417,-2.9792,-2.9792,-2.9792,-2.9792,-2.9792,-2.9792,-2.9792,-2.9792,-2.9792,-2.9792,-2.9792,-2.9792,-2.9792,-2.9792,-2.9792,-2.9792,-2.9792,-2.9792,-2.9679,-2.9453,-2.9026,-2.865,-2.8247,-0.5698,-0.597,-0.625,-0.6419,-0.6606,0.0,0.0,0.0,0.0,0.0,0.0,0.0,0.0,0.0,0.0,0.0,0.0,-0.7896,-0.8196,0.0,0.0,0.0,0.0,0.0,0.0,0.0,0.0,0.0,0.0,0.0,0.0,0.0,0.0,0.0,0.0,0.0,0.0,0.0,0.0,0.0,0.0,0.0,-1.3262,-1.3013,-1.2905,0.0,0.0,0.0,0.0,0.0,0.0,0.0,0.0,0.0,0.0,-1.3066,-1.3301,-1.3574,-1.3877,-1.416,-1.4473,-1.4902,-1.501,-1.522,-1.5946,-1.5748,-1.5517,-1.6007,-1.6434,-1.6739,-1.6894,-1.7349,-1.7999,-1.887,-1.8804,-1.9013,-2.0124,-1.9775,-2.0004,-2.1539,-2.1528,-2.1884,0.0,0.0,0.0,-2.6359,-2.6325,-2.6485,-2.7009,-2.8032,-2.845,-2.8124,-2.8806,-2.9404,-2.9792,-2.9792,-2.9792,-2.9792,-2.9792,-2.9792,-2.9792,-2.9792,-2.9792,-2.9792,-2.9792,-2.9792,-2.9792,-2.9792,-2.9792,-2.9792,-2.9792,-2.9792,-2.9741,-2.9377,-2.9239,-2.9051,-0.5812,-0.6003,-0.6216,0.0,0.0,0.0,0.0,0.0,0.0,0.0,0.0,0.0,0.0,0.0,0.0,0.0,0.0,0.0,0.0,0.0,0.0,0.0,0.0,0.0,0.0,-1.1416,0.0,0.0,0.0,0.0,0.0,0.0,0.0,0.0,0.0,0.0,0.0,0.0,0.0,0.0,0.0,0.0,-1.2935,-1.2915,0.0,0.0,0.0,0.0,0.0,0.0,0.0,0.0,0.0,0.0,0.0,-1.3379,-1.35,-1.3721,-1.4561,-1.4833,-1.4912,-1.5312,-1.541,-1.541,-1.541,-1.541,-1.541,-1.541,-1.541,-1.5527,-1.5958,0.0,-1.6398,-1.721,-1.7406,-1.7705,-1.852,-1.8637,-1.9296,0.0,0.0,0.0,0.0,0.0,0.0,-2.477,0.0,-2.5761,-2.6333,-2.6461,-2.6924,-2.7884,-2.8044,-2.8636,-2.9702,-2.9753,-2.9792,-2.9792,-2.9792,-2.9792,-2.9792,-2.9792,-2.9792,-2.9792,-2.9792,-2.9792,-2.9792,-2.9792,-2.9792,-2.9792,-2.9792,-2.9792,-2.9792,-2.9792,-2.9792,-2.9566,0.0,0.0,0.0,0.0,0.0,0.0,0.0,0.0,0.0,0.0,0.0,0.0,0.0,0.0,0.0,0.0,0.0,0.0,0.0,0.0,0.0,0.0,0.0,0.0,0.0,0.0,0.0,0.0,0.0,0.0,0.0,0.0,0.0,0.0,0.0,0.0,0.0,0.0,0.0,0.0,0.0,0.0,-1.3311,0.0,0.0,0.0,0.0,0.0,0.0,0.0,0.0,0.0,0.0,-1.2905,-1.2983,0.0,0.0,-1.4065,-1.4639,-1.501,-1.5273,-1.5381,-1.541,-1.541,-1.541,-1.541,-1.541,-1.541,-1.541,-1.5352,-1.5146,-1.5908,0.0,-1.6447,-1.7217,0.0,-1.9004,-1.9121,0.0,-2.0665,0.0,-2.1099,-2.1907,-2.207,0.0,0.0,-2.4011,-2.458,-2.4636,-2.5829,-2.6224,-2.565,-2.7227,-2.8255,-2.8518,-2.9365,-2.9792,-2.9792,-2.9792,-2.9792,-2.9792,-2.9792,-2.9792,-2.9792,-2.9792,-2.9792,-2.9792,-2.9792,-2.9792,-2.9792,-2.9792,-2.9792,-2.9792,-2.9792,-2.9792,-2.9666,0.0,0.0,0.0,0.0,0.0,0.0,0.0,0.0,0.0,0.0,0.0,0.0,0.0,0.0,0.0,0.0,0.0,0.0,0.0,0.0,0.0,0.0,0.0,0.0,0.0,0.0,0.0,0.0,0.0,0.0,0.0,0.0,0.0,0.0,0.0,0.0,0.0,0.0,0.0,0.0,0.0,0.0,0.0,0.0,0.0,0.0,0.0,0.0,0.0,0.0,0.0,-1.3154,-1.3154,-1.3281,-1.3516,-1.3945,0.0,-1.4512,-1.4941,-1.5234,-1.541,-1.541,-1.541,-1.5361,-1.5176,-1.5137,-1.5088,-1.4864,-1.4825,0.0,-1.4541,-1.5254,0.0,0.0,0.0,0.0,-1.9141,-1.9443,-1.9814,0.0,-2.0605,0.0,-2.1455,-2.1748,-2.2139,0.0,-2.3353,-2.3683,-2.3618,-2.4513,-2.4925,-2.4787,-2.5983,-2.6901,-2.74,-2.8039,-2.8343,-2.8343,-2.8343,-2.8343,-2.8343,-2.8343,-2.8621,-2.9067,0.0,-2.9326,-2.9792,-2.9792,-2.9792,-2.9792,-2.9792,-2.9792,-2.9792,-2.9792,-2.9792,-2.9741,0.0,0.0,0.0,0.0,0.0,0.0,0.0,0.0,0.0,-0.7,-0.7303,-0.7504,-0.7544,-0.7802,0.0,0.0,0.0,0.0,0.0,0.0,0.0,0.0,0.0,0.0,0.0,0.0,0.0,0.0,0.0,0.0,0.0,0.0,0.0,0.0,0.0,0.0,0.0,0.0,0.0,0.0,0.0,0.0,0.0,0.0,0.0,0.0,0.0,0.0,0.0,0.0,-1.3429,-1.3516,-1.3549,-1.3812,-1.4192,-1.4658,-1.4813,-1.4873,-1.5293,-1.541,-1.541,-1.541,-1.5371,-1.5234,-1.4873,-1.4736,-1.459,-1.4182,0.0,-1.4085,-1.4036,-1.4502,-1.5136,-1.5889,0.0,-1.7822,-1.9111,-1.96,-2.001,-2.0546,-2.0605,-2.0957,-2.1797,-2.1885,-2.2236,-2.3033,-2.3091,-2.3091,-2.3091,-2.3091,-2.3637,-2.4745,-2.4787,-2.5336,-2.6483,-2.6524,-2.6524,-2.6524,-2.6524,-2.6524,-2.6524,-2.6524,-2.7005,-2.7896,-2.7896,0.0,-2.9573,-2.9573,-2.9663,-2.9792,-2.9792,-2.9792,-2.9792,-2.9792,-2.9792,-2.9792,0.0,0.0,0.0,0.0,0.0,0.0,0.0,-0.7,-0.7,-0.7,-0.7303,-0.7584,-0.7799,-0.8116,0.0,0.0,0.0,0.0,0.0,0.0,0.0,0.0,0.0,0.0,0.0,0.0,0.0,0.0,0.0,0.0,0.0,0.0,0.0,0.0,0.0,0.0,0.0,0.0,0.0,0.0,0.0,0.0,0.0,0.0,0.0,0.0,0.0,0.0,0.0,0.0,-1.3035,-1.3574,-1.389,-1.4046,-1.4192,-1.4658,-1.4813,-1.4873,-1.5293,-1.541,-1.541,-1.541,-1.5146,-1.4873,-1.4833,-1.4502,0.0,0.0,-1.4104,-1.3997,-1.3682,-1.4541,-1.5352,-1.5498,0.0,0.0,0.0,0.0,-1.9687,0.0,0.0,0.0,0.0,0.0,0.0,0.0,0.0,-2.3091,-2.3091,-2.3091,-2.3637,-2.4745,-2.4787,-2.5336,-2.6483,-2.6524,-2.6524,-2.6524,-2.6524,-2.6524,-2.6524,-2.6524,-2.6595,-2.676,-2.676,0.0,-2.8386,-2.8386,-2.8937,-2.9792,-2.9792,-2.9792,-2.9792,-2.9792,-2.9792,-2.9792,0.0,0.0,0.0,0.0,0.0,0.0,0.0,-0.7,-0.7,-0.7,-0.7303,-0.7605,-0.7872,-0.833,-0.8484,0.0,0.0,0.0,0.0,0.0,0.0,0.0,0.0,0.0,0.0,0.0,0.0,0.0,0.0,0.0,0.0,0.0,0.0,0.0,0.0,0.0,0.0,0.0,0.0,0.0,0.0,0.0,0.0,0.0,0.0,0.0,0.0,0.0,0.0,0.0,-1.2419,-1.3148,-1.416,-1.4601,-1.4806,-1.5049,-1.5107,-1.5156,-1.5352,-1.541,-1.541,-1.541,-1.5098,-1.4727,-1.4502,0.0,0.0,0.0,-1.3486,-1.3418,-1.3213,-1.3857,0.0,0.0,0.0,0.0,0.0,0.0,0.0,0.0,0.0,0.0,0.0,0.0,0.0,0.0,0.0,-2.3091,-2.3091,-2.3091,-2.3343,-2.3887,-2.392,-2.4178,-2.4723,-2.4723,-2.4723,-2.4723,-2.4723,-2.4723,-2.4723,-2.4723,-2.5052,-2.563,-2.563,0.0,-2.7279,-2.7279,-2.7585,-2.8091,-2.8091,-2.8091,-2.8091,-2.8091,-2.8091,-2.8091,0.0,0.0,0.0,0.0,0.0,0.0,0.0,-0.7,-0.7,-0.7,-0.7303,-0.7605,-0.7872,-0.8397,-0.8624,0.0,0.0,0.0,0.0,0.0,0.0,0.0,0.0,0.0,0.0,0.0,0.0,0.0,0.0,0.0,0.0,0.0,0.0,0.0,0.0,0.0,0.0,0.0,0.0,0.0,0.0,0.0,0.0,0.0,0.0,0.0,0.0,0.0,0.0,0.0,-1.1719,-1.251,-1.381,-1.4705,-1.5273,-1.5273,-1.5342,-1.541,-1.541,-1.541,-1.541,-1.541,-1.5029,-1.4551,-1.4182,-1.3714,0.0,0.0,-1.2905,-1.2905,-1.2905,0.0,-1.3789,0.0,-1.5537,0.0,0.0,0.0,0.0,0.0,0.0,0.0,0.0,0.0,0.0,0.0,0.0,0.0,-2.3091,-2.3091,-2.3091,-2.3091,-2.3091,-2.3091,-2.3091,-2.3091,-2.3091,-2.3091,-2.3091,-2.3091,-2.3091,-2.3091,-2.3594,-2.4414,-2.4414,0.0,0.0,-2.6141,-2.6265,-2.6524,-2.6524,-2.6524,-2.6524,-2.6524,-2.6524,-2.6524,0.0,0.0,0.0,0.0,0.0,0.0,0.0,-0.7,-0.7,-0.7,-0.7303,-0.7605,-0.7872,-0.8216,-0.8429,0.0,0.0,0.0,0.0,0.0,0.0,0.0,0.0,0.0,0.0,0.0,0.0,0.0,0.0,0.0,0.0,0.0,0.0,0.0,0.0,0.0,0.0,0.0,0.0,0.0,0.0,0.0,0.0,0.0,0.0,0.0,0.0,0.0,0.0,0.0,0.0,-1.1672,-1.2185,-1.3505,-1.4872,-1.4872,0.0,0.0,-1.541,-1.541,-1.541,-1.541,-1.4767,-1.4153,-1.4114,0.0,0.0,-1.2915,-1.2905,-1.2905,-1.2905,-1.3223,-1.3789,-1.4648,0.0,0.0,0.0,0.0,0.0,0.0,0.0,0.0,0.0,0.0,0.0,0.0,0.0,0.0,-2.3091,-2.3091,-2.3091,-2.3091,-2.3091,-2.3091,-2.3091,-2.3091,-2.3091,-2.3091,-2.3091,-2.3091,-2.3091,-2.3091,-2.3178,-2.3266,-2.3266,0.0,0.0,-2.4957,-2.5588,-2.6524,-2.6524,-2.6524,-2.6524,-2.6524,-2.6524,-2.6524,0.0,0.0,0.0,0.0,0.0,0.0,-0.7,-0.7,-0.7,-0.7,-0.7303,-0.7605,-0.7872,-0.8196,-0.8469,-0.8617,0.0,0.0,0.0,0.0,0.0,0.0,0.0,0.0,0.0,0.0,0.0,0.0,0.0,0.0,0.0,0.0,0.0,0.0,0.0,0.0,0.0,0.0,0.0,0.0,0.0,0.0,0.0,0.0,0.0,0.0,0.0,0.0,0.0,0.0,0.0,0.0,-1.0671,-1.1668,0.0,0.0,-1.438,-1.5294,-1.4815,-1.5021,-1.541,-1.541,-1.4738,-1.4104,-1.4104,0.0,-1.2905,-1.2905,-1.2905,-1.2905,-1.2905,-1.3042,-1.3408,0.0,-1.4678,-1.5596,-1.7607,0.0,0.0,0.0,0.0,0.0,0.0,0.0,0.0,0.0,0.0,0.0,-2.3091,-2.3091,-2.3091,-2.3091,-2.3091,-2.3091,-2.3091,-2.3091,-2.3091,-2.3091,-2.3091,-2.3091,-2.3091,-2.3091,-2.3091,-2.3091,-2.3091,0.0,0.0,-2.38,-2.4049,-2.4435,-2.4435,-2.4435,-2.4435,-2.4435,-2.4435,-2.4436,0.0,0.0,0.0,0.0,0.0,-0.7,-0.7,-0.7,-0.7,-0.7,-0.7303,-0.7605,-0.7872,-0.8196,-0.8516,-0.8784,-0.8804,0.0,0.0,0.0,0.0,0.0,0.0,0.0,0.0,0.0,0.0,0.0,0.0,0.0,0.0,0.0,0.0,0.0,0.0,0.0,0.0,0.0,0.0,0.0,0.0,0.0,0.0,0.0,0.0,0.0,0.0,0.0,0.0,0.0,0.0,0.0,0.0,0.0,0.0,0.0,-1.3438,-1.4509,-1.4266,-1.4599,-1.5108,-1.5352,-1.4738,-1.4104,0.0,-1.3486,-1.2847,-1.2608,-1.2749,-1.2822,-1.2608,-1.274,-1.3154,0.0,-1.4319,-1.5206,-1.7285,-1.8037,0.0,0.0,0.0,0.0,0.0,0.0,0.0,0.0,0.0,0.0,-2.3091,-2.3091,-2.3091,-2.3091,-2.3091,-2.3091,-2.3091,-2.3091,-2.3091,-2.3091,-2.3091,-2.3091,-2.3091,-2.3091,-2.3091,-2.3091,-2.3091,0.0,0.0,-2.3091,-2.3091,-2.3091,-2.3091,-2.3091,-2.3091,-2.3091,-2.3013,-2.2867,0.0,0.0,0.0,0.0,0.0,0.0,-0.7,-0.7,-0.7,-0.7,-0.7303,-0.7605,-0.7872,-0.8196,-0.8516,-0.8784,-0.8804,0.0,0.0,0.0,0.0,0.0,0.0,0.0,0.0,0.0,0.0,0.0,0.0,0.0,0.0,0.0,0.0,0.0,0.0,0.0,0.0,0.0,0.0,0.0,0.0,0.0,-0.8804,0.0,0.0,0.0,0.0,0.0,0.0,0.0,0.0,0.0,0.0,0.0,0.0,0.0,-1.226,-1.2848,-1.3898,-1.4213,-1.4392,-1.5196,-1.4738,-1.4104,0.0,-1.3486,-1.2691,-1.1972,-1.2393,-1.2691,-1.1947,-1.2403,-1.3154,-1.3968,-1.4816,-1.6006,-1.7754,-1.874,0.0,0.0,0.0,0.0,0.0,0.0,0.0,0.0,0.0,0.0,-2.3091,-2.3091,-2.3091,-2.3091,-2.3091,-2.3091,-2.3091,-2.3091,-2.3091,-2.3091,-2.3091,-2.3091,-2.3091,-2.3091,-2.3091,0.0,0.0,0.0,0.0,-2.3091,-2.3091,-2.3091,-2.3091,-2.3091,-2.3091,-2.3091,-2.2838,-2.2519,0.0,0.0,0.0,0.0,0.0,0.0,0.0,-0.7,-0.7,-0.7,-0.7446,-0.7799,-0.7899,-0.8377,-0.8704,-0.8798,-0.8804,0.0,0.0,0.0,0.0,0.0,0.0,0.0,0.0,0.0,0.0,0.0,0.0,0.0,0.0,0.0,0.0,0.0,0.0,0.0,0.0,0.0,0.0,0.0,0.0,-0.8804,-0.8804,0.0,0.0,0.0,0.0,0.0,0.0,0.0,0.0,0.0,0.0,0.0,0.0,-0.9908,0.0,-1.2506,-1.206,-1.2497,-1.3107,-1.3134,-1.2731,-1.2316,-1.2316,-1.1868,-1.1409,-1.1166,-1.13,-1.1525,-1.1765,-1.1996,-1.2676,-1.4303,0.0,0.0,0.0,0.0,0.0,0.0,0.0,0.0,0.0,0.0,0.0,0.0,0.0,0.0,-2.2695,-2.2672,-2.2799,-2.3081,-2.3091,-2.3091,-2.3091,-2.3091,-2.3091,-2.3091,-2.3091,-2.3091,-2.3091,-2.3091,-2.3091,0.0,0.0,0.0,0.0,-2.3091,-2.3091,-2.3091,-2.3091,-2.2916,-2.2672,-2.2672,-2.2441,-2.2041,0.0,0.0,0.0,0.0,0.0,0.0,0.0,-0.7,-0.7,-0.7,-0.7426,-0.7796,-0.7892,-0.8357,-0.8691,-0.8798,-0.8804,0.0,0.0,0.0,0.0,0.0,0.0,0.0,0.0,0.0,0.0,0.0,0.0,0.0,0.0,0.0,0.0,0.0,0.0,0.0,0.0,0.0,0.0,0.0,-0.8804,-0.8804,-0.8804,0.0,0.0,0.0,0.0,0.0,0.0,0.0,0.0,0.0,0.0,0.0,0.0,0.0,-1.0127,-1.1249,0.0,-1.143,-1.1979,-1.2069,-1.181,-1.1491,-1.1491,-1.1129,-1.0745,-1.0466,-1.0618,-1.0838,-1.1015,-1.1361,-1.2078,-1.347,-1.354,0.0,0.0,0.0,0.0,0.0,0.0,0.0,0.0,0.0,0.0,0.0,0.0,0.0,-2.2266,-2.2275,-2.2471,-2.2847,-2.3013,-2.3091,-2.3091,-2.3091,-2.3091,-2.3091,-2.3091,-2.3091,-2.3091,-2.3091,-2.3091,0.0,0.0,0.0,0.0,-2.3091,-2.3003,-2.2857,-2.2857,-2.2646,-2.2275,-2.2275,-2.2002,-2.1602,0.0,0.0,0.0,0.0,0.0,0.0,0.0,-0.7,-0.7,-0.7,-0.7303,-0.7605,-0.7872,-0.8196,-0.8516,-0.8784,0.0,0.0,0.0,0.0,0.0,0.0,0.0,0.0,0.0,0.0,0.0,-0.8804,-0.8804,-0.8804,-0.8804,0.0,0.0,0.0,0.0,0.0,0.0,0.0,0.0,0.0,-0.8804,-0.8804,0.0,0.0,0.0,0.0,0.0,0.0,0.0,0.0,0.0,0.0,0.0,0.0,0.0,0.0,0.0,0.0,0.0,-1.0761,-1.0946,-1.1686,-1.1589,-1.1298,-1.1298,-1.0983,0.0,-0.9865,-1.0218,-1.0507,-0.9951,-1.0609,-1.1399,-1.1908,0.0,0.0,0.0,0.0,0.0,0.0,0.0,0.0,0.0,0.0,0.0,0.0,0.0,0.0,-2.1836,-2.1836,-2.2031,-2.2451,-2.2808,-2.3033,-2.3091,-2.3062,-2.3062,-2.3091,-2.3062,-2.3062,-2.3091,-2.3091,-2.3091,0.0,0.0,0.0,0.0,-2.3062,-2.2818,-2.251,-2.248,-2.2207,-2.1836,-2.1836,-2.1562,-2.1142,0.0,0.0,0.0,0.0,0.0,0.0,0.0,0.0,0.0,0.0,-0.7303,-0.7605,-0.7872,-0.8196,-0.8516,0.0,0.0,0.0,0.0,0.0,0.0,0.0,0.0,0.0,0.0,0.0,0.0,-0.8804,-0.8804,-0.8804,-0.8804,-0.8804,0.0,0.0,0.0,0.0,0.0,0.0,0.0,0.0,-0.8804,-0.8804,0.0,0.0,0.0,0.0,-0.8804,-0.8804,0.0,0.0,0.0,0.0,0.0,0.0,0.0,0.0,-0.8851,-0.8951,-0.9227,0.0,-0.9584,-0.9565,-0.9505,-0.9448,0.0,-0.9339,-0.9237,-0.9061,0.0,-0.951,-1.0333,-1.0501,-1.1106,-1.2777,0.0,0.0,0.0,0.0,0.0,0.0,0.0,0.0,0.0,0.0,0.0,0.0,0.0,-2.1025,-2.1327,-2.1346,-2.1592,-2.2021,-2.2129,-2.249,-2.3091,-2.2779,-2.2822,-2.3091,-2.2769,-2.2779,-2.3091,-2.3091,-2.3091,0.0,0.0,0.0,-2.3071,-2.275,-2.2607,-2.248,-2.2158,-2.1768,-2.1346,-2.1346,-2.1103,-2.0723,0.0,0.0,0.0,0.0,0.0,0.0,0.0,0.0,0.0,0.0,0.0,0.0,0.0,0.0,0.0,0.0,0.0,0.0,0.0,0.0,0.0,0.0,0.0,0.0,0.0,0.0,0.0,0.0,0.0,-0.8804,0.0,0.0,0.0,0.0,0.0,0.0,0.0,0.0,0.0,-0.8804,-0.8804,0.0,0.0,0.0,0.0,0.0,-0.8804,-0.8804,0.0,-0.8804,-0.8804,-0.8804,0.0,0.0,0.0,0.0,-0.8804,-0.8804,-0.8804,-0.8991,-0.9178,-0.9018,-0.8978,-0.8978,-0.8978,0.0,0.0,0.0,0.0,-0.9045,-0.9855,-1.0123,0.0,0.0,-1.239,0.0,0.0,0.0,0.0,0.0,0.0,0.0,0.0,0.0,0.0,0.0,0.0,-2.0713,-2.0918,-2.0928,-2.1133,-2.1572,-2.1592,-2.1992,-2.2799,-2.2432,-2.2441,-2.2808,-2.2432,-2.2441,-2.2799,-2.2646,-2.2676,0.0,0.0,0.0,-2.2549,-2.2314,-2.2109,-2.1863,-2.167,-2.1318,-2.0928,-2.0928,-2.0771,-2.0605,0.0,0.0,0.0,0.0,0.0,0.0,0.0,0.0,0.0,0.0,0.0,0.0,0.0,0.0,0.0,0.0,0.0,0.0,0.0,0.0,0.0,0.0,0.0,0.0,0.0,0.0,0.0,0.0,0.0,0.0,0.0,0.0,-0.8804,0.0,0.0,0.0,0.0,0.0,0.0,-0.8804,-0.8804,0.0,0.0,0.0,0.0,0.0,0.0,0.0,0.0,-0.8804,-0.8804,-0.8804,-0.8804,0.0,0.0,0.0,0.0,0.0,-0.8864,-0.9058,-0.9257,-0.9171,-0.9178,-0.9204,-0.9158,0.0,0.0,0.0,0.0,0.0,0.0,-0.979,0.0,0.0,0.0,0.0,0.0,0.0,0.0,0.0,0.0,0.0,0.0,0.0,0.0,0.0,0.0,-2.0605,-2.0605,-2.0605,-2.0781,-2.1083,-2.1093,-2.1473,-2.2305,-2.1963,-2.2002,-2.2412,-2.1982,-2.2012,-2.2402,-2.2051,-2.208,-2.2402,0.0,0.0,-2.1875,-2.1816,-2.1562,-2.119,-2.1112,-2.0898,-2.0605,-2.0605,-2.0605,-2.0605,0.0,0.0,0.0,0.0,0.0,0.0,0.0,0.0,0.0,0.0,0.0,0.0,0.0,0.0,0.0,0.0,0.0,0.0,0.0,0.0,0.0,0.0,0.0,0.0,0.0,0.0,0.0,0.0,0.0,0.0,-0.8804,-0.8804,-0.8804,0.0,0.0,0.0,0.0,0.0,0.0,-0.8804,-0.8804,0.0,0.0,0.0,0.0,0.0,0.0,0.0,0.0,-0.8804,-0.8804,-0.8804,-0.8804,0.0,0.0,0.0,0.0,0.0,-0.9078,-0.9385,-0.9499,-0.8998,-0.9031,-0.9144,-0.8904,0.0,0.0,0.0,0.0,0.0,0.0,0.0,0.0,0.0,0.0,0.0,0.0,0.0,0.0,0.0,0.0,0.0,0.0,0.0,0.0,0.0,0.0,-2.0605,-2.0605,-2.0605,-2.0635,-2.0703,-2.0703,-2.0918,-2.1385,-2.1327,-2.1553,-2.1982,-2.1543,-2.1562,-2.1982,-2.1914,-2.1924,-2.1982,0.0,-2.1885,-2.1855,-2.1484,-2.1249,-2.1161,-2.082,-2.0664,-2.0605,-2.0605,-2.0605,-2.0605,0.0,0.0,0.0,0.0,0.0,0.0,0.0,0.0,0.0,0.0,0.0,0.0,0.0,0.0,0.0,0.0,0.0,0.0,0.0,0.0,0.0,0.0,0.0,0.0,0.0,0.0,0.0,0.0,0.0,-0.8804,-0.8804,-0.8804,-0.8804,-0.8804,0.0,0.0,0.0,0.0,-0.8804,-0.8804,0.0,0.0,0.0,0.0,0.0,0.0,0.0,0.0,0.0,0.0,-0.8804,-0.8804,-0.8804,0.0,0.0,0.0,0.0,0.0,-0.8944,-0.9191,-0.9351,-0.9078,-0.9351,-0.965,-0.9546,0.0,0.0,0.0,0.0,0.0,0.0,0.0,0.0,0.0,0.0,0.0,0.0,0.0,0.0,0.0,0.0,0.0,0.0,0.0,0.0,0.0,0.0,0.0,-1.8829,-1.8829,-1.8829,-1.8829,-1.8829,-1.9207,-2.0017,-2.0017,-2.0524,-2.1533,-2.1084,-2.1103,-2.1523,-2.1289,-2.1309,-2.1523,0.0,-2.1212,-2.1192,-2.0957,-2.0869,-2.085,-2.0683,-2.0605,-2.0605,-2.0605,-2.0605,-2.0605,0.0,0.0,0.0,0.0,0.0,0.0,0.0,0.0,0.0,0.0,0.0,0.0,0.0,0.0,0.0,0.0,0.0,0.0,0.0,0.0,0.0,0.0,0.0,0.0,0.0,0.0,-0.8725,-0.8533,-0.8725,-0.8804,-0.8804,-0.8804,-0.8804,0.0,0.0,0.0,0.0,-0.8804,-0.8804,-0.8804,0.0,0.0,0.0,0.0,0.0,0.0,0.0,0.0,0.0,0.0,0.0,0.0,0.0,0.0,0.0,-0.8804,-0.8804,-0.8824,-0.8891,-0.9044,-0.9231,-0.9297,-0.9604,-0.9917,-1.0087,0.0,0.0,0.0,0.0,0.0,0.0,0.0,0.0,0.0,0.0,0.0,0.0,0.0,0.0,0.0,0.0,0.0,0.0,0.0,0.0,0.0,0.0,0.0,-1.7302,-1.7302,-1.7302,-1.7302,-1.7302,-1.7698,-1.859,-1.8598,-1.9439,-2.1074,-2.0772,-2.0742,-2.1064,-2.0723,-2.0752,-2.1015,-2.0468,-2.0362,-2.0566,-2.004,-2.0118,-2.0566,-2.0323,-2.0362,-2.0605,-2.0605,-2.0605,-2.0605,0.0,0.0,0.0,0.0,0.0,0.0,0.0,0.0,0.0,0.0,0.0,0.0,0.0,0.0,0.0,0.0,0.0,0.0,0.0,0.0,0.0,0.0,0.0,0.0,0.0,-0.8804,-0.8454,-0.7777,-0.8454,-0.8804,-0.8804,-0.8804,-0.8804,-0.8804,0.0,0.0,0.0,-0.8804,-0.8804,-0.8804,-0.8804,0.0,0.0,0.0,0.0,0.0,0.0,0.0,0.0,0.0,0.0,0.0,0.0,0.0,-0.8804,-0.8804,-0.8804,-0.8864,-0.9111,-0.9198,-0.9277,-0.9586,-0.9479,0.0,-0.9963,-0.9893,0.0,-1.0419,0.0,0.0,0.0,0.0,0.0,0.0,0.0,0.0,0.0,0.0,0.0,0.0,0.0,0.0,0.0,0.0,0.0,0.0,0.0,0.0,-1.7302,-1.7302,-1.7302,-1.7302,-1.7302,-1.7334,-1.7415,-1.7415,-1.8519,-2.0654,-2.0615,-2.0625,-2.0644,-2.0615,-2.0625,-2.0576,-1.9569,-1.9678,-2.044,-1.8381,-1.8749,-2.0489,-1.9481,-1.9717,-2.0605,-2.0605,-2.0605,-2.0605,0.0,0.0,0.0,0.0,0.0,0.0,0.0,0.0,0.0,0.0,0.0,0.0,0.0,0.0,0.0,0.0,0.0,0.0,0.0,0.0,0.0,0.0,0.0,-0.6858,-0.7429,-0.7423,-0.7289,-0.702,-0.775,-0.8103,-0.8129,-0.8593,0.0,0.0,0.0,0.0,0.0,0.0,-0.8533,-0.8103,-0.8103,-0.8103,0.0,0.0,0.0,0.0,0.0,0.0,0.0,0.0,-0.8804,-0.8804,-0.8804,-0.8804,-0.8804,-0.8804,-0.8804,-0.8831,-0.8911,-0.9078,-0.9284,-0.9613,-0.9599,0.0,0.0,-1.0448,-1.0608,-1.1015,-1.1182,0.0,0.0,0.0,0.0,0.0,0.0,0.0,0.0,0.0,0.0,0.0,0.0,0.0,0.0,0.0,0.0,0.0,0.0,0.0,-1.502,-1.5202,-1.5311,-1.5311,-1.5311,-1.5628,-1.6314,-1.6314,-1.705,-1.8541,-1.8541,-1.8541,-1.8541,-1.8541,-1.8541,-1.855,-1.8109,-1.8181,-1.847,-1.7658,-1.7779,-1.851,-1.8109,-1.8181,-1.8621,-1.9353,-1.9599,-1.9678,0.0,0.0,0.0,0.0,0.0,0.0,0.0,0.0,0.0,0.0,0.0,0.0,0.0,0.0,0.0,0.0,0.0,0.0,0.0,0.0,0.0,0.0,0.0,-0.5937,-0.5937,-0.5937,-0.6041,-0.6253,-0.6772,-0.7122,-0.7369,0.0,0.0,0.0,0.0,0.0,0.0,0.0,-0.7803,-0.7343,-0.7343,-0.7482,0.0,0.0,0.0,0.0,0.0,0.0,0.0,0.0,-0.8804,-0.8804,-0.8804,-0.8804,-0.8804,-0.8804,-0.8871,-0.8918,-0.8918,-0.9058,-0.9284,-0.9613,0.0,0.0,-1.0593,-1.0881,-1.1129,-1.1603,-1.1668,0.0,0.0,0.0,0.0,0.0,0.0,0.0,0.0,0.0,0.0,0.0,0.0,0.0,0.0,0.0,0.0,0.0,0.0,0.0,0.0,-1.3888,-1.3988,-1.4082,-1.3995,-1.4358,-1.5171,-1.5171,-1.5545,-1.6281,-1.6281,-1.665,-1.7302,-1.7302,-1.7302,-1.7302,-1.6927,-1.6968,-1.7253,-1.6568,-1.6486,-1.6846,-1.718,-1.7302,-1.7383,-1.8189,-1.847,-1.855,0.0,0.0,0.0,0.0,0.0,0.0,0.0,0.0,0.0,0.0,0.0,0.0,0.0,0.0,0.0,0.0,0.0,0.0,0.0,0.0,0.0,0.0,0.0,-0.4491,-0.4491,-0.4491,-0.4814,-0.5487,-0.5487,-0.5869,-0.6615,-0.7343,0.0,0.0,0.0,0.0,0.0,0.0,0.0,0.0,-0.6588,-0.702,-0.767,0.0,0.0,0.0,0.0,0.0,0.0,0.0,-0.8804,-0.8804,-0.8804,-0.8811,-0.8811,-0.8804,-0.8984,-0.9211,-0.9211,-0.9211,-0.9284,0.0,0.0,0.0,-1.0868,-1.1002,-1.1249,-1.2124,0.0,-1.2305,-1.2305,0.0,0.0,0.0,0.0,0.0,0.0,0.0,0.0,0.0,0.0,0.0,0.0,0.0,0.0,0.0,0.0,0.0,0.0,-1.3801,-1.3733,-1.4068,-1.3753,-1.374,-1.4082,-1.4088,-1.4088,-1.4088,-1.4088,-1.5228,-1.7253,-1.7253,-1.7253,-1.7212,-1.615,-1.6273,-1.709,-1.4985,-1.4734,-1.5779,-1.6846,-1.7253,-1.7253,-1.7302,-1.7302,-1.7302,0.0,0.0,0.0,0.0,0.0,0.0,0.0,0.0,0.0,0.0,0.0,0.0,0.0,0.0,0.0,0.0,0.0,0.0,0.0,0.0,0.0,0.0,0.0,0.0,0.0,0.0,-0.4598,-0.4787,-0.5273,-0.5624,0.0,0.0,0.0,-0.6939,0.0,0.0,0.0,0.0,0.0,0.0,-0.5814,-0.595,-0.6222,0.0,0.0,0.0,0.0,0.0,0.0,0.0,0.0,0.0,-0.8804,-0.8918,-0.9044,-0.8871,-0.8984,-0.9171,-0.8964,-0.9239,0.0,-0.9913,0.0,0.0,0.0,-1.1645,0.0,0.0,0.0,-1.2305,-1.2305,0.0,0.0,0.0,0.0,0.0,0.0,0.0,0.0,0.0,0.0,0.0,0.0,0.0,0.0,0.0,0.0,0.0,0.0,-1.3267,-1.334,-1.3467,-1.354,-1.3646,-1.3733,-1.3981,-1.4088,-1.4088,-1.4088,-1.4412,-1.5068,-1.5068,-1.5068,-1.5026,-1.4692,-1.4776,-1.4985,-1.4377,-1.4292,-1.4615,-1.4901,-1.5068,-1.5144,-1.591,-1.6191,-1.6273,0.0,0.0,0.0,0.0,0.0,0.0,0.0,0.0,0.0,0.0,0.0,-0.4491,0.0,0.0,0.0,0.0,0.0,0.0,0.0,0.0,0.0,0.0,0.0,0.0,0.0,-0.4491,-0.4491,0.0,0.0,0.0,0.0,0.0,0.0,-0.6172,0.0,-0.6172,0.0,0.0,0.0,0.0,-0.5109,-0.5273,-0.5569,0.0,0.0,0.0,0.0,0.0,0.0,0.0,0.0,0.0,-0.8804,-0.8898,-0.9031,-0.8971,-0.9078,-0.9224,-0.9284,-0.9499,0.0,-1.0334,-1.0728,-1.1176,-1.1884,0.0,0.0,0.0,0.0,-1.2305,-1.2305,0.0,0.0,0.0,0.0,0.0,0.0,0.0,0.0,0.0,0.0,0.0,0.0,0.0,0.0,0.0,0.0,0.0,0.0,-1.2993,-1.308,-1.3206,-1.326,-1.3347,-1.3427,-1.3647,-1.3741,-1.3741,-1.3854,-1.3908,-1.3915,-1.4035,-1.4088,-1.4088,-1.4088,-1.4088,-1.4088,-1.4088,-1.4088,-1.4088,-1.4088,-1.4088,-1.4166,-1.4817,-1.4975,-1.4964,0.0,0.0,-0.3816,-0.3829,0.0,0.0,0.0,0.0,0.0,0.0,-0.4491,-0.4491,0.0,0.0,0.0,-0.4491,-0.4491,-0.4491,0.0,0.0,0.0,0.0,0.0,0.0,0.0,0.0,0.0,0.0,0.0,0.0,0.0,0.0,-0.5406,-0.5406,0.0,-0.5406,0.0,0.0,0.0,-0.4491,-0.4491,-0.4869,-0.5487,-0.6231,0.0,0.0,0.0,0.0,0.0,0.0,0.0,0.0,-0.8699,-0.8771,-0.8865,-0.9104,-0.9211,-0.9364,-0.987,0.0,0.0,-1.0782,-1.1056,0.0,-1.2118,0.0,-1.2305,-1.2305,0.0,0.0,0.0,0.0,0.0,0.0,0.0,0.0,0.0,0.0,0.0,0.0,0.0,0.0,0.0,0.0,0.0,0.0,0.0,0.0,0.0,-1.2898,-1.2871,-1.312,-1.2918,-1.2918,-1.3166,-1.32,-1.3213,-1.3213,-1.344,-1.356,-1.3573,-1.3941,-1.4088,-1.4088,-1.4088,-1.4088,-1.4088,-1.4088,-1.4088,-1.4082,-1.4055,-1.4048,-1.4041,-1.4015,-1.3834,-1.3606,0.0,0.0,-0.3984,-0.4102,0.0,0.0,0.0,0.0,-0.4274,-0.447,-0.4491,-0.4491,-0.4491,-0.4491,0.0,-0.4491,-0.4491,-0.4491,-0.4491,0.0,0.0,0.0,0.0,0.0,0.0,0.0,0.0,0.0,0.0,0.0,0.0,0.0,0.0,-0.4708,0.0,-0.4708,0.0,0.0,-0.4491,-0.4491,-0.4491,-0.4598,-0.4787,-0.5464,-0.5842,0.0,0.0,0.0,0.0,0.0,0.0,0.0,-0.7943,-0.8467,-0.9084,-0.8918,-0.9225,-0.9566,-0.9431,-0.969,0.0,0.0,0.0,0.0,-1.2258,-1.2305,-1.2305,-1.2305,0.0,0.0,0.0,0.0,0.0,0.0,0.0,0.0,0.0,0.0,0.0,0.0,0.0,0.0,0.0,0.0,0.0,0.0,0.0,0.0,-1.2492,-1.2432,-1.2425,-1.2492,-1.2697,-1.2817,-1.2884,-1.3086,-1.3213,0.0,-1.3273,-1.3307,-1.328,-1.3848,-1.4088,-1.4088,-1.4088,-1.4088,-1.4088,-1.4088,-1.4088,-1.4062,-1.3828,-1.37,-1.3666,-1.348,-1.336,-1.3313,0.0,0.0,0.0,0.0,0.0,0.0,0.0,0.0,-0.4274,-0.447,-0.4491,-0.4491,-0.4491,-0.4491,0.0,0.0,-0.4491,-0.4491,-0.4491,-0.4491,-0.4491,0.0,0.0,0.0,0.0,0.0,0.0,0.0,0.0,0.0,0.0,0.0,0.0,-0.4491,0.0,-0.4491,0.0,0.0,-0.4491,-0.4491,-0.4491,-0.4491,-0.457,-0.5246,-0.5515,-0.5597,-0.634,0.0,0.0,0.0,0.0,0.0,0.0,0.0,-0.8557,-0.8876,-0.9132,-0.9319,0.0,0.0,0.0,0.0,0.0,0.0,0.0,0.0,0.0,0.0,0.0,0.0,0.0,0.0,0.0,0.0,0.0,0.0,0.0,0.0,0.0,0.0,0.0,0.0,0.0,0.0,0.0,0.0,0.0,-1.2305,-1.2305,-1.2305,-1.2305,-1.2305,-1.2452,-1.2569,-1.2569,-1.2699,-1.2772,-1.2779,-1.2919,-1.3066,-1.322,-1.3527,-1.3667,-1.3674,-1.3814,-1.3794,-1.3681,-1.3821,-1.3794,-1.3654,-1.35,-1.34,-1.3373,-1.3267,-1.312,-1.3013,0.0,0.0,0.0,0.0,0.0,0.0,0.0,0.0,0.0,-0.4474,-0.4491,-0.4491,-0.4491,-0.4491,-0.4491,0.0,0.0,0.0,-0.4491,-0.4491,-0.4491,-0.4491,0.0,0.0,0.0,0.0,0.0,0.0,0.0,0.0,0.0,0.0,0.0,-0.4491,0.0,0.0,0.0,-0.4491,-0.4491,-0.4491,-0.4491,-0.4491,-0.457,-0.5113,-0.5324,-0.541,-0.6014,-0.6236,-0.6236,-0.6236,0.0,0.0,0.0,0.0,-0.8065,-0.8901,-0.9004,-0.9038,0.0,0.0,0.0,0.0,0.0,0.0,0.0,0.0,0.0,0.0,0.0,0.0,0.0,0.0,0.0,0.0,0.0,0.0,0.0,0.0,0.0,0.0,0.0,0.0,0.0,0.0,0.0,0.0,0.0,-1.2305,-1.2305,-1.2305,-1.2305,-1.2305,-1.2305,-1.2305,-1.2305,-1.2305,-1.2305,-1.2305,-1.2589,-1.2844,-1.3053,-1.3053,-1.3113,-1.3227,-1.342,-1.3393,-1.3227,-1.3427,-1.3387,-1.3206,-1.3153,-1.3133,-1.3126,-1.3073,-1.2893,-1.2744,0.0,0.0,0.0,0.0,0.0,0.0,0.0,0.0,0.0,0.0,-0.4491,-0.4491,-0.4491,-0.4491,-0.4491,-0.4491,-0.4491,-0.4491,-0.4491,0.0,0.0,0.0,0.0,0.0,0.0,0.0,0.0,0.0,0.0,0.0,0.0,0.0,0.0,-0.4491,0.0,0.0,0.0,-0.4491,-0.4491,-0.4491,-0.4491,-0.4491,-0.4519,-0.4598,-0.4625,-0.4653,-0.4736,-0.4791,-0.4791,-0.4791,-0.5582,0.0,0.0,0.0,-0.8679,-0.8825,-0.8991,-0.9178,0.0,0.0,0.0,0.0,0.0,0.0,0.0,0.0,0.0,0.0,0.0,0.0,0.0,0.0,0.0,0.0,0.0,0.0,0.0,0.0,0.0,0.0,0.0,0.0,0.0,0.0,0.0,0.0,-1.2305,-1.2305,-1.2305,-1.2305,-1.2305,-1.2305,-1.2305,-1.2305,-1.2305,-1.2305,-1.2305,-1.2305,-1.2345,-1.2385,-1.2425,-1.2425,-1.2712,-1.3213,-1.3253,-1.3247,-1.3213,-1.3253,-1.3247,-1.318,-1.2951,-1.2844,-1.2817,-1.2518,-1.2398,-1.2365,0.0,0.0,0.0,0.0,0.0,0.0,0.0,0.0,0.0,0.0,0.0,-0.4491,-0.4491,-0.4491,-0.4491,-0.4491,-0.4491,-0.4491,-0.4491,-0.4491,0.0,0.0,0.0,0.0,0.0,0.0,0.0,0.0,0.0,0.0,0.0,-0.4651,-0.4665,0.0,0.0,0.0,0.0,-0.4528,-0.4491,-0.4491,-0.4491,-0.4542,-0.461,-0.4525,-0.4542,-0.4607,-0.4522,-0.4491,-0.4491,-0.4491,-0.4901,-0.5496,-0.5873,0.0,0.0,0.0,0.0,0.0,-0.9399,0.0,0.0,0.0,0.0,0.0,0.0,0.0,0.0,0.0,0.0,0.0,0.0,0.0,0.0,0.0,0.0,0.0,0.0,0.0,0.0,0.0,0.0,0.0,0.0,0.0,0.0,0.0,-1.2305,-1.2305,-1.2305,-1.2305,-1.2305,-1.2305,-1.2305,-1.2305,-1.2305,-1.2305,-1.2305,-1.2305,-1.2305,-1.2305,-1.2305,-1.2305,-1.2445,-1.2712,-1.2879,-1.2859,-1.2712,-1.2886,-1.2852,-1.2685,-1.2552,-1.2536,-1.2516,-1.2351,-1.2305,-1.2305,0.0,0.0,0.0,0.0,0.0,0.0,0.0,0.0,0.0,0.0,0.0,-0.4491,-0.4491,0.0,0.0,0.0,-0.4491,-0.4491,-0.4491,0.0,0.0,0.0,0.0,0.0,0.0,0.0,0.0,0.0,0.0,0.0,-0.4691,-0.4691,-0.4792,0.0,-0.4816,-0.4728,0.0,-0.4597,-0.4549,-0.4549,-0.4549,-0.4617,-0.468,-0.4634,-0.4679,-0.4728,-0.4604,-0.4549,-0.4542,-0.4501,-0.4625,-0.4842,-0.5351,-0.6009,0.0,0.0,0.0,0.0,0.0,0.0,0.0,0.0,0.0,0.0,0.0,0.0,0.0,0.0,0.0,0.0,0.0,0.0,0.0,0.0,0.0,0.0,0.0,0.0,0.0,0.0,0.0,0.0,0.0,0.0,0.0,0.0,-1.2305,-1.2305,-1.2305,-1.2231,-1.2225,-1.2298,-1.2158,-1.2151,-1.2305,-1.2305,-1.2305,-1.2305,-1.2305,-1.2305,-1.2305,-1.2305,-1.2305,-1.2311,-1.2569,-1.2543,-1.2318,-1.2583,-1.2543,-1.2305,-1.2305,-1.2305,-1.2305,-1.2305,-1.2305,-1.2305,0.0,0.0,0.0,0.0,0.0,0.0,0.0,0.0,0.0,0.0,0.0,-0.4491,-0.4491,-0.4491,-0.4491,-0.4491,-0.4491,-0.4491,-0.4491,0.0,0.0,0.0,0.0,0.0,0.0,0.0,0.0,0.0,0.0,0.0,-0.4691,-0.4691,-0.4843,-0.5079,-0.4938,-0.4826,-0.4691,-0.468,-0.4677,-0.4677,-0.4677,-0.4684,-0.4707,-0.4843,-0.487,-0.4857,-0.4735,-0.4677,-0.4657,-0.4539,-0.4921,-0.546,-0.5483,-0.6009,-0.6615,0.0,0.0,0.0,0.0,0.0,0.0,0.0,0.0,0.0,0.0,0.0,0.0,0.0,0.0,0.0,0.0,0.0,0.0,0.0,0.0,0.0,0.0,0.0,0.0,0.0,0.0,0.0,0.0,0.0,0.0,0.0,-1.2305,-1.2305,-1.2305,-1.2044,-1.2053,-1.2291,-1.1764,-1.1702,-1.2298,-1.2305,-1.2305,-1.2305,-1.2305,-1.2305,-1.2305,-1.2305,-1.2305,-1.2305,-1.2318,-1.2318,-1.2305,-1.2318,-1.2318,-1.2305,-1.2305,-1.2305,-1.2305,-1.2305,-1.2305,-1.2305,0.0,0.0,0.0,0.0,0.0,0.0,0.0,0.0,0.0,0.0,0.0,0.0,0.0,-0.4491,-0.4491,-0.4491,-0.4491,0.0,0.0,0.0,0.0,0.0,0.0,0.0,0.0,0.0,0.0,0.0,0.0,-0.4569,-0.4691,-0.4691,-0.4748,-0.4847,-0.4796,-0.4796,-0.4823,-0.4655,-0.4573,-0.458,-0.4679,-0.4752,-0.4843,-0.4867,-0.4945,-0.5005,-0.4891,-0.4772,-0.468,-0.4655,-0.4734,-0.4866,-0.4866,-0.5328,-0.5982,-0.6453,-0.6588,0.0,0.0,0.0,0.0,0.0,0.0,0.0,0.0,0.0,0.0,0.0,0.0,0.0,0.0,0.0,0.0,0.0,0.0,0.0,0.0,0.0,0.0,0.0,0.0,0.0,0.0,0.0,0.0,0.0,0.0,-1.2218,-1.2037,-1.196,-1.1866,-1.1744,-1.1502,-1.1495,-1.1737,-1.1931,-1.2024,-1.2067,-1.2211,-1.2305,-1.2305,-1.2305,-1.2305,-1.2305,-1.2305,-1.2305,-1.2305,-1.2305,-1.2305,-1.2305,-1.2305,-1.2305,-1.2305,-1.2305,-1.2305,-1.2305,0.0,0.0,0.0,-0.4491,0.0,-0.4491,-0.4491,-0.4491,-0.4491,-0.4491,0.0,0.0,0.0,0.0,-0.4491,-0.4491,-0.4491,-0.4491,-0.4491,0.0,0.0,0.0,0.0,0.0,0.0,0.0,0.0,0.0,0.0,0.0,0.0,-0.4641,-0.4672,-0.4687,-0.4665,-0.4701,0.0,0.0,0.0,-0.458,-0.4707,-0.4826,-0.4897,-0.503,-0.5125,-0.5189,-0.5012,-0.4925,-0.483,-0.4782,-0.4667,-0.4566,-0.4566,-0.4831,-0.5273,-0.5741,-0.5909,-0.5991,-0.643,0.0,0.0,0.0,0.0,0.0,0.0,0.0,0.0,0.0,0.0,0.0,0.0,0.0,0.0,0.0,0.0,0.0,0.0,0.0,0.0,0.0,0.0,0.0,0.0,0.0,0.0,0.0,0.0,0.0,-1.1737,-1.1665,-1.1443,-1.1142,-1.1323,-1.1342,-1.1283,-1.1705,-1.1906,-1.1906,-1.2164,-1.2305,-1.2305,-1.2305,-1.2305,-1.2305,-1.2305,-1.2305,-1.2305,-1.2305,-1.2305,-1.2305,-1.2305,-1.2305,-1.2305,-1.2305,-1.2305,-1.2305,-0.4491,-0.4491,-0.4491,-0.4491,-0.4491,-0.4491,-0.4491,-0.4491,-0.4491,-0.4491,0.0,0.0,0.0,0.0,0.0,-0.4491,-0.4491,-0.4491,-0.4491,-0.4491,0.0,0.0,0.0,0.0,0.0,0.0,0.0,0.0,0.0,0.0,0.0,0.0,-0.4569,-0.4677,-0.4556,-0.4573,-0.4684,-0.4684,-0.4687,-0.4704,-0.4853,-0.4887,-0.4955,-0.5276,-0.5392,-0.5375,-0.5189,-0.5103,0.0,-0.4941,-0.4819,-0.4691,-0.4684,-0.461,-0.4491,-0.4491,-0.4491,-0.4653,0.0,0.0,0.0,0.0,0.0,0.0,0.0,0.0,0.0,0.0,0.0,0.0,0.0,0.0,0.0,0.0,0.0,0.0,0.0,0.0,0.0,0.0,0.0,0.0,0.0,0.0,0.0,0.0,-1.1906,-1.1737,-1.1361,-1.1069,-1.0783,-1.0536,-1.1042,-1.1161,-1.0916,-1.1487,-1.1786,-1.1822,-1.2121,-1.2261,-1.2261,-1.2298,-1.2305,-1.2305,-1.2305,-1.2305,-1.2305,-1.2305,-1.2305,-1.2305,-1.2305,-1.2305,-1.2305,-1.2305,-1.2305,-1.2305,-0.4491,-0.4491,-0.4491,-0.4491,-0.4491,-0.4491,-0.4491,-0.4491,-0.4491,0.0,0.0,0.0,-0.4491,-0.4491,-0.4491,-0.4491,-0.4491,-0.4491,-0.4491,-0.4491,-0.4491,-0.4491,-0.4491,-0.4491,0.0,0.0,0.0,0.0,0.0,0.0,0.0,0.0,0.0,-0.4552,-0.4508,-0.4511,-0.4552,-0.4552,0.0,-0.4694,-0.4735,-0.4884,0.0,0.0,0.0,0.0,0.0,-0.5226,-0.5093,0.0,-0.4901,-0.467,-0.459,-0.4525,-0.4491,-0.4491,-0.4491,-0.4546,-0.4732,0.0,0.0,0.0,0.0,0.0,0.0,0.0,0.0,0.0,0.0,0.0,0.0,0.0,0.0,0.0,0.0,0.0,0.0,0.0,0.0,0.0,0.0,0.0,0.0,0.0,0.0,0.0,-1.1906,-1.1399,-1.0224,-0.9305,-0.8809,-0.871,-0.887,-0.8903,-0.8837,-0.9285,-0.9493,-0.9539,-1.0687,-1.1199,-1.1236,-1.1959,-1.2305,-1.2305,-1.2305,-1.2305,-1.2305,-1.2305,-1.2305,-1.2305,-1.2305,-1.2305,-1.2305,-1.2305,-1.2305,-1.2305,-0.4491,-0.4491,-0.4491,-0.4491,-0.4491,-0.4491,-0.4491,-0.4491,-0.4491,0.0,0.0,0.0,-0.4491,-0.4491,-0.4491,-0.4491,-0.4491,-0.4491,-0.4491,-0.4491,-0.4491,-0.4491,-0.4491,-0.4491,-0.4491,0.0,0.0,0.0,0.0,0.0,0.0,0.0,0.0,0.0,-0.4491,-0.4491,-0.4491,-0.4491,-0.4542,0.0,-0.4735,0.0,0.0,-0.5179,-0.5284,0.0,0.0,0.0,-0.5226,-0.5226,-0.503,-0.4758,-0.4634,-0.4586,-0.4573,-0.4508,-0.4535,-0.4573,-0.4508,-0.4491,-0.4664,-0.5298,0.0,0.0,0.0,-0.7005,0.0,0.0,0.0,0.0,0.0,0.0,0.0,0.0,0.0,0.0,0.0,0.0,0.0,0.0,0.0,0.0,0.0,-1.204,-1.1797,-1.0598,-1.0897,-1.0522,-0.908,-0.8359,-0.7994,-0.7994,-0.7994,-0.7994,-0.7994,-0.8344,-0.8533,-0.8629,-0.9598,-1.0127,-1.019,-1.0795,-1.1285,-1.1657,-1.1657,-1.1922,-1.2305,-1.2305,-1.2305,-1.2305,-1.2305,-1.2305,-1.2305,-1.2305,-1.2305,-1.2305,0.0,-0.4491,-0.4491,-0.4491,-0.4491,-0.4491,-0.4491,-0.4491,-0.4491,0.0,-0.4491,-0.4491,-0.4491,-0.4491,-0.4491,-0.4491,-0.4491,-0.4491,-0.4491,-0.4491,-0.4491,-0.4491,-0.4491,-0.4491,-0.4491,-0.4491,0.0,0.0,0.0,0.0,0.0,0.0,0.0,0.0,-0.4491,-0.4491,-0.4491,-0.4491,-0.4501,-0.4539,-0.4782,-0.4884,0.0,0.0,-0.5382,-0.5395,-0.5395,-0.5395,-0.5392,-0.5375,-0.5162,0.0,-0.4745,-0.4704,-0.468,-0.4539,-0.461,-0.468,-0.4556,-0.4528,-0.4569,-0.466,-0.4631,0.0,-0.5945,-0.612,-0.6376,0.0,0.0,0.0,0.0,0.0,0.0,0.0,0.0,0.0,0.0,0.0,0.0,0.0,0.0,0.0,-1.0901,-1.1508,-1.1034,-0.8796,-0.9319,-0.9191,-0.7917,-0.7767,-0.7702,-0.7702,-0.7702,-0.7702,-0.7702,-0.7979,-0.8162,-0.8277,-0.8718,-0.898,-0.9145,-0.9233,-0.9755,-1.064,-1.064,-1.1205,-1.215,-1.215,-1.2187,-1.2305,-1.2305,-1.2305,-1.2305,-1.2305,-1.2305,-1.2305,-0.4491,-0.4491,-0.4491,-0.4491,-0.4491,-0.4491,-0.4491,-0.4491,-0.4491,-0.4491,-0.4491,-0.4491,-0.4491,-0.4491,-0.4491,-0.4491,-0.4491,-0.4491,-0.4491,-0.4491,-0.4491,-0.4491,-0.4491,-0.4491,-0.4491,-0.4491,0.0,0.0,0.0,0.0,0.0,0.0,0.0,0.0,-0.4491,-0.4491,-0.4491,-0.4491,-0.4559,-0.4653,-0.4711,0.0,-0.5063,-0.512,-0.5254,-0.5395,-0.5395,-0.5395,-0.5375,-0.5216,-0.5106,-0.5012,0.0,-0.4775,-0.4819,-0.4573,-0.4657,-0.4843,-0.4687,-0.4735,-0.4809,-0.4714,-0.4762,0.0,-0.4855,-0.4923,-0.5268,0.0,0.0,0.0,0.0,0.0,0.0,0.0,0.0,0.0,0.0,0.0,0.0,0.0,0.0,0.0,-1.082,-1.0233,-0.959,-0.8824,-0.7995,-0.7364,-0.6957,-0.6272,-0.5918,-0.5918,-0.5918,-0.5918,-0.5918,-0.6082,-0.6209,-0.6369,-0.725,-0.781,-0.8118,-0.8812,-0.931,-0.9593,-0.9593,-1.0153,-1.1087,-1.1087,-1.1576,-1.2305,-1.2305,-1.2305,-1.2305,-1.2305,-1.2305,-1.2305,-0.4491,-0.4491,-0.4491,-0.4491,-0.4491,-0.4491,-0.4491,-0.4491,-0.4518,-0.4593,-0.4604,-0.4576,-0.4498,-0.4491,-0.4491,-0.4491,-0.4491,-0.4491,-0.4491,-0.4491,-0.4491,-0.4491,-0.4491,-0.4491,-0.4491,-0.4491,-0.4491,0.0,0.0,0.0,0.0,0.0,0.0,0.0,-0.4491,-0.4491,-0.4491,-0.4491,-0.4535,-0.4617,-0.4745,0.0,-0.5106,-0.5216,-0.5327,-0.5395,-0.5395,-0.5395,-0.5371,-0.5182,-0.51,0.0,-0.4874,-0.4904,-0.4935,0.0,-0.4738,-0.4887,-0.4731,-0.4748,-0.4806,-0.4806,0.0,0.0,0.0,-0.4691,-0.4877,-0.5438,0.0,0.0,0.0,0.0,0.0,0.0,0.0,0.0,0.0,0.0,0.0,0.0,0.0,0.0,-0.9362,-0.9291,-0.8968,-0.8123,-0.6923,-0.6192,-0.6053,-0.562,-0.5395,-0.5395,-0.5395,-0.5395,-0.5395,-0.547,-0.5583,-0.5694,-0.6218,-0.6591,-0.68,-0.7315,-0.788,-0.8389,-0.8495,-0.9107,-1.004,-1.004,-1.064,-1.1583,-1.2114,-1.2305,-1.2305,-1.2305,-1.2305,-1.2305,-0.4491,-0.4491,-0.4491,-0.4491,-0.4491,-0.4491,-0.4491,-0.4491,-0.4545,-0.467,-0.4718,-0.4687,-0.4593,-0.458,-0.459,-0.4617,-0.4593,-0.458,-0.458,-0.4549,-0.4522,-0.4491,-0.4491,-0.4491,-0.4491,-0.4491,-0.4491,0.0,0.0,0.0,0.0,0.0,0.0,0.0,0.0,0.0,0.0,0.0,0.0,-0.4638,0.0,-0.4938,-0.5032,-0.5247,-0.5351,-0.5354,-0.5385,-0.5395,-0.5375,-0.5216,-0.5143,-0.5117,-0.4975,-0.5026,0.0,0.0,0.0,-0.4972,-0.4816,0.0,-0.4836,0.0,0.0,-0.4785,0.0,0.0,0.0,-0.4958,0.0,0.0,0.0,0.0,0.0,0.0,0.0,0.0,0.0,0.0,0.0,0.0,0.0,0.0,0.0,-0.8292,-0.8212,-0.7095,-0.6119,-0.5556,-0.5402,-0.5395,-0.5395,-0.5395,-0.5395,-0.5395,-0.5395,-0.5395,-0.5474,-0.5589,-0.5559,-0.5637,-0.5803,-0.5928,-0.6404,-0.7212,-0.7437,-0.8084,-0.8998,-0.8998,-0.9593,-1.0602,-1.162,-1.2114,-1.2305,-1.2305,-1.2305,-1.2305,-0.4491,-0.4491,-0.4491,-0.4491,-0.4491,-0.4491,-0.4491,-0.4491,-0.4545,-0.467,-0.4809,-0.4887,-0.487,-0.4867,-0.4887,-0.5012,-0.4911,-0.4867,-0.4867,-0.4741,-0.4634,-0.4494,-0.4491,-0.4491,-0.4491,-0.4491,-0.4491,-0.4491,0.0,0.0,0.0,0.0,-0.4491,-0.4491,-0.4491,0.0,0.0,0.0,-0.472,0.0,-0.4924,-0.4847,0.0,-0.505,-0.5123,-0.5143,-0.5344,-0.5395,-0.5392,0.0,-0.5368,-0.5341,0.0,-0.5213,-0.531,-0.4979,0.0,0.0,0.0,0.0,0.0,0.0,-0.4968,0.0,0.0,0.0,-0.466,-0.4586,0.0,0.0,0.0,0.0,0.0,0.0,0.0,0.0,0.0,0.0,0.0,0.0,0.0,0.0,0.0,-0.6831,-0.6279,-0.5993,-0.5741,-0.5556,-0.5402,-0.5395,-0.5395,-0.5395,-0.5395,-0.5395,-0.5395,-0.5395,-0.5474,-0.5589,-0.5487,-0.5566,-0.58,-0.582,-0.5938,-0.6183,-0.6384,-0.7022,-0.797,-0.797,-0.8575,-0.9561,-1.0565,-1.1502,-1.2305,-1.2305,-1.2305,-1.2305,-0.4491,-0.4491,-0.4491,-0.4491,-0.4491,-0.4491,-0.4491,-0.4709,-0.4874,-0.4938,-0.5081,-0.5176,-0.5176,-0.5094,-0.5069,-0.525,-0.5128,-0.5012,-0.5012,-0.4819,-0.4663,-0.4627,-0.4539,-0.4491,-0.4491,-0.4491,-0.4491,-0.4491,-0.4491,0.0,0.0,0.0,-0.4491,-0.4494,-0.4583,0.0,-0.4687,0.0,-0.4704,0.0,0.0,0.0,0.0,-0.5118,-0.5264,-0.5274,-0.5371,-0.5453,-0.5501,0.0,-0.5345,0.0,0.0,0.0,0.0,-0.5104,0.0,0.0,0.0,0.0,0.0,0.0,0.0,0.0,-0.4685,0.0,-0.4593,0.0,0.0,0.0,0.0,0.0,0.0,0.0,0.0,0.0,0.0,0.0,0.0,0.0,0.0,0.0,0.0,0.0,0.0,0.0,-0.5623,-0.5556,-0.5402,-0.5395,-0.5395,-0.5395,-0.5395,-0.5395,-0.5395,-0.5395,-0.5426,-0.5491,-0.5426,-0.546,-0.5583,-0.5637,-0.5759,-0.5905,-0.6061,-0.644,-0.6945,-0.6945,-0.7514,-0.8466,-0.8912,-0.9664,-1.0651,-1.1205,-1.1428,-1.1502,-0.3873,-0.4042,-0.4236,-0.446,-0.4322,-0.4265,-0.4575,-0.4684,-0.4848,-0.5185,-0.5152,-0.5175,-0.5481,-0.5382,-0.5376,-0.5532,-0.5403,-0.5282,-0.5282,-0.4999,-0.4813,-0.4813,-0.4614,-0.4508,-0.4552,-0.4511,-0.4491,-0.4491,-0.4491,0.0,0.0,0.0,0.0,-0.4498,0.0,-0.4714,-0.4755,0.0,-0.4799,-0.4904,-0.4904,-0.4928,-0.4965,-0.5238,-0.5358,-0.5395,-0.5395,-0.5467,-0.5501,-0.5318,-0.5376,0.0,-0.5359,0.0,-0.5436,0.0,0.0,0.0,-0.5206,0.0,0.0,0.0,0.0,0.0,0.0,0.0,0.0,0.0,0.0,0.0,0.0,0.0,0.0,0.0,0.0,0.0,0.0,0.0,0.0,0.0,0.0,0.0,0.0,0.0,0.0,0.0,0.0,-0.5515,-0.5399,-0.5395,-0.5395,-0.5395,-0.5395,-0.5395,-0.5395,-0.5395,-0.5395,-0.5395,-0.5395,-0.5395,-0.5399,-0.5552,-0.5647,-0.5752,-0.5909,-0.6095,-0.6238,-0.6282,-0.6718,-0.7403,-0.7403,-0.7821,-0.8613,-0.9927,-1.0378,-1.0527,-0.2286,-0.2843,-0.3594,-0.4377,-0.3846,-0.3702,-0.4736,-0.4284,-0.425,-0.5415,-0.4809,-0.4632,-0.5679,-0.5783,-0.584,-0.5956,-0.5867,-0.5779,-0.5779,-0.5329,-0.5083,-0.5083,-0.4697,-0.4559,-0.468,-0.4566,-0.4491,-0.4491,-0.4491,-0.4491,0.0,0.0,0.0,0.0,-0.4651,-0.4772,-0.4881,-0.4881,-0.5077,-0.5375,-0.5375,-0.546,-0.5528,0.0,-0.5233,-0.5395,-0.5395,0.0,0.0,-0.5528,-0.5518,0.0,0.0,0.0,0.0,0.0,0.0,0.0,0.0,0.0,0.0,-0.4996,0.0,0.0,0.0,0.0,-0.4684,0.0,0.0,0.0,0.0,0.0,-0.4857,-0.4714,0.0,0.0,0.0,0.0,0.0,0.0,0.0,0.0,0.0,0.0,0.0,0.0,0.0,0.0,-0.5395,-0.5395,-0.5395,-0.5395,-0.5395,-0.5395,-0.5395,-0.5395,-0.5395,-0.5395,-0.5395,-0.5395,-0.5399,-0.5552,-0.5593,-0.5613,-0.5901,-0.5996,-0.6013,-0.6238,-0.6338,-0.6338,-0.6338,-0.6377,-0.6644,-0.8618,-0.9334,-0.9485,-0.219,-0.2019,-0.209,-0.2854,-0.2754,-0.273,-0.3219,-0.3161,-0.3237,-0.374,-0.3556,-0.3505,-0.3966,-0.3944,-0.3944,-0.4079,-0.3962,-0.4165,-0.4905,-0.4488,-0.459,-0.5396,-0.5003,-0.4833,-0.4948,-0.4741,-0.4641,-0.4641,-0.4539,-0.4491,0.0,0.0,0.0,0.0,0.0,-0.4775,0.0,0.0,0.0,0.0,0.0,-0.5599,-0.5698,0.0,0.0,-0.5545,-0.5545,-0.5637,0.0,-0.5745,-0.5762,-0.5803,-0.58,-0.5769,-0.5711,-0.5616,-0.5589,0.0,0.0,0.0,-0.544,-0.5103,0.0,0.0,0.0,0.0,0.0,0.0,0.0,0.0,0.0,0.0,-0.487,-0.485,-0.4854,0.0,0.0,0.0,0.0,0.0,0.0,0.0,0.0,0.0,0.0,0.0,-0.5365,0.0,0.0,-0.5395,-0.5395,-0.5395,-0.5395,-0.5395,-0.5395,-0.5395,-0.5395,-0.5395,-0.5395,-0.5395,-0.5395,-0.545,-0.5528,-0.5596,-0.5694,-0.5847,-0.5996,-0.6088,-0.6169,-0.63,-0.63,-0.63,-0.6451,-0.7821,-0.8313,-0.8466,-0.1429,-0.1036,-0.1025,-0.2026,-0.2247,-0.2365,-0.2528,-0.237,-0.2379,0.0,-0.2659,0.0,-0.306,0.0,-0.3008,0.0,-0.3019,-0.3271,-0.3958,-0.3635,-0.3786,-0.4599,-0.4194,-0.3998,-0.417,-0.4257,-0.4287,-0.4249,-0.4475,-0.4542,0.0,0.0,0.0,0.0,0.0,-0.4826,-0.4897,-0.5091,-0.5068,0.0,0.0,-0.4888,0.0,0.0,-0.4951,-0.5664,0.0,-0.5786,-0.5905,-0.5898,-0.5911,-0.5952,-0.5962,-0.5891,-0.5783,-0.5691,-0.563,-0.5555,-0.5436,-0.5508,0.0,-0.5177,-0.5181,0.0,-0.4853,0.0,0.0,0.0,0.0,0.0,0.0,0.0,0.0,-0.5077,-0.503,-0.4921,0.0,-0.4672,0.0,0.0,0.0,0.0,0.0,0.0,-0.5254,-0.5216,0.0,0.0,0.0,0.0,-0.5395,-0.5395,-0.5395,-0.5395,-0.5395,-0.5395,-0.5395,-0.5395,-0.5395,-0.5395,-0.5395,-0.5395,-0.545,-0.5545,-0.5566,-0.5698,-0.5881,-0.5949,-0.6088,-0.6183,-0.6279,-0.63,-0.6377,-0.7022,-0.748,-0.7897,0.0,0.0,-0.045,-0.1847,-0.2265,0.0,0.0,0.0,-0.1657,0.0,-0.2112,-0.1886,-0.2846,-0.2941,-0.2966,-0.2949,-0.2934,-0.2982,-0.3028,-0.2768,0.0,-0.2914,-0.2462,-0.2325,-0.2499,-0.324,-0.3537,-0.3421,-0.4287,-0.4644,0.0,0.0,0.0,0.0,-0.4775,0.0,-0.4918,-0.5349,-0.4913,-0.3888,-0.3062,-0.3395,-0.4318,-0.316,-0.3964,-0.5666,-0.5702,-0.5745,-0.5771,-0.5956,-0.5942,-0.5874,-0.6207,-0.6098,-0.582,-0.5806,-0.5711,-0.5576,-0.545,-0.5525,-0.5542,-0.5204,0.0,0.0,0.0,0.0,-0.5351,0.0,0.0,0.0,0.0,0.0,0.0,-0.5395,-0.5233,-0.5002,0.0,0.0,0.0,0.0,0.0,0.0,0.0,-0.4863,-0.4917,-0.5341,-0.5216,0.0,0.0,0.0,-0.5402,-0.5395,-0.5402,-0.5402,-0.5395,-0.5395,-0.5395,-0.5395,-0.5395,-0.5395,-0.5395,-0.5395,-0.5395,-0.5402,-0.5549,-0.5583,-0.561,-0.5891,-0.5976,-0.5996,-0.619,-0.6293,-0.63,-0.63,-0.6911,-0.7744,0.0,0.0,-0.0135,0.0,-0.0598,-0.0639,0.0,0.0,0.0,0.0,-0.0584,-0.0505,-0.0774,-0.0798,-0.0781,-0.0813,-0.0808,0.0,0.0,0.0,0.0,-0.3026,-0.2742,-0.2658,-0.2785,-0.3432,-0.3745,-0.369,-0.4366,0.0,-0.4658,0.0,0.0,0.0,0.0,0.0,-0.4874,-0.4443,-0.384,-0.3175,-0.3052,-0.3199,0.0,0.0,-0.3336,-0.3883,-0.4588,-0.4905,-0.5102,-0.5953,-0.6214,-0.6194,-0.6276,-0.6245,-0.6136,-0.5867,-0.5854,-0.5861,-0.5603,-0.5722,-0.5871,-0.5677,-0.5688,-0.5657,0.0,0.0,0.0,0.0,0.0,0.0,0.0,0.0,0.0,0.0,-0.5233,-0.5073,0.0,0.0,0.0,-0.4802,0.0,0.0,-0.4668,-0.4867,-0.5023,-0.5033,-0.5199,0.0,0.0,0.0,0.0,-0.5399,-0.5504,-0.5511,-0.5395,-0.5395,-0.5395,-0.5395,-0.5395,-0.5395,-0.5395,-0.5395,-0.5395,-0.5395,-0.5436,-0.5518,-0.5596,-0.5671,-0.5766,-0.5874,-0.6027,-0.6159,-0.63,-0.63,-0.6451,-0.6683,0.0,0.0,0.0,0.0,0.0,0.0,0.0,0.0,0.0,0.0,0.0,0.0,0.0,0.0,0.0,0.0,0.0,0.0,-0.0865,0.0,0.0,-0.1733,-0.1592,-0.1543,-0.1624,-0.2323,-0.2676,-0.2613,-0.3699,0.0,-0.4126,0.0,0.0,0.0,0.0,-0.4627,-0.4259,-0.3166,-0.3063,-0.3497,-0.2262,0.0,0.0,-0.193,-0.2043,-0.2569,-0.3545,-0.4246,-0.4805,-0.5395,-0.5906,-0.63,-0.63,-0.6252,-0.6125,-0.5952,-0.5915,-0.5895,-0.5728,-0.585,-0.5956,-0.584,-0.5901,-0.5908,-0.5579,-0.5542,-0.5494,0.0,0.0,0.0,0.0,0.0,0.0,0.0,0.0,0.0,0.0,0.0,0.0,0.0,-0.4802,0.0,-0.4511,-0.4691,-0.486,-0.4884,-0.5074,0.0,0.0,0.0,0.0,-0.5399,-0.5481,-0.5484,-0.5395,-0.5395,-0.5395,-0.5395,-0.5395,-0.5395,-0.5395,-0.5395,-0.5395,-0.5395,-0.5395,-0.5443,-0.5528,-0.5562,-0.5637,-0.5732,-0.5909,-0.6125,-0.63,-0.63,-0.63,-0.63,0.0,0.0,0.0,0.0,0.0,0.0,0.0,0.0,0.0,0.0,0.0,0.0,0.0,0.0,0.0,0.0,0.0,0.0,0.0,0.0,0.0,0.0,0.0,0.0,0.0,-0.0852,-0.1246,-0.1115,-0.2705,-0.3399,0.0,0.0,0.0,0.0,0.0,0.0,0.0,-0.1881,-0.2327,-0.3694,-0.1039,-0.0573,-0.1286,-0.0347,-0.058,-0.1516,-0.2364,-0.3554,-0.4727,-0.4844,-0.5512,-0.63,-0.63,-0.6169,-0.602,-0.5996,-0.5949,-0.5857,-0.5837,-0.5942,-0.6027,-0.5895,-0.6102,-0.6187,-0.5715,-0.5711,-0.5718,-0.5457,-0.5412,-0.546,0.0,0.0,0.0,0.0,0.0,0.0,0.0,0.0,0.0,0.0,0.0,0.0,0.0,-0.4539,-0.4651,-0.487,-0.4894,0.0,0.0,0.0,0.0,-0.5395,-0.5416,-0.5416,-0.5395,0.0,-0.5395,-0.5395,-0.5395,-0.5395,-0.5395,-0.5395,-0.5395,-0.5395,-0.5395,-0.5395,-0.5405,-0.5539,-0.5583,-0.5644,-0.5898,-0.6105,-0.6293,-0.6252,-0.6265,-0.63,0.0,0.0,0.0,0.0,0.0,0.0,0.0,0.0,0.0,0.0,0.0,0.0,0.0,0.0,0.0,0.0,0.0,0.0,0.0,0.0,0.0,0.0,0.0,0.0,0.0,-0.0837,-0.128,-0.1249,-0.223,-0.2666,0.0,0.0,0.0,0.0,0.0,0.0,-0.1695,-0.1417,0.0,-0.0753,-0.0194,-0.0116,-0.0264,-0.0078,-0.0116,-0.0304,-0.0467,-0.2347,-0.4844,-0.5709,-0.6141,-0.63,-0.63,-0.6282,-0.6235,-0.6067,-0.6101,-0.619,-0.6023,-0.6101,-0.6252,-0.6224,-0.6259,-0.6211,-0.584,-0.5783,-0.5718,-0.5457,-0.5494,-0.5552,-0.5453,0.0,0.0,0.0,0.0,0.0,0.0,0.0,0.0,0.0,0.0,-0.485,0.0,-0.4765,-0.4809,-0.4735,0.0,0.0,0.0,0.0,0.0,0.0,-0.5518,0.0,0.0,0.0,-0.5395,-0.5395,-0.5395,-0.5395,-0.5395,-0.5395,-0.5395,-0.5395,-0.5395,-0.5395,-0.5395,-0.5423,-0.5579,-0.5769,-0.582,-0.6013,-0.6269,-0.5976,-0.6081,-0.63,0.0,0.0,0.0,0.0,0.0,0.0,0.0,0.0,0.0,0.0,0.0,0.0,0.0,0.0,0.0,0.0,0.0,0.0,0.0,0.0,0.0,0.0,0.0,0.0,0.0,-0.0421,-0.0631,-0.0643,-0.14,-0.1761,0.0,0.0,0.0,0.0,0.0,-0.1861,0.0,0.0,0.0,-0.0632,-0.0193,0.0,0.0,0.0,-0.0348,-0.0834,-0.0816,-0.2151,-0.3943,-0.4453,-0.5002,-0.555,-0.6141,-0.63,-0.6286,-0.6173,-0.6242,-0.6282,-0.6169,-0.6242,-0.63,-0.63,-0.6238,-0.6081,-0.5854,-0.5745,-0.563,-0.544,-0.5453,-0.5484,-0.5409,-0.5395,0.0,0.0,0.0,0.0,0.0,0.0,-0.531,0.0,0.0,0.0,0.0,0.0,0.0,0.0,0.0,0.0,0.0,0.0,0.0,0.0,0.0,0.0,0.0,0.0,0.0,-0.5395,-0.5395,-0.5395,-0.5395,-0.5395,-0.5395,-0.5395,-0.5395,-0.5395,-0.5402,-0.5481,-0.5562,-0.5705,-0.5861,-0.601,-0.6122,-0.5973,-0.6064,-0.6289,0.0,0.0,0.0,0.0,0.0,0.0,0.0,0.0,0.0,0.0,0.0,0.0,0.0,0.0,0.0,0.0,0.0,0.0,0.0,0.0,0.0,0.0,0.0,0.0,0.0,0.0,0.0,0.0,-0.0578,0.0,0.0,0.0,-0.1745,-0.1706,0.0,0.0,0.0,0.0,-0.0412,-0.0964,-0.0271,0.0,0.0,0.0,-0.0543,-0.126,-0.1245,-0.1761,-0.2461,-0.2696,-0.3476,-0.4491,-0.5354,-0.5628,-0.5628,-0.5628,-0.5786,-0.5944,-0.5944,-0.6141,-0.63,-0.63,-0.6142,-0.5952,-0.5837,-0.5691,-0.5545,-0.5426,-0.5395,-0.5395,-0.5395,-0.5395,0.0,0.0,0.0,0.0,0.0,0.0,0.0,0.0,0.0,0.0,-0.4576,0.0,0.0,0.0,0.0,0.0,0.0,0.0,0.0,0.0,0.0,-0.5395,-0.5395,0.0,-0.5395,0.0,-0.5395,-0.5395,-0.5395,-0.5395,-0.5395,-0.5395,-0.5395,-0.5395,-0.5405,-0.5562,-0.5589,-0.5613,-0.5844,-0.5939,-0.5979,-0.5922,-0.6047,-0.6269,0.0,0.0,0.0,0.0,0.0,0.0,0.0,0.0,0.0,0.0,0.0,0.0,0.0,0.0,0.0,0.0,0.0,0.0,0.0,0.0,0.0,0.0,0.0,0.0,0.0,0.0,0.0,0.0,0.0,-0.0102,0.0,0.0,-0.0217,-0.0191,0.0,0.0,0.0,-0.0075,-0.0038,-0.0117,-0.0039,0.0,0.0,0.0,-0.0078,-0.0157,-0.0157,-0.0196,-0.0431,-0.1411,-0.2425,-0.3279,-0.3357,-0.3396,-0.3396,-0.3396,-0.41,-0.4844,-0.4844,-0.555,-0.63,-0.63,-0.6142,-0.5952,-0.5837,-0.5691,-0.5545,-0.5426,-0.5395,-0.5395,-0.5395,-0.5395,-0.5395,0.0,0.0,0.0,0.0,0.0,-0.533,-0.51,0.0,0.0,0.0,0.0,0.0,0.0,0.0,0.0,0.0,0.0,0.0,-0.5388,0.0,-0.5395,-0.5395,-0.5395,-0.5395,-0.5395,-0.5395,-0.5395,-0.5395,-0.5395,-0.5395,-0.5395,-0.5395,-0.5395,-0.5405,-0.5562,-0.5589,-0.5593,-0.562,-0.5793,-0.5942,-0.5576,-0.5815,-0.6238,0.0,0.0,0.0,0.0,0.0,0.0,0.0,0.0,0.0,0.0,0.0,0.0,0.0,0.0,0.0,0.0,0.0,0.0,0.0,0.0,0.0,0.0,0.0,0.0,0.0,0.0,0.0,0.0,0.0,0.0,0.0,0.0,0.0,0.0,0.0,0.0,0.0,0.0,0.0,0.0,0.0,0.0,0.0,0.0,0.0,0.0,0.0,0.0,-0.0079,-0.051,-0.1332,-0.2308,-0.289,-0.3085,-0.3085,-0.3085,-0.3396,-0.3748,-0.3748,-0.4062,-0.4373,-0.4373,-0.4258,-0.4117,-0.4087,-0.4374,-0.464,-0.4579,-0.5024,-0.5395,-0.5395,-0.5395,-0.5395,0.0,0.0,0.0,0.0,0.0,0.0,-0.5117,0.0,-0.486,0.0,0.0,0.0,0.0,0.0,-0.4758,-0.4881,0.0,0.0,-0.5388,0.0,-0.5395,-0.5395,-0.5395,-0.5395,-0.5395,-0.5395,-0.5395,-0.5399,-0.5491,-0.5532,-0.5528,-0.5436,-0.5446,-0.5542,-0.5657,-0.5667,-0.5606,-0.5786,-0.5871,-0.5861,-0.5596,-0.5856,-0.6245,0.0,0.0,0.0,0.0,0.0,0.0,0.0,0.0,0.0,0.0,0.0,0.0,0.0,0.0,0.0,0.0,0.0,0.0,0.0,0.0,0.0,0.0,0.0,0.0,0.0,0.0,0.0,0.0,0.0,0.0,0.0,0.0,0.0,0.0,0.0,0.0,0.0,0.0,0.0,0.0,0.0,0.0,0.0,0.0,0.0,0.0,0.0,0.0,0.0,0.0,-0.051,-0.1254,-0.1956,-0.2189,-0.2189,-0.2189,-0.2423,-0.2657,-0.2657,-0.289,-0.3085,-0.3085,-0.3014,-0.2896,-0.2916,-0.3287,-0.3632,-0.3629,-0.4148,-0.4619,-0.4619,-0.4619,-0.4619,-0.4619,0.0,0.0,0.0,-0.4619,0.0,0.0,-0.4597,-0.4478,-0.4378,0.0,0.0,0.0,0.0,-0.4592,-0.4945,0.0,0.0,0.0,0.0,0.0,0.0,-0.5395,-0.5395,-0.5395,-0.5395,-0.5395,-0.5399,-0.5552,-0.5566,-0.5556,-0.5535,-0.5562,-0.5599,-0.5742,-0.5742,-0.5674,-0.5881,-0.5925,-0.585,-0.5705,-0.5948,-0.6255,0.0,0.0,0.0,0.0,0.0,0.0,0.0,0.0,0.0,0.0,0.0,0.0,0.0,0.0,0.0,0.0,0.0,0.0,0.0,0.0,0.0,0.0,0.0,0.0,0.0,0.0,0.0,0.0,0.0,0.0,0.0,0.0,0.0,0.0,0.0,0.0,0.0,0.0,0.0,0.0,0.0,0.0,0.0,0.0,0.0,0.0,0.0,0.0,0.0,0.0,0.0,-0.0039,-0.0039,-0.0039,-0.0039,-0.0039,-0.0784,-0.1607,-0.1607,-0.2347,-0.3085,-0.3085,-0.3015,-0.2906,-0.2904,-0.2788,-0.2711,-0.2711,-0.2711,-0.2744,-0.2744,-0.2744,-0.2744,-0.2744,0.0,0.0,0.0,0.0,0.0,-0.3729,-0.3688,-0.3623,-0.362,0.0,0.0,0.0,0.0,-0.4192,-0.5065,0.0,0.0,-0.5388,-0.5395,0.0,-0.5395,-0.5395,-0.5395,-0.5395,-0.5395,-0.5395,-0.5399,-0.5552,-0.5542,-0.5416,-0.5671,-0.5718,-0.5599,-0.5742,-0.58,-0.58,-0.5803,-0.5895,-0.5973,-0.5857,-0.5993,-0.6255,0.0,0.0,0.0,0.0,0.0,0.0,0.0,0.0,0.0,0.0,0.0,0.0,0.0,0.0,0.0,0.0,0.0,0.0,0.0,0.0,0.0,0.0,0.0,0.0,0.0,0.0,0.0,0.0,0.0,0.0,0.0,0.0,0.0,0.0,0.0,0.0,0.0,0.0,0.0,0.0,0.0,0.0,0.0,0.0,0.0,0.0,0.0,0.0,0.0,0.0,0.0,0.0,0.0,0.0,0.0,0.0,-0.0235,-0.051,-0.051,-0.0745,-0.0979,-0.0979,-0.0968,-0.0911,-0.0917,-0.136,-0.1942,-0.2577,-0.2711,-0.2711,-0.2711,-0.2711,-0.2711,-0.2711,-0.2711,0.0,0.0,0.0,-0.2802,-0.3006,-0.2932,-0.2851,0.0,-0.2682,0.0,0.0,0.0,0.0,0.0,0.0,0.0,0.0,-0.5395,0.0,-0.5395,-0.5395,-0.5395,-0.5395,-0.5395,-0.545,-0.5552,-0.5566,-0.5616,-0.5661,-0.5657,-0.5745,-0.5891,-0.5902,-0.5922,-0.5922,-0.5922,-0.5949,-0.5973,-0.5857,-0.5996,-0.6272,0.0,0.0,0.0,0.0,0.0,0.0,0.0,0.0,0.0,0.0,0.0,0.0,0.0,0.0,0.0,0.0,0.0,0.0,0.0,0.0,0.0,0.0,0.0,0.0,0.0,0.0,0.0,0.0,0.0,0.0,0.0,0.0,0.0,0.0,0.0,0.0,0.0,0.0,0.0,0.0,0.0,0.0,0.0,0.0,0.0,0.0,0.0,0.0,0.0,0.0,0.0,0.0,0.0,0.0,0.0,0.0,0.0,0.0,0.0,0.0,0.0,0.0,0.0,0.0,0.0,-0.042,-0.0986,-0.1579,-0.1677,-0.1677,-0.1677,-0.1677,-0.1677,-0.1677,-0.1677,-0.1677,-0.1677,0.0,0.0,0.0,0.0,0.0,0.0,-0.1865,-0.171,0.0,0.0,0.0,0.0,0.0,0.0,-0.4855,-0.4888,0.0,-0.5395,-0.5395,-0.5423,-0.5481,-0.5535,-0.5583,-0.5593,-0.5644,-0.5657,-0.564,-0.5722,-0.5827,-0.5952,-0.6067,-0.6115,-0.6115,-0.6115,-0.6115,-0.6105,-0.601,-0.6136,-0.6286,0.0,0.0,0.0,0.0,0.0,0.0,0.0,0.0,0.0,0.0,0.0,0.0,0.0,0.0,0.0,0.0,0.0,0.0,0.0,0.0,0.0,0.0,0.0,0.0,0.0,0.0,0.0,0.0,0.0,0.0,0.0,0.0,0.0,0.0,0.0,0.0,0.0,0.0,0.0,0.0,0.0,0.0,0.0,0.0,0.0,0.0,0.0,0.0,0.0,0.0,0.0,0.0,0.0,0.0,0.0,0.0,0.0,0.0,0.0,0.0,0.0,0.0,0.0,0.0,0.0,0.0,0.0,0.0,0.0,0.0,0.0,0.0,0.0,0.0,0.0,0.0,0.0,0.0,0.0,0.0,0.0,0.0,0.0,-0.1033,-0.0752,0.0,0.0,0.0,0.0,0.0,-0.295,-0.3871,-0.3897,-0.4364,-0.5309,-0.5319,-0.543,-0.5606,-0.5739,-0.5728,-0.5596,-0.5735,-0.565,-0.545,-0.5833,-0.5945,-0.5857,-0.618,-0.63,-0.63,-0.63,-0.63,-0.63,-0.63,-0.63,-0.63,0.0,0.0,0.0,0.0,0.0,0.0,0.0,0.0,0.0,0.0,0.0,0.0,0.0,0.0,0.0,0.0,0.0,0.0,0.0,0.0,0.0,0.0,0.0,0.0,0.0,0.0,0.0,0.0,0.0,0.0,0.0,0.0,0.0,0.0,0.0,0.0,0.0,0.0,0.0,0.0,0.0,0.0,0.0,0.0,0.0,0.0,0.0,0.0,0.0,0.0,0.0,0.0,0.0,0.0,0.0,0.0,0.0,0.0,0.0,0.0,0.0,0.0,0.0,0.0,0.0,0.0,0.0,0.0,0.0,0.0,0.0,0.0,0.0,0.0,0.0,0.0,0.0,0.0,0.0,0.0,-0.0267,-0.0267,-0.0267,-0.0267,-0.0201,0.0,0.0,0.0,0.0,-0.0512,-0.1369,-0.2953,-0.3004,-0.3419,-0.4317,-0.4445,-0.4894,-0.5752,-0.5786,-0.5728,-0.5596,-0.5735,-0.5762,-0.5701,-0.581,-0.5969,-0.6197,-0.6269,-0.63,-0.63,-0.63,-0.63,-0.63,-0.63,-0.63,-0.63,0.0,0.0,0.0,0.0,0.0,0.0,0.0,0.0,0.0,0.0,0.0,0.0,0.0,0.0,0.0,0.0,0.0,0.0,0.0,0.0,0.0,0.0,0.0,0.0,0.0,0.0,0.0,0.0,0.0,0.0,0.0,0.0,0.0,0.0,0.0,0.0,0.0,0.0,0.0,0.0,0.0,0.0,0.0,0.0,0.0,0.0,0.0,0.0,0.0,0.0,0.0,0.0,0.0,0.0,0.0,0.0,0.0,0.0,0.0,0.0,0.0,0.0,0.0,0.0,0.0,0.0,0.0,0.0,0.0,0.0,0.0,0.0,0.0,0.0,0.0,0.0,0.0,0.0,0.0,0.0,0.0,0.0,0.0,0.0,0.0,0.0,0.0,0.0,0.0,0.0,-0.0629,-0.2031,-0.2052,-0.249,-0.3409,-0.3538,-0.3914,-0.4467,-0.4551,-0.4741,-0.5102,-0.5168,-0.5394,-0.5711,-0.5847,-0.5962,-0.6098,-0.6242,-0.63,-0.63,-0.63,-0.63,-0.63,-0.63,-0.63,-0.63,0.0,0.0,0.0,0.0,0.0,0.0,0.0,0.0,0.0,0.0,0.0,0.0,0.0,0.0,0.0,0.0,0.0,0.0,0.0,0.0,0.0,0.0,0.0,0.0,0.0,0.0,0.0,0.0,0.0,0.0,0.0,0.0,0.0,0.0,0.0,0.0,0.0,0.0,0.0,0.0,0.0,0.0,0.0,0.0,0.0,0.0,0.0,0.0,0.0,0.0,0.0,0.0,0.0,0.0,0.0,0.0,0.0,0.0,0.0,0.0,0.0,0.0,0.0,0.0,0.0,0.0,0.0,0.0,0.0,0.0,0.0,0.0,0.0,0.0,0.0,0.0,0.0,0.0,0.0,0.0,0.0,0.0,0.0,0.0,0.0,0.0,0.0,0.0,0.0,0.0,-0.0354,-0.1096,-0.1109,-0.1575,-0.2533,-0.2756,-0.2899,-0.292,-0.3034,-0.3482,-0.4253,-0.4256,-0.4667,-0.5389,-0.5666,-0.5785,-0.5857,-0.6184,-0.63,-0.63,-0.63,-0.63,-0.63,-0.63,-0.63,-0.63,0.0,0.0,0.0,0.0,0.0,0.0,0.0,0.0,0.0,0.0,0.0,0.0,0.0,0.0,0.0,0.0,0.0,0.0,0.0,0.0,0.0,0.0,0.0,0.0,0.0,0.0,0.0,0.0,0.0,0.0,0.0,0.0,0.0,0.0,0.0,0.0,0.0,0.0,0.0,0.0,0.0,0.0,0.0,0.0,0.0,0.0,0.0,0.0,0.0,0.0,0.0,0.0,0.0,0.0,0.0,0.0,0.0,0.0,0.0,0.0,0.0,0.0,0.0,0.0,0.0,0.0,0.0,0.0,0.0,0.0,0.0,0.0,0.0,0.0,0.0,0.0,0.0,0.0,0.0,0.0,0.0,0.0,0.0,0.0,0.0,0.0,0.0,0.0,0.0,0.0,-0.007,-0.0188,-0.0187,-0.0718,-0.1742,-0.2421,-0.2834,-0.3066,-0.2993,-0.3002,-0.3163,-0.3135,-0.3595,-0.4439,-0.4651,-0.5194,-0.5973,-0.6224,-0.63,-0.63,-0.63,-0.63,-0.63,-0.63,-0.63,-0.63,0.2163,0.1762,0.1361,0.1109,0.0504,0.0,0.0,0.0,0.0,0.0,0.0,0.0,0.0,0.0,0.0,0.0,0.0,0.0,0.0,0.0,0.0,0.0,0.0,0.0,0.0,0.0,0.0,0.0,0.0,0.0,0.0,0.0,0.0,0.0,0.0,0.0,0.0,0.0,0.0,0.0,0.0,0.0,0.0,0.0,0.0,0.0,0.0,0.0,0.0,0.0,0.0,0.0,0.0,0.0,0.0,0.0,0.0,0.0,0.0,0.0,0.0,0.0,0.0,0.0,0.0,0.0,0.0,0.0,0.0,0.0,0.0,0.0,0.0,0.0,0.0,0.0,0.0,0.0,0.0,0.0,0.0,0.0,0.0,0.0,0.0,0.0,0.0,0.0,0.0,0.0,0.0,0.0,0.0,-0.023,-0.0745,-0.1059,-0.1323,-0.1448,-0.1378,-0.1638,-0.2193,-0.2218,-0.2674,-0.3524,-0.3678,-0.396,-0.4342,-0.4524,-0.4569,-0.4569,-0.4569,-0.4569,-0.4569,-0.4569,-0.4569,-0.4569,0.4016,0.3468,0.2867,0.2514,0.1611,0.0807,0.0504,0.0454,0.0353,0.0051,0.0,0.0,0.0,0.0,0.0,0.0,0.0,0.0,0.0,0.0,0.0,0.0,0.0,0.0,0.0,0.0,0.0,0.0,0.0,0.0,0.0,0.0,0.0,0.0,0.0,0.0,0.0,0.0,0.0,0.0,0.0,0.0,0.0,0.0,0.0,0.0,0.0,0.0,0.0,0.0,0.0,0.0,0.0,0.0,0.0,0.0,0.0,0.0,0.0,0.0,0.0,0.0,0.0,0.0,0.0,0.0,0.0,0.0,0.0,0.0,0.0,0.0,0.0,0.0,0.0,0.0,0.0,0.0,0.0,0.0,0.0,0.0,0.0,0.0,0.0,0.0,0.0,0.0,0.0,0.0,0.0,0.0,0.0,0.0,0.0,0.0,0.0,0.0,0.0,-0.0429,-0.1215,-0.124,-0.1721,-0.253,-0.2691,-0.28,-0.291,-0.3056,-0.3085,-0.3085,-0.3085,-0.3085,-0.3085,-0.3085,-0.3085,-0.3085,0.4016,0.3966,0.3915,0.3865,0.3765,0.3265,0.2063,0.1862,0.141,0.0151,0.0,0.0,0.0,0.0,0.0,0.0,0.0,0.0,0.0,0.0,0.0,0.0,0.0,0.0,0.0,0.0,0.0,0.0,0.0,0.0,0.0,0.0,0.0,0.0,0.0,0.0,0.0,0.0,0.0,0.0,0.0,0.0,0.0,0.0,0.0,0.0,0.0,0.0,0.0,0.0,0.0,0.0,0.0,0.0,0.0,0.0,0.0,0.0,0.0,0.0,0.0,0.0,0.0,0.0,0.0,0.0,0.0,0.0,0.0,0.0,0.0,0.0,0.0,0.0,0.0,0.0,0.0,0.0,0.0,0.0,0.0,0.0,0.0,0.0,0.0,0.0,0.0,0.0,0.0,0.0,0.0,0.0,0.0,0.0,0.0,0.0,0.0,0.0,0.0,-0.0038,-0.0118,-0.0112,-0.0593,-0.1435,-0.1627,-0.2154,-0.291,-0.3056,-0.3085,-0.3085,-0.3085,-0.3085,-0.3085,-0.3085,-0.3085,-0.3085,0.6476,0.6476,0.6224,0.5372,0.502,0.4518,0.3416,0.3215,0.3065,0.2564,0.1762,0.126,0.126,0.0504,0.0,0.0,0.0,0.0,0.0,0.0,0.0,0.0,0.0,0.0,0.0,0.0,0.0,0.0,0.0,0.0,0.0,0.0,0.0,0.0,0.0,0.0,0.0,0.0,0.0,0.0,0.0,0.0,0.0,0.0,0.0,0.0,0.0,0.0,0.0,0.0,0.0,0.0,0.0,0.0,0.0,0.0,0.0,0.0,0.0,0.0,0.0,0.0,0.0,0.0,0.0,0.0,0.0,0.0,0.0,0.0,0.0,0.0,0.0,0.0,0.0,0.0,0.0,0.0,0.0,0.0,0.0,0.0,0.0,0.0,0.0,0.0,0.0,0.0,0.0,0.0,0.0,0.0,0.0,0.0,0.0,0.0,0.0,0.0,0.0,0.0,0.0,0.0,-0.0192,-0.0503,-0.058,-0.0812,-0.1122,-0.1171,-0.1175,-0.1175,-0.1175,-0.1175,-0.1175,-0.1175,-0.1175,-0.1175,0.7988,0.7988,0.7686,0.6783,0.6379,0.5874,0.477,0.4618,0.4468,0.4066,0.3215,0.2614,0.2614,0.1411,0.0605,0.0605,0.0252,0.0,0.0,0.0,0.0,0.0,0.0,0.0,0.0,0.0,0.0,0.0,0.0,0.0,0.0,0.0,0.0,0.0,0.0,0.0,0.0,0.0,0.0,0.0,0.0,0.0,0.0,0.0,0.0,0.0,0.0,0.0,0.0,0.0,0.0,0.0,0.0,0.0,0.0,0.0,0.0,0.0,0.0,0.0,0.0,0.0,0.0,0.0,0.0,0.0,0.0,0.0,0.0,0.0,0.0,0.0,0.0,0.0,0.0,0.0,0.0,0.0,0.0,0.0,0.0,0.0,0.0,0.0,0.0,0.0,0.0,0.0,0.0,0.0,0.0,0.0,0.0,0.0,0.0,0.0,0.0,0.0,0.0,0.0,0.0,0.0,0.0,0.0,0.0,0.0,0.0,0.0,0.0,0.0,0.0,0.0,0.0,0.0,0.0,0.0,0.7988,0.7988,0.7988,0.7988,0.7988,0.7537,0.6229,0.6029,0.5525,0.4216,0.4016,0.4016,0.4016,0.2815,0.2013,0.2013,0.0807,0.0,0.0,0.0,0.0,0.0,0.0,0.0,0.0,0.0,0.0,0.0,0.0,0.0,0.0,0.0,0.0,0.0,0.0,0.0,0.0,0.0,0.0,0.0,0.0,0.0,0.0,0.0,0.0,0.0,0.0,0.0,0.0,0.0,0.0,0.0,0.0,0.0,0.0,0.0,0.0,0.0,0.0,0.0,0.0,0.0,0.0,0.0,0.0,0.0,0.0,0.0,0.0,0.0,0.0,0.0,0.0,0.0,0.0,0.0,0.0,0.0,0.0,0.0,0.0,0.0,0.0,0.0,0.0,0.0,0.0,0.0,0.0,0.0,0.0,0.0,0.0,0.0,0.0,0.0,0.0,0.0,0.0,0.0,0.0,0.0,0.0,0.0,0.0,0.0,0.0,0.0,0.0,0.0,0.0,0.0,0.0,0.0,0.0,0.0,0.7988,0.7988,0.7988,0.7988,0.7988,0.7889,0.7484,0.7385,0.7285,0.688,0.5974,0.5425,0.5425,0.4218,0.3015,0.2063,0.1611,0.1008,0.005,0.0,0.0,0.0,0.0,0.0,0.0,0.0,0.0,0.0,0.0,0.0,0.0,0.0,0.0,0.0,0.0,0.0,0.0,0.0,0.0,0.0,0.0,0.0,0.0,0.0,0.0,0.0,0.0,0.0,0.0,0.0,0.0,0.0,0.0,0.0,0.0,0.0,0.0,0.0,0.0,0.0,0.0,0.0,0.0,0.0,0.0,0.0,0.0,0.0,0.0,0.0,0.0,0.0,0.0,0.0,0.0,0.0,0.0,0.0,0.0,0.0,0.0,0.0,0.0,0.0,0.0,0.0,0.0,0.0,0.0,0.0,0.0,0.0,0.0,0.0,0.0,0.0,0.0,0.0,0.0,0.0,0.0,0.0,0.0,0.0,0.0,0.0,0.0,0.0,0.0,0.0,0.0,0.0,0.0,0.0,0.0,0.0,0.7988,0.7988,0.7988,0.7988,0.7988,0.7988,0.7988,0.7988,0.7988,0.7988,0.7285,0.6783,0.6783,0.5572,0.447,0.3668,0.3116,0.2465,0.1611,0.1561,0.1561,0.1561,0.1058,0.0555,0.0,0.0,0.0,0.0,0.0,0.0,0.0,0.0,0.0,0.0,0.0,0.0,0.0,0.0,0.0,0.0,0.0,0.0,0.0,0.0,0.0,0.0,0.0,0.0,0.0,0.0,0.0,0.0,0.0,0.0,0.0,0.0,0.0,0.0,0.0,0.0,0.0,0.0,0.0,0.0,0.0,0.0,0.0,0.0,0.0,0.0,0.0,0.0,0.0,0.0,0.0,0.0,0.0,0.0,0.0,0.0,0.0,0.0,0.0,0.0,0.0,0.0,0.0,0.0,0.0,0.0,0.0,0.0,0.0,0.0,0.0,0.0,0.0,0.0,0.0,0.0,0.0,0.0,0.0,0.0,0.0,0.0,0.0,0.0,0.0,0.0,0.0,0.0,0.0,0.0,0.0,0.0,0.7988,0.7988,0.7988,0.7988,0.7988,0.7988,0.7988,0.7988,0.7988,0.7988,0.7988,0.7988,0.7988,0.6933,0.6129,0.6029,0.477,0.4016,0.4016,0.4016,0.4016,0.4016,0.2815,0.1611,0.0404,0.0252,0.0101,0.0,0.0101,0.0101,0.0,0.0,0.0,0.0,0.0,0.0,0.0,0.0,0.0,0.0,0.0,0.0,0.0,0.0,0.0,0.0,0.0139,0.0092,0.0,0.0135,0.009,0.0,0.0135,0.009,0.0,0.0,0.0,0.0,0.0,0.0,0.0,0.0,0.0,0.0,0.0,0.0,0.0,0.0,0.0,0.0,0.0,0.0,0.0,0.0,0.0,0.0,0.0,0.0,0.0,0.0,0.0,0.0,0.0,0.0,0.0,0.0,0.0,0.0,0.0,0.0,0.0,0.0,0.0,0.0,0.0,0.0,0.0,0.0,0.0,0.0,0.0,0.0,0.0,0.0,0.0,0.0,0.0,0.0,0.0,0.0,0.0,0.0,0.0,0.0,0.0,0.0,0.7988,0.7988,0.7988,0.7988,0.7988,0.7988,0.7988,0.7988,0.7988,0.7988,0.7988,0.7988,0.7988,0.7739,0.7135,0.6079,0.477,0.4016,0.4016,0.4016,0.4016,0.4016,0.3715,0.3416,0.3115,0.2113,0.1058,0.0,0.1058,0.1008,0.0,0.0,0.0,0.0,0.0,0.0,0.0,0.0,0.0,0.0,0.0,0.0,0.0,0.0,0.0,0.0142,0.1183,0.0888,0.0138,0.1081,0.0762,0.018,0.1121,0.0763,0.0,0.0,0.0,0.0,0.0,0.0,0.0,0.0,0.0,0.0,0.0,0.0,0.0,0.0,0.0,0.0,0.0,0.0,0.0,0.0,0.0,0.0,0.0,0.0,0.0,0.0,0.0,0.0,0.0,0.0,0.0,0.0,0.0,0.0,0.0,0.0,0.0,0.0,0.0,0.0,0.0,0.0,0.0,0.0,0.0,0.0,0.0,0.0,0.0,0.0,0.0,0.0,0.0,0.0,0.0,0.0,0.0,0.0,0.0,0.0,0.0,0.0,0.7988,0.7988,0.7988,0.7988,0.7988,0.7988,0.7988,0.7988,0.7988,0.7988,0.7988,0.7988,0.7988,0.7988,0.7736,0.7033,0.6326,0.5922,0.5922,0.5922,0.5922,0.5922,0.5272,0.497,0.497,0.427,0.3268,0.1913,0.2614,0.2614,0.1913,0.1913,0.1913,0.1913,0.1913,0.1561,0.0958,0.0958,0.0605,0.0,0.0,0.0,0.0,0.0,0.0,0.0193,0.1496,0.1952,0.2009,0.2634,0.2381,0.1908,0.2541,0.2299,0.1701,0.1701,0.1299,0.0986,0.1567,0.0897,0.0134,0.0708,0.0442,0.0,0.0,0.0,0.0,0.0,0.0,0.0,0.0,0.0,0.0,0.0,0.0,0.0,0.0,0.0,0.0,0.0,0.0,0.0,0.0,0.0,0.0,0.0,0.0,0.0,0.0,0.0,0.0,0.0,0.0,0.0,0.0,0.0,0.0,0.0,0.0,0.0,0.0,0.0,0.0,0.0,0.0,0.0,0.0,0.0,0.0,0.0,0.0,0.0,0.0,0.0,0.0,0.0,0.7988,0.7988,0.7988,0.7988,0.7988,0.7988,0.7988,0.7988,0.7988,0.7988,0.7988,0.7988,0.7988,0.7988,0.7988,0.7988,0.7988,0.7988,0.7988,0.7988,0.7988,0.7988,0.6933,0.6331,0.6331,0.6331,0.5575,0.4016,0.4218,0.4218,0.4016,0.4016,0.4016,0.4016,0.4016,0.3366,0.2364,0.2364,0.1711,0.0656,0.0454,0.0353,0.0353,0.0353,0.02,0.0197,0.177,0.3057,0.4007,0.3992,0.3897,0.3889,0.4073,0.3934,0.3652,0.3638,0.292,0.2335,0.335,0.2147,0.0852,0.1879,0.137,0.0605,0.0623,0.0291,0.0,0.0,0.0,0.0,0.0,0.0,0.0,0.0,0.0,0.0,0.0,0.0,0.0,0.0,0.0,0.0,0.0,0.0,0.0,0.0,0.0,0.0,0.0,0.0,0.0,0.0,0.0,0.0,0.0,0.0,0.0,0.0,0.0,0.0,0.0,0.0,0.0,0.0,0.0,0.0,0.0,0.0,0.0,0.0,0.0,0.0,0.0,0.0,0.0,0.0,0.7988,0.7988,0.7988,0.7988,0.7988,0.7988,0.7988,0.7988,0.7988,0.7988,0.7988,0.7988,0.7988,0.7988,0.7988,0.7988,0.7988,0.7988,0.7988,0.7988,0.7988,0.7988,0.7839,0.7739,0.7739,0.7739,0.6526,0.4016,0.5172,0.5122,0.4016,0.4016,0.4016,0.4016,0.4016,0.3915,0.3715,0.3715,0.3615,0.3364,0.2213,0.1712,0.1712,0.1712,0.1006,0.0352,0.2853,0.3857,0.3983,0.3867,0.3885,0.416,0.5195,0.481,0.3942,0.3827,0.3668,0.3518,0.3588,0.3349,0.317,0.3303,0.3252,0.3093,0.3109,0.1487,0.0,0.0,0.0,0.0,0.0,0.0,0.0,0.0,0.0,0.0,0.0,0.0,0.0,0.0,0.0,0.0,0.0,0.0,0.0,0.0,0.0,0.0,0.0,0.0,0.0,0.0,0.0,0.0,0.0,0.0,0.0,0.0,0.0,0.0,0.0,0.0,0.0,0.0,0.0,0.0,0.0,0.0,0.0,0.0,0.0,0.0,0.0,0.0,0.0,0.0,0.7988,0.7988,0.7988,0.7988,0.7988,0.7988,0.7988,0.7988,0.7988,0.7988,0.7988,0.7988,0.7988,0.7988,0.7988,0.7988,0.7988,0.7988,0.7988,0.7988,0.7988,0.7988,0.7988,0.7988,0.7988,0.7988,0.7431,0.6224,0.683,0.683,0.6224,0.6224,0.6224,0.6224,0.6224,0.5822,0.5122,0.5122,0.467,0.3966,0.3364,0.3115,0.3115,0.3115,0.2765,0.2465,0.442,0.5596,0.6243,0.6141,0.6128,0.6218,0.6747,0.6507,0.6017,0.5963,0.543,0.5032,0.5569,0.4723,0.385,0.4476,0.4105,0.3606,0.3619,0.2756,0.203,0.2025,0.2014,0.2008,0.203,0.1922,0.1657,0.108,0.1421,0.1573,0.1077,0.1421,0.1527,0.0941,0.0902,0.0667,0.0039,0.0,0.0,0.0,0.0,0.0,0.0,0.0,0.0,0.0,0.0,0.0,0.0,0.0,0.0,0.0,0.0,0.0,0.0,0.0,0.0,0.0,0.0,0.0,0.0,0.0,0.0,0.0,0.0,0.0,0.0,0.0,0.0,0.0]}]]